[[{"header":{"parameterUnit":"m.s-1","parameterCategory":1,"la1":30.6,"la2":28.766,"lo1":-90.7593,"lo2":-88.6598,"dy":0.0162,"dx":0.0183,"nx":116,"ny":114,"refTime":"2023-03-06T18:00:00:Z","depth":0,"parameterNumber":2,"parameterNumberName":"U-component_of_WINDS"},"data":[0.0,0.0,0.0,0.0,0.0,0.0,0.0,0.0,0.0,0.0,0.0,0.0,0.0,0.0,0.0,0.0,0.0,0.0,0.0,0.0,0.0,0.0,0.0,0.0,0.0,0.0,0.0,0.0,0.0,0.0,0.0,0.0,0.0,0.0,0.0,0.0,0.0,0.0,0.0,0.0,0.0,0.0,0.0,0.0,0.0,0.0,0.0,0.0,0.0,0.0,0.0,0.0,0.0,0.0,0.0,0.0,0.0,0.0,0.0,0.0,0.0,0.0,0.0,0.0,0.0,0.0,0.0,0.0,0.0,0.0,0.0,0.0,0.0,0.0,0.0,0.0,0.0,0.0,0.0,0.0,0.0,0.0,0.0,0.0,0.0,0.0,0.0,0.0,0.0,0.0,0.0,0.0,0.0,0.0,0.0,0.0,0.0,0.0,0.0,0.0,0.0,0.0,0.0,0.0,0.0,0.0,0.0,0.0,0.0,0.0,0.0,0.0,0.0,0.0,0.0,0.0,0.0,0.0,0.0,0.0,0.0,0.0,0.0,0.0,0.0,0.0,0.0,0.0,0.0,0.0,0.0,0.0,0.0,0.0,0.0,0.0,0.0,0.0,0.0,0.0,0.0,0.0,0.0,0.0,0.0,0.0,0.0,0.0,0.0,0.0,0.0,0.0,0.0,0.0,0.0,0.0,0.0,0.0,0.0,0.0,0.0,0.0,0.0,0.0,0.0,0.0,0.0,0.0,0.0,0.0,0.0,0.0,0.0,0.0,0.0,0.0,0.0,0.0,0.0,0.0,0.0,0.0,0.0,0.0,0.0,0.0,0.0,0.0,0.0,0.0,0.0,0.0,0.0,0.0,0.0,0.0,0.0,0.0,0.0,0.0,0.0,0.0,0.0,0.0,0.0,0.0,0.0,0.0,0.0,0.0,0.0,0.0,0.0,0.0,0.0,0.0,0.0,0.0,0.0,0.0,0.0,0.0,0.0,0.0,0.0,0.0,0.0,0.0,0.0,0.0,0.0,0.0,0.0,0.0,0.0,0.0,0.0,0.0,0.0,0.0,0.0,0.0,0.0,0.0,0.0,0.0,0.0,0.0,0.0,0.0,0.0,0.0,0.0,0.0,0.0,0.0,0.0,0.0,0.0,0.0,0.0,0.0,0.0,0.0,0.0,0.0,0.0,0.0,0.0,0.0,0.0,0.0,0.0,0.0,0.0,0.0,0.0,0.0,0.0,0.0,0.0,0.0,0.0,0.0,0.0,0.0,0.0,0.0,0.0,0.0,0.0,0.0,0.0,0.0,0.0,0.0,0.0,0.0,0.0,0.0,0.0,0.0,0.0,0.0,0.0,0.0,0.0,0.0,0.0,0.0,0.0,0.0,0.0,0.0,0.0,0.0,0.0,0.0,0.0,0.0,0.0,0.0,0.0,0.0,0.0,0.0,0.0,0.0,0.0,0.0,0.0,0.0,0.0,0.0,0.0,0.0,0.0,0.0,0.0,0.0,0.0,0.0,0.0,0.0,0.0,0.0,0.0,0.0,0.0,0.0,0.0,0.0,0.0,0.0,0.0,0.0,0.0,0.0,0.0,0.0,0.0,0.0,0.0,0.0,0.0,0.0,0.0,0.0,0.0,0.0,0.0,0.0,0.0,0.0,0.0,0.0,0.0,0.0,0.0,0.0,0.0,0.0,0.0,0.0,0.0,0.0,0.0,0.0,0.0,0.0,0.0,0.0,0.0,0.0,0.0,0.0,0.0,0.0,0.0,0.0,0.0,0.0,0.0,0.0,0.0,0.0,0.0,0.0,0.0,0.0,0.0,0.0,0.0,0.0,0.0,0.0,0.0,0.0,0.0,0.0,0.0,0.0,0.0,0.0,0.0,0.0,0.0,0.0,0.0,0.0,0.0,0.0,0.0,0.0,0.0,0.0,0.0,0.0,0.0,0.0,0.0,0.0,0.0,0.0,0.0,0.0,0.0,0.0,0.0,0.0,0.0,0.0,0.0,0.0,0.0,0.0,0.0,0.0,0.0,0.0,0.0,0.0,0.0,0.0,0.0,0.0,0.0,0.0,0.0,0.0,0.0,0.0,0.0,0.0,0.0,0.0,0.0,0.0,0.0,0.0,0.0,0.0,0.0,0.0,0.0,0.0,0.0,0.0,0.0,0.0,0.0,0.0,0.0,0.0,0.0,0.0,0.0,0.0,0.0,0.0,0.0,0.0,0.0,0.0,0.0,0.0,0.0,0.0,0.0,0.0,0.0,0.0,0.0,0.0,0.0,0.0,0.0,0.0,0.0,0.0,0.0,0.0,0.0,0.0,0.0,0.0,0.0,0.0,0.0,0.0,0.0,0.0,0.0,0.0,0.0,0.0,0.0,0.0,0.0,0.0,0.0,0.0,0.0,0.0,0.0,0.0,0.0,0.0,0.0,0.0,0.0,0.0,0.0,0.0,0.0,0.0,0.0,0.0,0.0,0.0,0.0,0.0,0.0,0.0,0.0,0.0,0.0,0.0,0.0,0.0,0.0,0.0,0.0,0.0,0.0,0.0,0.0,0.0,0.0,0.0,0.0,0.0,0.0,0.0,0.0,0.0,0.0,0.0,0.0,0.0,0.0,0.0,0.0,0.0,0.0,0.0,0.0,0.0,0.0,0.0,0.0,0.0,0.0,0.0,0.0,0.0,0.0,0.0,0.0,0.0,0.0,0.0,0.0,0.0,0.0,0.0,0.0,0.0,0.0,0.0,0.0,0.0,0.0,0.0,0.0,0.0,0.0,0.0,0.0,0.0,0.0,0.0,0.0,0.0,0.0,0.0,0.0,0.0,0.0,0.0,0.0,0.0,0.0,0.0,0.0,0.0,0.0,0.0,0.0,0.0,0.0,0.0,0.0,0.0,0.0,0.0,0.0,0.0,0.0,0.0,0.0,0.0,0.0,0.0,0.0,0.0,0.0,0.0,0.0,0.0,0.0,0.0,0.0,0.0,0.0,0.0,0.0,0.0,0.0,0.0,0.0,0.0,0.0,0.0,0.0,0.0,0.0,0.0,0.0,0.0,0.0,0.0,0.0,0.0,0.0,0.0,0.0,0.0,0.0,0.0,0.0,0.0,0.0,0.0,0.0,0.0,0.0,0.0,0.0,0.0,0.0,0.0,0.0,0.0,0.0,0.0,0.0,0.0,0.0,0.0,0.0,0.0,0.0,0.0,0.0,0.0,0.0,0.0,0.0,0.0,0.0,0.0,0.0,0.0,0.0,0.0,0.0,0.0,0.0,0.0,0.0,0.0,0.0,0.0,0.0,0.0,0.0,0.0,0.0,0.0,0.0,0.0,0.0,0.0,0.0,0.0,0.0,0.0,0.0,0.0,0.0,0.0,0.0,0.0,0.0,0.0,0.0,0.0,0.0,0.0,0.0,0.0,0.0,0.0,0.0,0.0,0.0,0.0,0.0,0.0,0.0,0.0,0.0,0.0,0.0,0.0,0.0,0.0,0.0,0.0,0.0,0.0,0.0,0.0,0.0,0.0,0.0,0.0,0.0,0.0,0.0,0.0,0.0,0.0,0.0,0.0,0.0,0.0,0.0,0.0,0.0,0.0,0.0,0.0,0.0,0.0,0.0,0.0,0.0,0.0,0.0,0.0,0.0,0.0,0.0,0.0,0.0,0.0,0.0,0.0,0.0,0.0,0.0,0.0,0.0,0.0,0.0,0.0,0.0,0.0,0.0,0.0,0.0,0.0,0.0,0.0,0.0,0.0,0.0,0.0,0.0,0.0,0.0,0.0,0.0,0.0,0.0,0.0,0.0,0.0,0.0,0.0,0.0,0.0,0.0,0.0,0.0,0.0,0.0,0.0,0.0,0.0,0.0,0.0,0.0,0.0,0.0,0.0,0.0,0.0,0.0,0.0,0.0,0.0,0.0,0.0,0.0,0.0,0.0,0.0,0.0,0.0,0.0,0.0,0.0,0.0,0.0,0.0,0.0,0.0,0.0,0.0,0.0,0.0,0.0,0.0,0.0,0.0,0.0,0.0,0.0,0.0,0.0,0.0,0.0,0.0,0.0,0.0,0.0,0.0,0.0,0.0,0.0,0.0,0.0,0.0,0.0,0.0,0.0,0.0,0.0,0.0,0.0,0.0,0.0,0.0,0.0,0.0,0.0,0.0,0.0,0.0,0.0,0.0,0.0,0.0,0.0,0.0,0.0,0.0,0.0,0.0,0.0,0.0,0.0,0.0,0.0,0.0,0.0,0.0,0.0,0.0,0.0,0.0,0.0,0.0,0.0,0.0,0.0,0.0,0.0,0.0,0.0,0.0,0.0,0.0,0.0,0.0,0.0,0.0,0.0,0.0,0.0,0.0,0.0,0.0,0.0,0.0,0.0,0.0,0.0,0.0,0.0,0.0,0.0,0.0,0.0,0.0,0.0,0.0,0.0,0.0,0.0,0.0,0.0,0.0,0.0,0.0,0.0,0.0,0.0,0.0,0.0,0.0,0.0,0.0,0.0,0.0,0.0,0.0,0.0,0.0,0.0,0.0,0.0,0.0,0.0,0.0,0.0,0.0,0.0,0.0,0.0,0.0,0.0,0.0,0.0,0.0,0.0,0.0,0.0,0.0,0.0,0.0,0.0,0.0,0.0,0.0,0.0,0.0,0.0,0.0,0.0,0.0,0.0,0.0,0.0,0.0,0.0,0.0,0.0,0.0,0.0,0.0,0.0,0.0,0.0,0.0,0.0,0.0,0.0,0.0,0.0,0.0,0.0,0.0,0.0,0.0,0.0,0.0,0.0,0.0,0.0,0.0,0.0,0.0,0.0,0.0,0.0,0.0,0.0,0.0,0.0,0.0,0.0,0.0,0.0,0.0,0.0,0.0,0.0,0.0,0.0,0.0,0.0,0.0,0.0,0.0,0.0,0.0,0.0,0.0,0.0,0.0,0.0,0.0,0.0,0.0,0.0,0.0,0.0,0.0,0.0,0.0,0.0,0.0,0.0,0.0,0.0,0.0,0.0,0.0,0.0,0.0,0.0,0.0,0.0,0.0,0.0,0.0,0.0,0.0,0.0,0.0,0.0,0.0,0.0,0.0,0.0,0.0,0.0,0.0,0.0,0.0,0.0,0.0,0.0,0.0,0.0,0.0,0.0,0.0,0.0,0.0,0.0,0.0,0.0,0.0,0.0,0.0,0.0,0.0,0.0,0.0,0.0,0.0,0.0,0.0,0.0,0.0,0.0,0.0,0.0,0.0,0.0,0.0,0.0,0.0,0.0,0.0,0.0,0.0,0.0,0.0,0.0,0.0,0.0,0.0,0.0,0.0,0.0,0.0,0.0,0.0,0.0,0.0,0.0,0.0,0.0,0.0,0.0,0.0,0.0,0.0,0.0,0.0,0.0,0.0,0.0,0.0,0.0,0.0,0.0,0.0,0.0,0.0,0.0,0.0,0.0,0.0,0.0,0.0,0.0,0.0,0.0,0.0,0.0,0.0,0.0,0.0,0.0,0.0,0.0,0.0,0.0,0.0,0.0,0.0,0.0,0.0,0.0,0.0,0.0,0.0,0.0,0.0,0.0,0.0,0.0,0.0,0.0,0.0,0.0,0.0,0.0,0.0,0.0,0.0,0.0,0.0,0.0,0.0,0.0,0.0,0.0,0.0,0.0,0.0,0.0,0.0,0.0,0.0,0.0,0.0,0.0,0.0,0.0,0.0,0.0,0.0,0.0,0.0,0.0,0.0,0.0,0.0,0.0,0.0,0.0,0.0,0.0,0.0,0.0,0.0,0.0,0.0,0.0,0.0,0.0,0.0,0.0,0.0,0.0,0.0,0.0,0.0,0.0,0.0,0.0,0.0,0.0,0.0,0.0,0.0,0.0,0.0,0.0,0.0,0.0,0.0,0.0,0.0,0.0,0.0,0.0,0.0,0.0,0.0,0.0,0.0,0.0,0.0,0.0,0.0,0.0,0.0,0.0,0.0,0.0,0.0,0.0,0.0,0.0,0.0,0.0,0.0,0.0,0.0,0.0,0.0,0.0,0.0,0.0,0.0,0.0,0.0,0.0,0.0,0.0,0.0,0.0,0.0,0.0,0.0,0.0,0.0,0.0,0.0,0.0,0.0,-3.9019,0.0,0.0,0.0,0.0,0.0,0.0,0.0,0.0,0.0,0.0,0.0,0.0,0.0,0.0,0.0,0.0,0.0,0.0,0.0,0.0,0.0,0.0,0.0,0.0,0.0,0.0,0.0,0.0,0.0,0.0,0.0,0.0,0.0,0.0,0.0,0.0,0.0,0.0,0.0,0.0,0.0,0.0,0.0,0.0,0.0,0.0,0.0,0.0,0.0,0.0,0.0,0.0,0.0,0.0,0.0,0.0,0.0,0.0,0.0,0.0,0.0,0.0,0.0,0.0,0.0,0.0,0.0,0.0,0.0,0.0,0.0,0.0,0.0,0.0,0.0,0.0,0.0,0.0,0.0,0.0,0.0,0.0,0.0,0.0,0.0,0.0,0.0,0.0,0.0,0.0,0.0,0.0,0.0,0.0,0.0,0.0,0.0,0.0,0.0,0.0,0.0,0.0,0.0,0.0,0.0,0.0,0.0,0.0,0.0,0.0,0.0,0.0,0.0,0.0,0.0,0.0,-4.0322,0.0,0.0,0.0,0.0,0.0,0.0,0.0,0.0,0.0,0.0,0.0,0.0,0.0,0.0,0.0,0.0,0.0,0.0,0.0,0.0,0.0,0.0,0.0,0.0,0.0,0.0,0.0,0.0,0.0,0.0,0.0,0.0,0.0,0.0,0.0,0.0,0.0,0.0,0.0,0.0,0.0,0.0,0.0,0.0,0.0,0.0,0.0,0.0,0.0,0.0,0.0,0.0,0.0,0.0,0.0,0.0,0.0,0.0,0.0,0.0,0.0,0.0,0.0,0.0,0.0,0.0,0.0,0.0,0.0,0.0,0.0,0.0,0.0,0.0,0.0,0.0,0.0,0.0,0.0,0.0,0.0,0.0,0.0,0.0,0.0,0.0,0.0,0.0,0.0,0.0,0.0,0.0,0.0,0.0,0.0,0.0,0.0,0.0,0.0,0.0,0.0,0.0,0.0,0.0,0.0,0.0,0.0,0.0,-4.6673,-4.7517,-4.8948,-4.9095,-4.915,-4.9022,-4.6342,-4.3956,-4.1939,-4.1939,0.0,0.0,0.0,0.0,0.0,0.0,0.0,0.0,0.0,0.0,0.0,0.0,0.0,0.0,0.0,0.0,0.0,0.0,0.0,0.0,0.0,0.0,0.0,0.0,0.0,0.0,0.0,0.0,0.0,0.0,0.0,0.0,0.0,0.0,0.0,0.0,0.0,0.0,-4.354,-4.4413,-4.4636,-4.4191,-4.133,0.0,0.0,0.0,0.0,0.0,0.0,0.0,0.0,0.0,0.0,0.0,0.0,0.0,0.0,0.0,0.0,0.0,0.0,0.0,0.0,0.0,0.0,0.0,0.0,0.0,0.0,0.0,0.0,0.0,0.0,0.0,0.0,0.0,0.0,0.0,0.0,0.0,0.0,0.0,0.0,0.0,0.0,0.0,-3.6232,-3.6366,0.0,0.0,0.0,0.0,0.0,0.0,0.0,0.0,0.0,0.0,0.0,0.0,0.0,-4.5278,-4.5278,-4.6856,-4.8122,-4.9022,-4.9793,-5.0637,-5.1536,-5.2252,-5.2543,-5.2546,-5.2123,0.0,-4.5278,-4.5278,0.0,0.0,0.0,0.0,0.0,0.0,0.0,0.0,0.0,0.0,0.0,0.0,0.0,0.0,0.0,0.0,0.0,0.0,0.0,0.0,0.0,0.0,0.0,0.0,0.0,0.0,0.0,0.0,0.0,0.0,0.0,0.0,0.0,0.0,0.0,0.0,-4.1627,-4.3782,-4.5417,-4.6252,-4.6643,-4.6587,-4.5138,-4.3726,-4.2352,-4.1163,0.0,0.0,0.0,0.0,0.0,0.0,0.0,0.0,0.0,0.0,0.0,0.0,0.0,0.0,0.0,0.0,0.0,0.0,0.0,0.0,0.0,0.0,0.0,0.0,0.0,0.0,0.0,0.0,0.0,0.0,0.0,0.0,0.0,0.0,0.0,0.0,0.0,0.0,0.0,-3.7482,-3.8044,-3.8994,-3.8744,-3.8493,0.0,0.0,0.0,0.0,0.0,0.0,0.0,0.0,0.0,-4.3962,-4.6617,-4.8254,-4.8714,-4.9832,-5.1004,-5.2252,-5.2637,-5.3243,-5.4032,-5.4381,-5.4546,-5.4546,-5.4546,-5.3078,-5.0563,-4.9205,-4.7003,-4.4416,0.0,0.0,0.0,0.0,-4.215,-4.25,0.0,0.0,0.0,0.0,0.0,0.0,0.0,0.0,0.0,0.0,0.0,0.0,0.0,0.0,0.0,-3.3732,0.0,0.0,0.0,0.0,0.0,0.0,0.0,0.0,0.0,0.0,0.0,0.0,-4.4042,-4.5695,-4.7125,-4.7943,-4.8426,-4.8649,-4.8649,-4.7274,-4.4878,-4.3875,-4.2612,0.0,0.0,0.0,0.0,0.0,0.0,0.0,0.0,0.0,0.0,0.0,0.0,0.0,0.0,0.0,0.0,0.0,0.0,0.0,0.0,0.0,0.0,0.0,0.0,0.0,0.0,0.0,0.0,0.0,0.0,0.0,0.0,0.0,0.0,0.0,0.0,0.0,0.0,-3.9295,-4.0185,-4.1433,-4.1289,-4.111,0.0,0.0,0.0,0.0,0.0,0.0,-4.5012,-4.6437,-4.729,-4.7459,-4.9547,-5.1056,-5.1827,-5.2612,-5.3561,-5.4711,-5.4913,-5.5335,-5.5904,-5.6106,-5.6198,-5.6198,-5.6198,-5.5757,-5.484,-5.2637,-5.0398,-4.8268,-4.7462,-4.6654,-4.5957,-4.5957,-4.6049,-4.6304,0.0,0.0,0.0,0.0,0.0,0.0,0.0,0.0,0.0,0.0,0.0,0.0,0.0,0.0,-3.5412,-3.6237,-3.6311,-3.5673,0.0,0.0,0.0,0.0,0.0,0.0,0.0,0.0,0.0,-4.3875,-4.6327,-4.7943,-4.8797,-4.9596,-5.0432,-5.1212,-5.1212,-4.9837,-4.7404,-4.5844,-4.4655,-4.3615,0.0,0.0,0.0,0.0,0.0,0.0,0.0,0.0,0.0,0.0,0.0,0.0,0.0,0.0,0.0,0.0,0.0,0.0,0.0,0.0,0.0,0.0,0.0,0.0,0.0,0.0,0.0,0.0,0.0,0.0,0.0,0.0,0.0,0.0,0.0,0.0,0.0,0.0,0.0,-4.2585,-4.3324,0.0,0.0,0.0,0.0,-4.6411,-4.6542,-4.7154,-4.8554,-4.9446,-5.0193,-5.0841,-5.2447,-5.3662,-5.4425,-5.5196,-5.5595,-5.5559,-5.6308,-5.6712,-5.6767,-5.7538,-5.7868,-5.7868,-5.7868,-5.7428,-5.6565,-5.4895,-5.3243,-5.1665,-5.0875,-5.005,-4.9353,-4.9353,-4.9829,-5.06,0.0,0.0,0.0,0.0,0.0,0.0,0.0,0.0,0.0,0.0,0.0,0.0,0.0,-3.6161,-3.7592,-3.8415,-3.8086,-3.761,-3.7036,0.0,0.0,0.0,0.0,0.0,0.0,0.0,-4.3169,-4.4841,-4.7274,-4.889,-4.9707,-5.1082,-5.1881,-5.2178,-5.2178,-5.1676,-5.0711,-4.8537,-4.7144,-4.616,-4.3664,-4.188,0.0,0.0,0.0,0.0,0.0,0.0,0.0,0.0,0.0,0.0,0.0,0.0,0.0,0.0,0.0,0.0,0.0,0.0,0.0,0.0,0.0,0.0,0.0,0.0,0.0,0.0,0.0,0.0,0.0,0.0,0.0,0.0,0.0,0.0,0.0,0.0,0.0,-4.5718,-4.6243,0.0,-4.7354,-4.7442,-4.7922,-4.9024,-4.9641,-5.0393,-5.1425,-5.2768,-5.3572,-5.3739,-5.4757,-5.5642,-5.633,-5.6498,-5.6813,-5.7265,-5.7491,-5.7574,-5.7593,-5.8419,-5.8786,-5.8804,-5.9318,-5.9391,-5.9079,-5.851,-5.6693,-5.4234,-5.3427,-5.2931,-5.2692,-5.2692,-5.2858,-5.3225,0.0,0.0,0.0,0.0,0.0,0.0,0.0,0.0,0.0,0.0,0.0,-3.4739,-3.586,-3.7863,-3.9374,-3.9953,-3.9374,-3.8868,-3.8624,0.0,0.0,0.0,0.0,0.0,0.0,-4.25,-4.4581,-4.6513,-4.8389,-4.9875,-5.0971,-5.2085,-5.2735,-5.2995,-5.2995,-5.2995,-5.2884,-5.0971,-4.9337,-4.7892,-4.5949,-4.4024,-4.2149,0.0,0.0,0.0,0.0,0.0,0.0,0.0,0.0,0.0,0.0,0.0,0.0,0.0,0.0,0.0,0.0,0.0,0.0,0.0,0.0,0.0,0.0,0.0,0.0,0.0,0.0,0.0,0.0,0.0,0.0,0.0,0.0,0.0,0.0,0.0,-4.6281,-4.8328,-4.8926,-4.9433,-5.0043,-5.0427,-5.0962,-5.1788,-5.2651,-5.3459,-5.4249,-5.5301,-5.5958,-5.6108,-5.6514,-5.7063,-5.7756,-5.7901,-5.8176,-5.8602,-5.8791,-5.8851,-5.8822,-5.9373,-5.9588,-5.9648,-6.0181,-6.0401,-6.0401,-6.0401,-5.9134,-5.7134,-5.6326,-5.6033,-5.6033,-5.6033,-5.6033,-5.6143,0.0,0.0,0.0,0.0,0.0,0.0,0.0,0.0,0.0,0.0,-3.4265,-3.6381,-3.8129,-3.9708,-4.0688,-4.0846,-4.0165,-3.9424,-3.8719,-3.8055,0.0,0.0,0.0,0.0,-4.2779,-4.4506,-4.6531,-4.8909,-4.9745,-5.0989,-5.2605,-5.2624,-5.3051,-5.3813,-5.3813,-5.3813,-5.3757,-5.2977,-5.1194,-4.8824,-4.7972,-4.6143,-4.3767,0.0,0.0,0.0,0.0,0.0,0.0,0.0,0.0,0.0,0.0,0.0,0.0,0.0,0.0,0.0,0.0,0.0,0.0,0.0,0.0,0.0,0.0,0.0,0.0,0.0,0.0,0.0,0.0,0.0,0.0,0.0,0.0,0.0,-4.5095,-4.7319,-4.9312,-5.0311,-5.1349,-5.1984,-5.2057,-5.2934,-5.3858,-5.4708,-5.5519,-5.6298,-5.7005,-5.6995,-5.7283,-5.7922,-5.7769,-5.8019,-5.8735,-5.9483,-5.9716,-5.9453,-6.0227,-6.0543,-6.0401,-6.0438,-6.0438,-6.0438,-6.0456,-6.0474,-6.0474,-6.0474,-6.0474,-6.0401,-5.9551,-5.9239,-5.9239,-5.9239,-5.9239,-5.9349,0.0,0.0,0.0,0.0,0.0,0.0,0.0,0.0,0.0,0.0,-3.4618,-3.705,-3.8688,-4.0348,-4.1577,-4.2193,-4.1177,-4.0422,-4.022,0.0,0.0,0.0,0.0,0.0,-4.3633,-4.5881,-4.7646,-4.8909,-5.0339,-5.1584,-5.2605,-5.32,-5.359,-5.3813,-5.3813,-5.3813,-5.3794,-5.3571,-5.2641,-5.1155,-4.9141,-4.7903,-4.7037,0.0,0.0,0.0,0.0,0.0,0.0,0.0,0.0,0.0,0.0,0.0,0.0,0.0,0.0,0.0,0.0,0.0,0.0,0.0,0.0,0.0,0.0,0.0,0.0,0.0,0.0,0.0,0.0,0.0,0.0,0.0,0.0,-4.759,-4.7608,-4.8895,-5.0632,-5.2804,-5.3444,-5.4215,-5.5469,-5.589,-5.6182,-5.6408,-5.7236,-5.7804,-5.7995,-5.8494,-5.8837,-5.8915,-5.9343,-5.9612,-5.9713,-6.0339,-6.0637,-6.057,-6.0573,-6.059,-6.0562,-6.1055,-6.1263,-6.13,-6.1906,-6.2144,-6.2144,-6.2144,-6.2144,-6.2016,-6.0621,-6.007,-6.007,-6.007,-6.007,-6.0107,0.0,0.0,0.0,0.0,0.0,0.0,0.0,0.0,0.0,0.0,-3.4818,-3.7327,-3.93,-4.0723,-4.1735,-4.2242,-4.1379,-4.0645,-4.0333,0.0,0.0,0.0,0.0,-4.4005,-4.5528,-4.7293,-4.8779,-4.9949,-5.1268,-5.2308,-5.3107,-5.359,-5.3813,-5.3813,-5.3813,-5.3813,-5.3813,-5.3813,-5.3457,-5.2727,-5.0878,-4.9473,-4.831,-4.682,-4.5605,-4.4516,-4.3192,-4.2435,-4.1952,-4.1141,0.0,0.0,0.0,0.0,0.0,0.0,0.0,0.0,0.0,0.0,0.0,0.0,0.0,0.0,0.0,0.0,0.0,0.0,0.0,0.0,0.0,0.0,0.0,0.0,-4.8309,-5.0009,-5.0676,-5.1379,-5.2545,-5.4497,-5.5196,-5.595,-5.7016,-5.7513,-5.777,-5.777,-5.8545,-5.9017,-5.9017,-5.971,-6.0056,-5.9964,-6.0584,-6.0816,-6.0694,-6.1345,-6.1623,-6.1493,-6.1643,-6.1674,-6.1621,-6.1961,-6.2108,-6.2126,-6.2603,-6.278,-6.278,-6.278,-6.278,-6.2707,0.0,0.0,0.0,0.0,-6.141,-6.141,0.0,0.0,0.0,0.0,0.0,0.0,0.0,0.0,0.0,0.0,0.0,-3.7274,-3.9565,-4.0683,-4.1317,-4.1429,-4.0961,-4.0387,0.0,0.0,0.0,-4.3878,-4.4191,-4.5398,-4.7776,-4.863,-4.9856,-5.1546,-5.2252,-5.3014,-5.3813,-5.3813,-5.3813,-5.3813,-5.3813,-5.3813,-5.3813,-5.3813,-5.3774,-5.362,-5.2782,-5.0945,-4.8729,-4.8618,-4.7645,-4.6214,-4.5406,-4.5092,-4.4925,-4.4134,0.0,0.0,0.0,0.0,0.0,0.0,0.0,0.0,0.0,0.0,0.0,0.0,0.0,0.0,0.0,0.0,0.0,0.0,0.0,0.0,0.0,0.0,0.0,0.0,-5.0417,-5.2215,-5.3758,-5.4317,-5.4872,-5.5779,-5.6685,-5.7345,-5.7575,-5.8337,-5.8856,-5.8856,-5.952,-5.9939,-6.0053,0.0,0.0,0.0,0.0,-6.1798,-6.1657,-6.2372,-6.2631,-6.239,-6.2933,-6.3147,-6.3026,-6.288,-6.2805,-6.278,-6.278,-6.278,-6.278,-6.278,-6.278,-6.278,-6.278,-6.278,-6.278,-6.278,-6.278,-6.278,0.0,0.0,0.0,0.0,0.0,0.0,0.0,0.0,0.0,-3.1811,-3.4543,-3.6827,-3.7952,-3.9478,-4.0452,-4.047,-4.0091,-3.9884,0.0,0.0,-4.206,-4.3931,-4.5305,-4.6847,-4.863,-4.9503,-5.0748,-5.2364,-5.2512,-5.3014,-5.3813,-5.3813,-5.3813,-5.3813,-5.3813,-5.3813,-5.3813,-5.3813,-5.3774,-5.3675,-5.3373,-5.2498,-5.1291,-5.0585,-4.9719,-4.8784,-4.7902,-4.7205,-4.6544,-4.5736,-4.4981,-4.4222,-4.3395,0.0,0.0,0.0,0.0,0.0,0.0,0.0,0.0,0.0,0.0,0.0,0.0,0.0,0.0,0.0,0.0,0.0,0.0,0.0,0.0,-5.0285,-5.214,-5.3721,-5.4839,-5.635,-5.7413,-5.76,-5.7978,-5.854,-5.9322,-5.9608,-5.9766,-5.9828,-5.9915,-6.0301,-6.0985,-6.0993,-6.1251,-6.186,-6.2447,-6.2722,-6.264,-6.3254,-6.3534,-6.349,-6.3395,0.0,-6.3165,-6.3026,-6.2904,-6.278,-6.278,-6.278,-6.278,-6.278,-6.278,-6.278,-6.278,-6.278,-6.278,-6.278,-6.278,-6.278,0.0,0.0,0.0,0.0,0.0,0.0,0.0,0.0,0.0,0.0,-3.3169,-3.5114,-3.6362,-3.7667,-3.8474,-3.8544,-3.8556,0.0,0.0,-4.1607,-4.3036,-4.5157,-4.6438,-4.785,-4.9466,-5.0358,-5.1398,-5.2605,-5.2995,-5.3423,-5.3813,-5.3813,-5.3813,-5.3813,-5.3813,-5.3813,-5.3813,-5.3813,-5.3774,-5.3735,-5.3637,-5.3039,-5.2146,-5.1597,-5.0618,-4.95,-4.9077,-4.8416,-4.7626,-4.7241,-4.6581,-4.5883,-4.5478,-4.4264,-4.2678,0.0,0.0,0.0,0.0,0.0,0.0,0.0,0.0,0.0,0.0,0.0,0.0,0.0,0.0,-4.6287,0.0,0.0,-5.034,-5.2041,-5.3571,-5.5044,-5.6426,-5.7544,-5.8249,-5.8249,-5.8797,-5.9414,-5.9912,-6.001,-6.0053,-6.0084,-6.044,-6.083,-6.1267,-6.1898,-6.2385,-6.2691,-6.3351,-6.3646,-6.3503,-6.3729,-6.3826,-6.3798,-6.3515,-6.3331,-6.3189,-6.3051,-6.2929,-6.278,-6.278,-6.278,-6.278,-6.278,-6.278,-6.278,-6.278,-6.278,-6.278,-6.278,-6.278,-6.278,0.0,0.0,0.0,0.0,0.0,0.0,0.0,0.0,0.0,0.0,-3.1686,-3.32,-3.4552,-3.5511,-3.6181,0.0,0.0,0.0,0.0,-4.2137,-4.3865,-4.6382,-4.7274,-4.8444,-5.006,-5.0785,-5.1621,-5.2605,-5.3255,-5.3664,-5.3813,-5.3813,-5.3813,-5.3813,-5.3813,-5.3813,-5.3813,-5.3813,-5.3813,-5.3775,-5.3549,-5.3007,-5.2261,-5.1914,-5.0932,-4.9738,-4.9647,-4.9132,-4.8526,-4.8361,-4.7865,-4.7278,-4.6966,-4.5535,-4.3718,-4.2433,-4.0689,0.0,0.0,0.0,0.0,0.0,0.0,0.0,0.0,0.0,-4.5847,-4.6489,-4.726,-4.8288,-4.9794,-5.0761,-5.1857,-5.3462,-5.4743,-5.6089,-5.7679,-5.8309,-5.8633,-5.8669,-5.9422,-5.995,-6.001,-6.0087,-6.0224,-6.0391,-6.0966,-6.147,-6.1793,-6.2881,-6.3535,-6.3558,-6.4143,-6.4365,-6.4164,-6.4,-6.3873,-6.3802,-6.3538,-6.3331,-6.3189,-6.3051,-6.2929,-6.278,-6.278,-6.278,-6.278,-6.278,-6.278,-6.278,-6.278,-6.278,-6.278,-6.278,-6.278,-6.278,0.0,0.0,0.0,0.0,0.0,0.0,0.0,0.0,0.0,0.0,0.0,0.0,0.0,0.0,0.0,0.0,0.0,0.0,-4.0182,-4.1865,-4.3912,-4.6382,-4.7274,-4.8444,-5.006,-5.0209,-5.1026,-5.2605,-5.2698,-5.3107,-5.3813,-5.3813,-5.3813,-5.3813,-5.3813,-5.3813,-5.3813,-5.3813,-5.3813,-5.3719,-5.2881,-5.2451,-5.2205,-5.1349,-5.0862,-5.0563,-4.9867,-4.9537,-4.9353,-4.8563,-4.8251,-4.7921,-4.6489,-4.5847,-4.5039,-4.2086,0.0,-4.0655,-3.9845,-4.0671,-4.1974,-4.2855,-4.4305,-4.5681,0.0,0.0,-4.9078,-4.917,-4.9829,-5.0655,-5.1555,-5.1976,-5.2687,-5.4293,-5.5616,-5.6781,-5.7754,-5.8798,-5.9518,-5.9624,-5.9847,-6.001,-6.0068,-6.0197,-6.0594,-6.1373,-6.1412,-6.2043,-6.3527,-6.3592,-6.3871,-6.4537,-6.4577,-6.4501,-6.4366,-6.4063,-6.3894,-6.3873,-6.3561,-6.3331,-6.3189,-6.3051,-6.2929,-6.278,-6.278,-6.278,-6.278,-6.278,-6.278,-6.278,-6.278,-6.278,-6.278,-6.278,-6.278,-6.278,0.0,0.0,0.0,0.0,0.0,0.0,0.0,0.0,0.0,0.0,0.0,0.0,0.0,0.0,0.0,0.0,0.0,0.0,-3.9308,-4.1137,-4.3206,-4.5677,-4.7014,-4.8444,-5.006,-5.0098,-5.0692,-5.1899,-5.1899,-5.2067,-5.2419,-5.2884,-5.3107,-5.3125,-5.359,-5.3553,-5.3107,-5.3107,-5.2828,-5.2382,-5.1974,-5.1454,-5.0822,-4.9916,-4.888,-4.8031,-4.8618,-4.8233,0.0,0.0,-4.6911,-4.6783,-4.6104,-4.5259,-4.414,-4.2341,-4.1148,0.0,-4.113,-4.2121,-4.3424,-4.5168,-4.6452,-4.7517,-4.8361,-4.9462,-5.0417,-5.0914,-5.1261,-5.1738,-5.2546,-5.286,-5.337,0.0,-5.5765,-5.6893,-5.7773,-5.8874,-5.9633,-5.9774,-5.995,-6.0072,-6.0084,-6.0679,-6.1206,-6.1573,-6.2425,-6.321,-6.3851,-6.4229,-6.4473,-6.4633,-6.4596,-6.4481,-6.4245,-6.4,-6.3891,-6.3845,-6.3538,-6.3331,-6.3189,-6.3051,-6.2929,-6.278,-6.278,-6.278,-6.278,-6.278,-6.278,-6.278,-6.278,-6.278,-6.278,-6.278,-6.278,-6.278,0.0,0.0,0.0,0.0,0.0,0.0,0.0,0.0,0.0,0.0,0.0,0.0,0.0,0.0,0.0,0.0,0.0,0.0,0.0,-4.0187,-4.237,-4.4822,-4.629,-4.7683,-4.9076,-4.9317,-4.9856,-5.0711,-5.0952,-5.1175,-5.1416,-5.1992,-5.2271,-5.2289,-5.2884,-5.281,-5.2271,-5.2271,-5.1936,-5.1361,-5.0896,-5.0231,-4.94,-4.8106,-4.6616,-4.5424,-4.6819,-4.6416,0.0,0.0,-4.5241,-4.5204,-4.4984,-4.4103,-4.2965,-4.1937,-4.0965,-4.0579,-4.2194,-4.3534,-4.4966,-4.6929,-4.8378,-4.9481,-5.0124,-5.0875,-5.1628,-5.2215,-5.2325,-5.2509,-5.3075,-5.3316,-5.3717,-5.4552,-5.5522,-5.6575,-5.7754,-5.8667,-5.9351,-5.9755,-5.9966,-6.0087,-6.0084,-6.101,-6.1707,-6.1936,-6.3207,-6.4064,-6.4247,-6.4702,-6.4869,-6.4634,-6.4615,-6.4462,-6.4143,-6.3998,-6.3848,-6.3754,-6.347,-6.3284,-6.3141,-6.3002,-6.288,-6.278,-6.278,-6.278,-6.278,-6.278,-6.278,-6.278,-6.278,-6.278,-6.278,-6.278,-6.278,-6.278,0.0,0.0,0.0,0.0,0.0,0.0,0.0,0.0,0.0,0.0,0.0,0.0,0.0,0.0,0.0,0.0,0.0,0.0,0.0,-3.9078,-4.1497,-4.3931,-4.4896,-4.5751,-4.6587,-4.7367,-4.8166,-4.8983,-4.9819,-5.0636,-5.1398,-5.1416,-5.1435,-5.1435,-5.1454,-5.1454,-5.1435,-5.1435,-5.1416,-5.1249,-4.9633,-4.8841,-4.8365,-4.6002,-4.4478,-4.368,-4.4525,0.0,0.0,0.0,-4.357,-4.3441,-4.2653,-4.2378,0.0,-4.0432,-4.0487,0.0,0.0,0.0,-4.7204,-4.8048,-5.0086,-5.1885,-5.1903,-5.2546,-5.3133,-5.317,-5.317,-5.3167,-5.3185,-5.3254,-5.3617,-5.4552,-5.4902,-5.5714,-5.7641,-5.8106,-5.8639,-5.9681,-5.9921,-6.0026,0.0,-6.101,-6.1956,-6.2815,-6.3524,-6.4266,-6.512,-6.4993,-6.4853,-6.4688,-6.4634,-6.4501,-6.4284,-6.404,-6.3805,-6.3602,-6.3331,-6.3141,-6.3002,-6.2855,-6.2805,-6.278,-6.278,-6.278,-6.278,-6.278,-6.278,-6.278,-6.278,-6.278,-6.278,-6.278,-6.278,-6.278,0.0,0.0,0.0,0.0,0.0,0.0,0.0,0.0,0.0,0.0,0.0,0.0,0.0,0.0,0.0,0.0,0.0,0.0,0.0,-3.6853,-3.904,-4.1497,-4.2909,-4.4023,-4.4822,-4.5658,-4.6234,-4.6513,-4.733,-4.7887,-4.8166,-4.8704,-4.9224,-4.9763,-5.0302,-5.0246,-4.9745,-4.9745,-4.9113,-4.8091,-4.7534,-4.6876,-4.6002,-4.4134,-4.2451,-4.1018,0.0,0.0,0.0,0.0,0.0,0.0,-4.0616,0.0,0.0,-3.99,0.0,0.0,0.0,0.0,-4.8361,-5.0288,-5.1371,-5.2142,-5.2674,-5.3023,-5.3059,-5.2509,-5.2399,-5.2234,-5.172,-5.1654,-5.2014,-5.2944,-5.3716,-5.467,-5.5977,-5.7321,-5.8308,-5.882,-5.9514,0.0,0.0,0.0,0.0,-6.2818,-6.4073,-6.4908,-6.5059,-6.4958,-6.4817,-6.4634,-6.4481,-6.4265,-6.404,-6.3805,-6.3606,-6.347,-6.3213,-6.3002,-6.2855,-6.2805,-6.278,-6.278,-6.278,-6.278,-6.278,-6.278,-6.278,-6.278,-6.278,-6.278,-6.278,-6.278,-6.278,-6.278,0.0,0.0,0.0,0.0,0.0,0.0,0.0,0.0,0.0,0.0,0.0,0.0,0.0,0.0,0.0,0.0,0.0,0.0,0.0,0.0,-3.6792,-3.8985,-4.0327,-4.1423,-4.2222,-4.3373,-4.3968,-4.3968,-4.5064,-4.5602,-4.5621,-4.6457,-4.7125,-4.7646,-4.8444,-4.837,-4.7608,-4.7608,-4.6847,-4.5584,-4.5287,-4.4596,-4.3527,-4.1899,-4.0167,0.0,0.0,0.0,0.0,0.0,0.0,0.0,0.0,0.0,0.0,0.0,0.0,0.0,0.0,-4.7737,-4.9279,-5.1444,-5.2215,-5.2564,-5.3096,-5.2986,-5.2619,-5.2105,-5.1536,-5.0967,-5.0472,-5.0403,-5.0648,-5.1319,-5.2472,-5.3627,-5.4708,-5.6443,-5.7805,-5.8335,-5.9261,-5.9904,0.0,0.0,0.0,-6.2727,-6.4257,-6.5128,-6.4974,-6.4869,-6.4726,-6.4501,-6.4364,-6.4142,-6.3805,-6.3669,-6.347,-6.3242,-6.3026,-6.288,-6.278,-6.278,-6.278,-6.278,-6.278,-6.278,-6.278,-6.278,-6.278,-6.2805,-6.2855,-6.2855,-6.288,-6.2947,-6.2929,-6.2929,0.0,0.0,0.0,0.0,0.0,0.0,0.0,0.0,0.0,0.0,0.0,0.0,0.0,0.0,0.0,0.0,0.0,0.0,0.0,0.0,0.0,-3.6426,-3.7281,-3.8079,-3.8897,-4.0513,-4.1367,-4.1404,-4.2983,-4.3745,-4.3763,-4.4599,-4.5026,-4.5138,-4.59,-4.5825,-4.5101,-4.5101,-4.4581,-4.3689,-4.2927,-4.202,-4.0975,-3.9335,0.0,0.0,0.0,0.0,0.0,0.0,0.0,0.0,0.0,0.0,0.0,0.0,0.0,-4.4415,-4.7517,-4.9022,-5.0106,-5.1665,-5.2637,-5.3185,-5.3148,-5.2527,-5.1903,-5.183,-5.0528,-4.9408,0.0,0.0,-4.9448,-4.9769,-5.1155,-5.2621,-5.385,-5.5565,-5.7094,0.0,0.0,0.0,0.0,0.0,0.0,-6.2579,0.0,-6.4957,-6.4888,-6.4762,-6.4558,-6.4304,-6.4264,-6.4058,-6.3602,-6.3579,-6.3377,-6.3002,-6.2855,-6.278,-6.278,-6.278,-6.278,-6.278,-6.278,-6.2805,-6.2805,-6.2805,-6.2805,-6.283,-6.2953,-6.3026,-6.3026,-6.3165,-6.3213,-6.3165,0.0,0.0,0.0,0.0,0.0,0.0,0.0,0.0,0.0,0.0,0.0,0.0,0.0,0.0,0.0,0.0,0.0,0.0,0.0,0.0,0.0,0.0,0.0,0.0,0.0,0.0,0.0,0.0,0.0,-4.0346,-4.0346,-4.0587,-4.1349,-4.2537,-4.276,-4.2742,-4.2537,-4.2537,-4.1683,-4.0327,0.0,-3.911,-3.7632,0.0,0.0,0.0,0.0,0.0,0.0,0.0,0.0,0.0,0.0,-4.0322,-4.2707,0.0,0.0,-4.7407,-4.8857,-5.0326,-5.1628,-5.2637,-5.3059,-5.3041,-5.2435,-5.1683,-5.0747,-4.9499,-4.7957,-4.6838,0.0,0.0,0.0,-4.8532,-4.9806,0.0,-5.2735,-5.5081,0.0,-5.7289,0.0,-5.9719,-5.9902,-6.0847,0.0,0.0,-6.3922,-6.4869,-6.4761,-6.4539,-6.4384,-6.4304,-6.3974,-6.3714,-6.3602,-6.3307,-6.3051,-6.2855,-6.2823,-6.278,-6.278,-6.278,-6.278,-6.278,-6.278,-6.2855,-6.2953,-6.2953,-6.3002,-6.3117,-6.3141,-6.3165,-6.3165,-6.3189,-6.3213,-6.3189,0.0,0.0,0.0,0.0,0.0,0.0,0.0,0.0,0.0,0.0,0.0,0.0,0.0,0.0,0.0,0.0,0.0,0.0,0.0,0.0,0.0,0.0,0.0,0.0,0.0,0.0,0.0,0.0,0.0,0.0,0.0,-3.7875,-3.8729,-3.9993,-4.0346,-4.0308,-3.9955,0.0,0.0,0.0,0.0,0.0,0.0,0.0,0.0,0.0,0.0,0.0,0.0,0.0,0.0,-3.834,-4.0212,-4.2047,-4.379,-4.5186,0.0,-4.8636,-5.0215,-5.1318,-5.2179,-5.3004,-5.2931,-5.2454,-5.1665,-5.0288,-4.882,-4.7517,-4.5681,0.0,-4.4323,-4.4232,0.0,0.0,0.0,0.0,-5.1806,-5.4037,-5.5882,0.0,-5.8242,0.0,-5.985,-6.0641,-6.1254,0.0,-6.3304,-6.4348,-6.4521,-6.4365,-6.4224,-6.4079,-6.3758,-6.3511,-6.3331,-6.3051,-6.288,-6.278,-6.278,-6.278,-6.278,-6.278,-6.283,-6.288,-6.288,-6.2953,-6.3075,-6.3075,-6.3165,-6.3307,-6.3354,-6.34,-6.3488,-6.3515,-6.3497,-6.3497,0.0,0.0,0.0,0.0,0.0,0.0,0.0,0.0,0.0,0.0,0.0,0.0,0.0,0.0,0.0,0.0,0.0,0.0,0.0,0.0,0.0,0.0,0.0,0.0,0.0,0.0,0.0,0.0,0.0,0.0,0.0,0.0,0.0,0.0,0.0,0.0,0.0,0.0,0.0,0.0,0.0,0.0,0.0,0.0,0.0,0.0,0.0,0.0,0.0,0.0,-3.8175,-3.9551,-4.2543,-4.3718,-4.4544,-4.7462,-4.8471,-4.9132,-5.1389,-5.2068,-5.2325,-5.3041,-5.2601,-5.1756,-5.0839,-4.8728,-4.6636,-4.5626,0.0,-4.1827,-4.1827,-4.2396,-4.3238,-4.4373,0.0,-4.8955,-5.0934,-5.2882,-5.4777,-5.6615,-5.7735,-5.8757,-5.9642,-6.047,-6.0951,-6.0983,-6.2421,-6.354,-6.4098,-6.4208,-6.4079,-6.3714,-6.3579,-6.3354,-6.2978,-6.2855,-6.278,-6.278,-6.278,-6.2805,-6.2848,-6.2848,-6.2904,-6.3026,-6.3051,-6.3123,-6.326,-6.326,-6.3354,-6.3492,-6.3624,-6.3736,-6.3845,-6.3934,-6.3937,-6.3937,0.0,0.0,0.0,0.0,0.0,0.0,0.0,0.0,0.0,0.0,-2.5403,-2.5634,0.0,0.0,0.0,0.0,0.0,0.0,0.0,0.0,0.0,0.0,0.0,0.0,0.0,0.0,0.0,0.0,0.0,0.0,0.0,0.0,0.0,0.0,0.0,0.0,0.0,0.0,0.0,0.0,0.0,0.0,0.0,0.0,0.0,0.0,0.0,0.0,0.0,0.0,-3.8909,-4.1003,-4.2892,-4.4874,-4.6709,-4.7939,-4.9279,-5.0618,-5.1701,-5.2491,-5.3041,-5.3167,-5.2601,-5.161,-5.0143,-4.7884,0.0,0.0,-4.1001,-3.9331,-3.9331,-3.9441,-4.023,-4.2395,-4.4938,-4.7441,-4.9825,-5.2437,-5.4536,0.0,-5.7361,-5.853,-5.8881,-5.9655,0.0,0.0,-6.1693,-6.2466,-6.3195,-6.3707,-6.3764,-6.3307,-6.3171,-6.3026,-6.283,-6.2805,-6.278,-6.278,-6.278,-6.2855,-6.2978,-6.2978,-6.3026,-6.3165,-6.3265,-6.34,-6.3534,-6.3647,-6.3739,-6.383,-6.3955,-6.4019,-6.4061,-6.4108,-6.4149,-6.4149,0.0,0.0,0.0,0.0,0.0,0.0,0.0,-2.5448,-2.6005,-2.6832,-2.6915,-2.6896,-2.6859,-2.724,0.0,0.0,0.0,0.0,0.0,0.0,0.0,0.0,0.0,0.0,0.0,0.0,0.0,0.0,0.0,0.0,0.0,0.0,0.0,0.0,0.0,0.0,0.0,0.0,0.0,0.0,0.0,0.0,0.0,0.0,0.0,0.0,0.0,0.0,0.0,0.0,-3.8817,-4.091,-4.3351,-4.5204,-4.6801,-4.8471,-4.9848,-5.0986,-5.1775,-5.2582,-5.3093,-5.2674,-5.1628,-5.016,-4.8142,0.0,0.0,0.0,-3.8472,-3.6912,-3.7367,-3.7441,0.0,-4.0653,-4.2894,-4.5317,-4.8199,-5.0653,0.0,-5.4696,-5.6199,-5.7477,0.0,-5.9016,-5.9536,-6.018,-6.0939,-6.1808,-6.2791,-6.3339,-6.3497,-6.3213,-6.3075,-6.2929,-6.278,-6.278,-6.283,-6.2904,-6.2904,-6.2978,-6.3099,-6.3171,-6.3265,-6.3419,-6.3557,-6.3695,-6.3867,-6.3931,-6.404,-6.4166,-6.4227,-6.4306,-6.4365,-6.4385,-6.4405,-6.4405,0.0,0.0,0.0,0.0,0.0,0.0,0.0,-2.5856,-2.6461,-2.791,-2.8263,-2.8133,-2.7501,-2.8003,-2.8374,0.0,0.0,0.0,0.0,0.0,0.0,0.0,0.0,0.0,0.0,0.0,0.0,0.0,0.0,0.0,0.0,0.0,0.0,0.0,0.0,0.0,0.0,0.0,0.0,0.0,0.0,0.0,0.0,0.0,0.0,0.0,0.0,0.0,0.0,0.0,-3.7896,-3.9882,-4.2763,-4.458,-4.6122,-4.86,-4.9774,-5.049,-5.1463,-5.2197,-5.2546,-5.1903,-5.0472,-4.8655,-4.6416,-4.3424,0.0,-3.8597,-3.6343,-3.4839,-3.5183,-3.5532,-3.6486,0.0,-4.0956,-4.3396,-4.6462,-4.8756,-5.1041,0.0,-5.4884,0.0,-5.807,-5.8511,0.0,-5.954,-6.0337,-6.1337,-6.2647,-6.3115,-6.3307,-6.3213,-6.3026,-6.2904,-6.278,-6.283,-6.2904,-6.3002,-6.3026,-6.3123,-6.3284,-6.34,-6.3538,-6.3714,-6.3845,-6.4016,-6.4164,-6.4205,-6.4306,-6.4463,-6.4501,-6.4558,-6.4671,-6.4708,-6.4726,-6.4726,0.0,0.0,0.0,0.0,0.0,0.0,0.0,-2.6312,-2.7111,-2.7984,-2.8783,-2.9248,-2.9174,-2.9229,-2.9266,0.0,0.0,0.0,0.0,0.0,0.0,0.0,0.0,0.0,0.0,0.0,0.0,0.0,0.0,0.0,0.0,0.0,0.0,0.0,0.0,0.0,0.0,0.0,0.0,0.0,0.0,0.0,0.0,0.0,0.0,0.0,0.0,0.0,0.0,0.0,0.0,-3.8025,-3.979,-4.2396,-4.5296,-4.7719,0.0,0.0,-5.049,-5.0967,-5.1004,-5.093,-4.9646,-4.7976,-4.6287,0.0,-4.0215,-3.7147,-3.5128,-3.3495,-3.2113,-3.3036,-3.4596,-3.634,0.0,-4.2393,-4.4872,-4.7582,-4.9994,-5.1817,0.0,0.0,-5.7238,-5.8189,-5.8949,-5.954,-6.0079,-6.1042,-6.2627,-6.3047,-6.3213,-6.3213,-6.2953,-6.2805,-6.278,-6.2929,-6.3002,-6.3002,-6.3123,-6.3307,-6.3557,-6.3579,-6.3739,-6.4061,-6.4203,-6.4304,-6.4366,-6.4501,-6.4558,-6.4596,-6.4781,-6.4853,-6.4888,-6.508,-6.5147,-6.5147,0.0,0.0,0.0,0.0,0.0,0.0,-2.5578,-2.6368,-2.7185,-2.7984,-2.8858,-2.9396,-2.9396,-2.9396,-2.9396,0.0,0.0,0.0,0.0,0.0,0.0,0.0,0.0,0.0,0.0,0.0,0.0,0.0,0.0,0.0,0.0,0.0,0.0,0.0,0.0,0.0,0.0,0.0,0.0,0.0,0.0,0.0,0.0,0.0,0.0,0.0,0.0,0.0,0.0,0.0,0.0,0.0,-3.7786,-3.9328,0.0,0.0,-4.6489,-4.7205,-4.8857,-4.9297,-4.9297,-4.9297,-4.77,-4.5572,-4.3497,0.0,-3.8138,-3.5367,-3.3495,-3.2168,-3.1525,-3.1916,-3.2889,-3.4523,0.0,0.0,-4.2488,-4.5568,-4.8238,-5.0013,-5.2344,0.0,0.0,0.0,-5.8233,-5.9451,-6.0002,-6.0572,-6.1226,-6.2023,-6.2691,-6.3194,-6.2947,-6.283,-6.2929,-6.2978,-6.3123,-6.3354,-6.3419,-6.3606,-6.3891,-6.3995,-6.4102,-6.4306,-6.4404,-6.4577,-6.4708,-6.4763,-6.4853,-6.4977,-6.5046,-6.508,-6.508,-6.5163,-6.5196,-6.5196,0.0,0.0,0.0,0.0,0.0,-2.4778,-2.5578,-2.6182,-2.6832,-2.7631,-2.8282,-2.8653,-2.8653,-2.8653,-2.8653,-2.8653,0.0,0.0,0.0,0.0,0.0,0.0,0.0,0.0,0.0,0.0,0.0,0.0,0.0,0.0,0.0,0.0,0.0,0.0,0.0,0.0,0.0,0.0,0.0,0.0,0.0,0.0,0.0,0.0,0.0,0.0,0.0,0.0,0.0,0.0,0.0,0.0,0.0,0.0,0.0,0.0,-4.4048,-4.4892,-4.6746,-4.7058,-4.6948,-4.7186,-4.5406,-4.3132,0.0,0.0,-3.6119,-3.3899,-3.2173,-3.0962,-3.0723,-3.087,-3.1568,-3.3183,0.0,-3.8118,-4.0628,-4.3741,-4.652,0.0,0.0,-5.298,-5.434,-5.6269,-5.7889,-5.9005,-5.9589,-6.0012,-6.0233,-6.0933,-6.1796,-6.2801,-6.2867,-6.2904,-6.3002,-6.3075,-6.3284,-6.3602,-6.3669,-6.3848,-6.4164,-6.4284,-6.4385,-6.4501,-6.4615,-6.4781,-6.4924,-6.4977,-6.5063,-6.5196,-6.5213,-6.5229,-6.5229,-6.5261,-6.5261,-6.5261,0.0,0.0,0.0,0.0,0.0,0.0,0.0,-2.5708,-2.6005,-2.6814,-2.6925,-2.6925,-2.6925,-2.6925,-2.6925,-2.6925,0.0,0.0,0.0,0.0,0.0,0.0,0.0,0.0,0.0,0.0,0.0,0.0,0.0,0.0,0.0,0.0,0.0,0.0,0.0,0.0,0.0,0.0,0.0,0.0,0.0,0.0,0.0,0.0,0.0,0.0,0.0,0.0,0.0,0.0,0.0,0.0,0.0,0.0,0.0,0.0,-4.1132,-4.1664,-4.4067,-4.4158,-4.3736,-4.4544,-4.2911,-4.0912,0.0,0.0,-3.4582,-3.2949,-3.1329,-2.9971,-2.917,-2.9684,-3.0742,-3.2344,-3.4751,0.0,-3.9672,-4.2323,-4.4947,0.0,0.0,-5.1621,-5.4163,-5.6692,-5.8159,-5.8126,-5.8671,-5.9337,-6.0073,-5.986,-6.0426,-6.1976,-6.2669,-6.3002,-6.3002,-6.3265,-6.347,-6.3602,-6.3808,-6.4042,-6.4304,-6.4365,-6.4521,-6.4706,-6.4835,-6.4941,-6.5008,-6.5147,-6.5215,-6.5215,-6.5277,-6.5309,-6.5309,-6.5364,-6.5394,-6.5394,0.0,0.0,0.0,0.0,0.0,0.0,0.0,-2.5355,-2.5801,-2.6061,-2.6553,-2.6907,-2.6907,-2.6907,-2.6907,-2.6907,0.0,0.0,0.0,0.0,0.0,0.0,0.0,0.0,0.0,0.0,0.0,-2.9396,-2.9355,-2.9323,0.0,0.0,0.0,0.0,0.0,0.0,0.0,0.0,0.0,0.0,0.0,0.0,0.0,0.0,0.0,0.0,0.0,0.0,0.0,0.0,0.0,0.0,0.0,0.0,0.0,0.0,0.0,0.0,-4.091,-4.0836,-4.0414,-4.1222,-4.001,-3.8267,-3.6857,-3.5316,-3.3555,-3.139,-3.0558,-2.9941,-2.9152,-2.9647,-3.0558,-3.1604,-3.3839,0.0,0.0,0.0,0.0,-4.6552,-4.9486,-5.2274,0.0,-5.6275,-5.7323,-5.7866,-5.8554,-5.9033,-5.9272,-5.9544,-6.0452,-6.2073,-6.2253,-6.2617,-6.3265,-6.3447,-6.3673,-6.3934,-6.4102,-6.4307,-6.4577,-6.4689,-6.4798,-6.4903,-6.5044,-6.5147,-6.521,-6.5261,-6.5309,-6.5337,-6.5368,-6.5368,-6.5383,-6.5379,-6.5394,-6.5394,0.0,0.0,0.0,0.0,0.0,0.0,0.0,-2.4927,-2.5243,-2.5243,-2.5689,-2.5977,-2.5977,-2.5977,-2.5977,-2.5977,0.0,0.0,0.0,0.0,0.0,0.0,0.0,0.0,0.0,0.0,-2.9386,-2.9365,-2.9323,-2.9262,-2.9218,-2.9119,0.0,0.0,0.0,0.0,0.0,0.0,0.0,0.0,0.0,0.0,-2.9005,0.0,0.0,0.0,0.0,0.0,0.0,0.0,0.0,0.0,0.0,0.0,0.0,0.0,0.0,0.0,0.0,-3.7936,-3.7514,-3.8322,-3.7312,0.0,0.0,-3.3225,-3.2027,-3.0503,-2.9971,-2.9592,-2.9097,-2.9647,-3.0467,-3.1268,-3.3426,-3.5881,0.0,0.0,0.0,-4.7323,-4.9982,0.0,-5.4522,-5.5865,-5.678,-5.7246,-5.8287,-5.8879,-5.8838,-5.9139,-5.9947,-6.13,-6.1836,-6.2369,-6.3025,-6.3453,-6.3845,-6.4183,-6.4304,-6.4501,-6.478,-6.4906,-6.4993,-6.5095,-6.5196,-6.5261,0.0,-6.534,-6.5368,-6.5394,-6.5394,-6.5394,-6.5394,-6.5394,-6.5394,-6.5394,0.0,0.0,0.0,0.0,0.0,0.0,0.0,0.0,-2.45,-2.45,-2.45,-2.45,-2.45,-2.45,-2.45,-2.45,0.0,0.0,0.0,0.0,0.0,0.0,0.0,0.0,0.0,-2.8858,-2.9272,-2.9209,-2.9254,-2.9218,-2.9096,-2.901,-2.897,0.0,0.0,0.0,0.0,0.0,0.0,0.0,0.0,0.0,0.0,0.0,0.0,0.0,0.0,0.0,0.0,0.0,0.0,0.0,0.0,0.0,0.0,0.0,0.0,0.0,0.0,0.0,0.0,0.0,0.0,0.0,0.0,0.0,0.0,-3.0136,-2.9574,-2.9097,-2.9097,-2.9739,-3.0577,-3.1433,-3.355,-3.5958,0.0,-4.1027,0.0,0.0,-5.0731,-5.2011,-5.3626,-5.5453,-5.6499,-5.6364,-5.7909,-5.8818,-5.8677,-5.8677,-5.9051,-5.9794,-6.1285,-6.2153,-6.2413,-6.3367,-6.3995,-6.4304,-6.4385,-6.4596,-6.4925,-6.4974,-6.5076,-6.5196,-6.5277,-6.5309,-6.5324,-6.5364,-6.5394,-6.5394,-6.5394,-6.5394,-6.5394,-6.5394,-6.5394,-6.5394,0.0,0.0,0.0,0.0,0.0,0.0,0.0,0.0,0.0,0.0,-2.45,-2.45,-2.45,-2.45,-2.45,0.0,0.0,0.0,0.0,0.0,0.0,0.0,0.0,0.0,0.0,-2.7934,-2.833,-2.831,-2.8883,-2.9089,-2.9028,-2.8952,-2.8893,-2.8822,-2.8822,0.0,0.0,0.0,0.0,0.0,0.0,0.0,0.0,0.0,0.0,0.0,-2.9005,-2.9005,0.0,0.0,0.0,0.0,0.0,0.0,0.0,0.0,-2.9427,0.0,0.0,0.0,-3.2302,-3.2485,-3.226,0.0,0.0,0.0,0.0,0.0,0.0,-2.9922,-2.9922,-3.0577,-3.1568,-3.2999,-3.4798,-3.6835,-3.9276,-4.2848,0.0,-4.9379,-5.0581,-5.1804,-5.3413,-5.5081,-5.6043,-5.6023,-5.7624,-5.8574,-5.8553,-5.8635,-5.8812,-5.9138,-6.0083,-6.1217,-6.2526,-6.3645,-6.4244,-6.4385,-6.4558,-6.4761,-6.4974,-6.5095,-6.5196,-6.5277,-6.5352,-6.5383,-6.5383,-6.5379,-6.5394,-6.5394,-6.5394,-6.5394,-6.5394,-6.5394,-6.5394,-6.5394,0.0,0.0,0.0,0.0,0.0,0.0,0.0,0.0,0.0,0.0,0.0,0.0,0.0,0.0,0.0,0.0,0.0,0.0,0.0,0.0,0.0,0.0,0.0,0.0,0.0,-2.7422,-2.7974,-2.7959,-2.8684,-2.901,-2.894,-2.8839,-2.8597,-2.8197,-2.8239,0.0,0.0,0.0,0.0,0.0,-2.9005,0.0,0.0,0.0,0.0,0.0,-2.9005,-2.9005,0.0,-2.9005,-2.9005,-2.9005,0.0,0.0,0.0,0.0,-2.9005,-2.9097,-2.9537,-3.0246,-3.0852,-3.0852,-3.0852,-3.0742,0.0,0.0,0.0,0.0,0.0,-3.0852,-3.1237,-3.1953,-3.3036,-3.4669,-3.6321,-3.8505,0.0,0.0,-4.7868,-4.9963,-5.1,-5.2055,-5.3289,-5.4917,-5.5897,-5.5897,-5.75,-5.8511,-5.8511,-5.8696,-5.8838,-5.8898,-5.9842,-6.095,-6.2222,-6.3209,-6.397,-6.4539,-6.4707,-6.4887,-6.5095,-6.5213,-6.5293,-6.5352,-6.5379,-6.5394,-6.5394,-6.5394,-6.5394,-6.5394,-6.5394,-6.5394,-6.5394,-6.5394,-6.5394,-6.5394,0.0,0.0,0.0,0.0,0.0,0.0,0.0,0.0,0.0,0.0,0.0,0.0,0.0,0.0,0.0,0.0,0.0,0.0,0.0,0.0,0.0,0.0,0.0,0.0,-2.5421,-2.6856,-2.7656,-2.7716,-2.8459,-2.883,-2.8893,-2.8628,-2.8076,-2.7313,0.0,0.0,0.0,0.0,0.0,0.0,-2.9005,0.0,0.0,0.0,0.0,0.0,0.0,0.0,0.0,-2.9005,-2.9005,-2.9005,-2.9005,0.0,0.0,0.0,0.0,0.0,-2.9005,-2.9592,-3.021,-3.021,-3.021,-3.0228,0.0,0.0,0.0,0.0,0.0,0.0,0.0,-3.3733,0.0,-3.6413,-3.8212,0.0,-4.4691,-4.7021,-4.8967,-5.0765,-5.1636,-5.2451,-5.3389,-5.4907,-5.591,-5.604,-5.7553,-5.8468,-5.8468,-5.8737,-5.8899,-5.894,-5.9889,-6.0811,-6.1676,-6.2597,-6.3578,-6.4554,-6.4795,-6.5029,-6.5213,-6.5277,-6.5337,-6.5394,-6.5394,-6.5394,-6.5394,-6.5394,-6.5394,-6.5394,-6.5394,-6.5394,-6.5394,-6.5394,-6.5394,-6.5394,0.0,0.0,0.0,0.0,0.0,0.0,0.0,0.0,0.0,0.0,0.0,0.0,0.0,0.0,0.0,0.0,0.0,0.0,0.0,0.0,0.0,0.0,0.0,-2.465,-2.4588,-2.5439,-2.6212,-2.6888,-2.757,-2.8212,-2.8791,-2.8039,-2.7217,-2.6433,0.0,0.0,0.0,0.0,0.0,0.0,0.0,0.0,0.0,0.0,0.0,0.0,0.0,0.0,0.0,-2.9005,-2.9005,-2.9005,-2.9005,0.0,0.0,0.0,0.0,0.0,-2.9005,-2.9592,-3.021,-3.021,-3.021,-3.0375,0.0,0.0,0.0,0.0,0.0,0.0,0.0,-3.5899,-3.7235,0.0,0.0,-4.392,-4.7278,-4.8086,-4.9169,-5.1536,-5.1924,-5.2606,-5.409,-5.5085,-5.5934,-5.661,-5.7752,-5.8415,-5.8415,-5.8714,-5.898,-5.9157,-5.9384,-6.002,-6.112,-6.265,-6.3553,-6.3773,-6.4598,-6.5076,-6.5293,-6.5293,-6.5337,-6.5394,-6.5394,-6.5394,-6.5394,-6.5394,-6.5394,-6.5394,-6.5394,-6.5394,-6.5394,-6.5394,-6.5394,-6.5394,0.0,0.0,0.0,0.0,0.0,0.0,0.0,0.0,0.0,0.0,0.0,0.0,0.0,0.0,0.0,0.0,0.0,0.0,0.0,0.0,0.0,0.0,-2.4447,-2.4402,-2.4348,-2.5096,-2.5877,-2.6644,-2.7313,-2.8049,-2.8779,-2.744,-2.6571,-2.6222,0.0,0.0,0.0,0.0,0.0,0.0,0.0,0.0,0.0,0.0,0.0,0.0,0.0,0.0,0.0,0.0,-2.9005,-2.9005,-2.9005,0.0,0.0,0.0,0.0,0.0,-2.9537,-2.9922,-3.0503,-3.1825,-3.1825,-3.1715,-3.2504,0.0,0.0,0.0,0.0,0.0,0.0,0.0,-3.9347,-4.102,0.0,-4.6617,-4.8104,-4.9462,-5.071,-5.1848,-5.2766,-5.3592,-5.4326,-5.5519,-5.6422,-5.6875,-5.7844,-5.8459,-5.8548,-5.8801,-5.9041,-5.9253,-5.9383,-5.9768,-6.0387,-6.1669,-6.2781,-6.3706,-6.4218,-6.4753,-6.5309,-6.5337,-6.5383,-6.5394,-6.5394,-6.5394,-6.5394,-6.5394,-6.5394,-6.5394,-6.5394,-6.5394,-6.5394,-6.5394,-6.5394,-6.5394,0.0,0.0,0.0,0.0,0.0,0.0,0.0,0.0,0.0,0.0,0.0,0.0,0.0,0.0,0.0,0.0,0.0,0.0,0.0,0.0,-2.4456,-2.4403,-2.4358,-2.433,-2.4275,-2.4874,-2.5653,-2.6602,-2.709,-2.7643,-2.8172,-2.6631,-2.5914,-2.5932,0.0,0.0,0.0,-2.8611,0.0,0.0,0.0,0.0,0.0,0.0,0.0,0.0,0.0,0.0,0.0,0.0,0.0,0.0,0.0,0.0,0.0,-2.9005,-2.9005,-2.9189,-2.9989,-3.0485,-3.1256,-3.3293,0.0,-3.3426,-3.4431,-3.544,0.0,0.0,0.0,0.0,0.0,-4.0891,0.0,-4.4232,-4.6691,-4.8508,-4.9077,-5.0802,-5.2123,-5.2509,-5.3647,-5.4546,-5.4932,-5.6088,-5.694,-5.7276,-5.7976,-5.8502,-5.8696,-5.8924,-5.9139,-5.9346,-5.9544,-5.9753,-5.9918,-6.0694,-6.192,-6.3574,-6.3854,-6.4451,-6.534,-6.5383,-6.5394,-6.5394,-6.5394,-6.5394,-6.5394,-6.5394,-6.5394,-6.5394,-6.5394,-6.5394,-6.5394,-6.5394,-6.5394,-6.5394,0.0,0.0,0.0,0.0,0.0,0.0,0.0,0.0,0.0,0.0,0.0,0.0,0.0,0.0,0.0,0.0,0.0,0.0,0.0,0.0,-2.4403,-2.4403,-2.4275,-2.421,-2.421,-2.4256,-2.5037,-2.6602,-2.6585,-2.6545,-2.6463,-2.5513,-2.5099,-2.5128,0.0,0.0,-2.7672,-2.8611,-2.9005,0.0,0.0,0.0,0.0,0.0,0.0,0.0,0.0,0.0,0.0,0.0,0.0,0.0,0.0,0.0,-2.9005,-2.9005,-2.9005,-2.9189,-2.9989,-3.128,-3.2638,-3.3568,-3.4307,0.0,-3.6868,-3.8429,0.0,-4.0655,0.0,0.0,0.0,-4.3846,-4.5131,-4.7572,-4.8159,-4.9095,-5.1408,-5.1885,-5.2546,-5.4051,-5.4326,-5.4987,-5.6492,-5.673,-5.7161,-5.805,-5.829,-5.8502,-5.8696,-5.9002,-5.929,-5.9475,-5.9736,-5.9918,-5.9979,-6.0228,-6.1213,-6.2872,-6.365,-6.4497,-6.5379,-6.5394,-6.5394,-6.5394,-6.5394,-6.5394,-6.5394,-6.5394,-6.5394,-6.5394,-6.5394,-6.5394,-6.5394,-6.5394,-6.5394,-6.5394,0.0,0.0,0.0,0.0,0.0,0.0,0.0,0.0,0.0,0.0,0.0,0.0,0.0,0.0,0.0,0.0,0.0,0.0,0.0,0.0,-2.4358,-2.4275,-2.422,-2.421,-2.42,-2.42,-2.4742,-2.5852,-2.6284,-2.618,-2.5561,-2.5772,0.0,0.0,0.0,0.0,-2.8431,-2.8824,-2.9005,-2.9005,-2.9005,0.0,0.0,0.0,0.0,0.0,0.0,0.0,0.0,0.0,-2.9005,-2.9005,0.0,0.0,-2.9005,0.0,-2.9354,-2.9922,-3.0723,-3.2118,-3.3788,-3.5624,-3.7459,0.0,0.0,-4.023,-4.1754,-4.3075,-4.3572,0.0,0.0,0.0,-4.7407,-4.882,-4.9921,-5.1096,-5.2546,-5.317,-5.3904,-5.5005,-5.5592,-5.6143,-5.6748,-5.733,-5.7843,-5.829,-5.8483,-5.8656,-5.8884,-5.912,-5.9346,-5.9545,-5.9786,-5.995,-6.0072,-6.0216,-6.088,-6.2065,-6.2924,-6.3798,-6.4668,-6.5165,-6.5394,-6.5394,-6.5394,-6.5394,-6.5394,-6.5394,-6.5394,-6.5394,-6.5394,-6.5394,-6.5394,-6.5394,-6.5394,-6.5394,0.0,0.0,0.0,0.0,0.0,0.0,0.0,0.0,0.0,0.0,0.0,0.0,0.0,0.0,0.0,0.0,0.0,0.0,0.0,-2.4358,-2.4312,-2.4201,-2.421,-2.42,-2.419,-2.419,-2.4585,-2.5393,-2.5881,-2.5928,-2.555,0.0,0.0,0.0,0.0,0.0,-2.8887,-2.8964,-2.9005,-2.9005,-2.9005,-2.9005,0.0,0.0,0.0,0.0,0.0,0.0,0.0,0.0,-2.9005,0.0,0.0,0.0,0.0,0.0,0.0,-3.0485,-3.1788,-3.3348,-3.5183,0.0,0.0,0.0,-4.2121,-4.302,-4.4213,-4.5571,-4.6269,0.0,-4.8067,0.0,0.0,-5.016,-5.1463,-5.2656,-5.3482,-5.4271,-5.5078,-5.5868,-5.6455,-5.6914,-5.7152,-5.7798,-5.826,-5.8393,-5.859,-5.8801,-5.9042,-5.9253,-5.9456,-5.9669,-5.9869,-6.001,-6.0099,-6.026,-6.0619,-6.123,-6.2089,-6.3083,-6.4244,-6.5031,-6.5394,-6.5394,-6.5394,-6.5394,-6.5394,-6.5394,-6.5394,-6.5394,-6.5394,-6.5394,-6.5394,-6.5394,-6.5394,-6.5394,0.0,0.0,0.0,0.0,0.0,0.0,0.0,0.0,0.0,0.0,0.0,0.0,0.0,0.0,0.0,0.0,0.0,0.0,0.0,-2.4275,-2.4201,-2.4201,-2.42,-2.419,-2.419,-2.419,-2.4585,-2.5393,-2.5324,-2.5696,-2.6472,-2.5604,0.0,0.0,0.0,0.0,-2.8917,-2.8964,-2.9005,-2.9005,-2.9005,-2.9005,-2.9005,0.0,0.0,0.0,0.0,0.0,0.0,0.0,0.0,0.0,0.0,0.0,0.0,0.0,-3.021,-3.076,-3.3164,-3.5037,-3.689,0.0,0.0,0.0,-4.6562,-4.7113,-4.7333,-4.8159,-4.9646,-5.0802,-5.082,-5.082,0.0,-5.1885,-5.2692,-5.35,-5.4308,-5.5097,-5.5904,-5.673,-5.6822,-5.7134,-5.7923,-5.8111,-5.8264,-5.8393,-5.859,-5.8842,-5.9177,-5.9383,-5.9601,-5.9793,-5.9998,-6.0099,-6.0099,-6.0299,-6.0403,-6.0422,-6.1211,-6.251,-6.4206,-6.5012,-6.5394,-6.5394,-6.5394,-6.5394,-6.5394,-6.5394,-6.5394,-6.5394,-6.5394,-6.5394,-6.5394,-6.5394,-6.5394,-6.5394,0.0,0.0,0.0,0.0,0.0,0.0,0.0,0.0,0.0,0.0,0.0,0.0,0.0,0.0,0.0,0.0,0.0,0.0,0.0,-2.422,-2.421,-2.419,-2.4199,-2.419,-2.419,-2.419,-2.4318,-2.4566,-2.4547,-2.4912,0.0,0.0,0.0,-2.7705,0.0,0.0,-2.8964,-2.8994,-2.9005,-2.9005,-2.9005,-2.9005,-2.9005,0.0,0.0,0.0,0.0,0.0,0.0,0.0,0.0,0.0,0.0,0.0,0.0,-2.9971,-3.0999,-3.2289,-3.4142,-3.627,0.0,-4.0983,0.0,0.0,0.0,-4.7938,0.0,0.0,-5.0453,-5.0967,-5.1536,-5.1628,0.0,-5.3463,-5.3885,-5.4528,-5.5904,-5.629,-5.6748,-5.7556,-5.7648,-5.7762,-5.8092,-5.8264,-5.8415,-5.859,-5.8801,-5.9023,-5.9253,-5.9474,-5.965,-5.9855,-6.001,-6.0152,-6.0231,-6.0347,-6.0403,-6.0422,-6.1211,-6.2185,-6.3312,-6.4172,-6.4859,-6.5394,-6.5394,-6.5394,-6.5394,-6.5394,-6.5394,-6.5394,-6.5394,-6.5394,-6.5394,-6.5394,-6.5394,-6.5394,0.0,0.0,0.0,0.0,0.0,0.0,0.0,0.0,0.0,0.0,0.0,0.0,0.0,0.0,0.0,0.0,0.0,0.0,0.0,0.0,-2.42,-2.419,-2.419,-2.4355,-2.4677,-2.4677,-2.4832,-2.5144,0.0,0.0,0.0,0.0,-2.7471,-2.8237,0.0,-2.9005,-2.9005,-2.9005,-2.9005,-2.9005,-2.9005,-2.9005,-2.9005,0.0,0.0,0.0,0.0,0.0,0.0,0.0,0.0,0.0,0.0,0.0,0.0,-3.0356,-3.1586,-3.3096,-3.5371,-3.779,0.0,-4.3057,-4.5296,-4.7462,-4.9738,0.0,0.0,0.0,-5.2472,-5.2858,-5.3335,-5.3427,-5.3739,-5.4711,-5.5133,-5.5702,-5.6675,-5.7079,-5.7464,-5.7941,-5.7997,-5.8042,-5.8197,-5.8353,-5.8526,-5.8696,-5.8964,-5.9196,-5.9383,-5.9563,-5.9753,-5.9934,-6.0041,-6.0167,-6.0313,-6.038,-6.0403,-6.0422,-6.0886,-6.1573,-6.2433,-6.3637,-6.4458,-6.4936,-6.5261,-6.5394,-6.5394,-6.5394,-6.5394,-6.5394,-6.5394,-6.5394,-6.5394,-6.5394,-6.5394,-6.5394,0.0,0.0,0.0,0.0,0.0,0.0,0.0,0.0,0.0,0.0,-2.45,0.0,0.0,0.0,0.0,0.0,0.0,0.0,0.0,0.0,-2.441,-2.441,-2.441,-2.4768,-2.5485,-2.5503,-2.587,-2.6602,0.0,0.0,0.0,0.0,-2.8227,-2.9005,0.0,-2.9005,-2.9005,-2.9005,-2.9005,-2.9005,-2.9005,-2.9005,-2.9005,-2.9005,0.0,0.0,0.0,0.0,0.0,0.0,0.0,0.0,0.0,-2.9005,-2.9317,-3.0925,-3.2027,-3.3426,-3.6721,-3.9368,-4.1976,-4.5204,-4.7388,0.0,-5.2619,-5.3405,-5.372,-5.4363,0.0,-5.5614,-5.5614,-5.5614,-5.5611,-5.5684,-5.6326,-5.684,-5.6914,-5.7538,-5.7997,-5.7997,-5.802,-5.8065,-5.8197,-5.84,-5.8574,-5.8719,-5.9081,-5.9364,-5.9493,-5.9705,-5.9855,-5.9994,-6.0087,-6.0182,-6.0313,-6.038,-6.0403,-6.0403,-6.0403,-6.0771,-6.1554,-6.3293,-6.4167,-6.4359,-6.507,-6.5394,-6.5394,-6.5394,-6.5394,-6.5394,-6.5394,-6.5394,-6.5394,-6.5394,-6.5394,-6.5394,0.0,0.0,0.0,0.0,0.0,0.0,0.0,0.0,0.0,0.0,0.0,0.0,0.0,0.0,0.0,0.0,0.0,0.0,0.0,0.0,-2.608,-2.608,-2.608,-2.6172,-2.6337,-2.6337,-2.6429,0.0,0.0,0.0,0.0,0.0,0.0,-2.9005,0.0,-2.9005,-2.9005,-2.9005,-2.9005,-2.9005,-2.9005,-2.9005,-2.9005,-2.9005,-2.9005,0.0,0.0,0.0,0.0,0.0,0.0,0.0,-2.9005,-2.9005,-2.9317,-3.0925,-3.2412,-3.4266,-3.7551,-4.0194,0.0,-4.603,-4.9516,-5.2509,-5.3849,-5.5133,-5.5904,-5.5427,-5.5464,-5.5614,-5.5614,-5.5614,-5.5794,-5.6436,-5.6693,-5.7024,-5.7648,-5.7886,-5.7997,-5.7997,-5.8088,-5.8197,-5.8349,-5.8548,-5.8721,-5.8924,-5.9159,-5.9383,-5.9563,-5.977,-5.9934,-6.0068,-6.0182,-6.0308,-6.0394,-6.0389,-6.0403,-6.0403,-6.0403,-6.0499,-6.0714,-6.2414,-6.3904,-6.5146,-6.5318,-6.5394,-6.5394,-6.5394,-6.5394,-6.5394,-6.5394,-6.5394,-6.5394,-6.5394,-6.5394,-6.5394,0.0,0.0,0.0,0.0,0.0,0.0,0.0,0.0,0.0,0.0,0.0,0.0,0.0,0.0,0.0,0.0,0.0,0.0,0.0,0.0,0.0,0.0,-2.6979,-2.7163,-2.7163,-2.7163,0.0,0.0,0.0,0.0,0.0,0.0,0.0,-2.9005,0.0,-2.9005,-2.9005,-2.9005,-2.9005,-2.9005,-2.9005,-2.9005,-2.9005,-2.9005,-2.9005,-2.9005,-2.9005,0.0,0.0,0.0,0.0,0.0,0.0,0.0,-2.9317,-3.0925,-3.254,0.0,0.0,0.0,0.0,-4.7884,0.0,-5.3995,-5.4785,-5.5923,-5.6804,-5.6748,-5.6748,-5.6748,-5.6748,-5.6748,-5.6877,-5.7317,-5.7373,-5.7519,-5.7941,-5.7997,-5.7997,-5.7997,-5.8129,-5.8242,-5.8393,-5.8651,-5.8881,-5.9081,-5.9309,-5.9526,-5.9736,-5.9885,-6.0029,-6.0182,-6.0264,-6.0323,-6.0403,-6.0403,-6.0403,-6.0403,-6.0403,-6.0599,-6.1019,-6.2319,-6.3599,-6.484,-6.5222,-6.5394,-6.5394,-6.5394,-6.5394,-6.5394,-6.5394,-6.5394,-6.5394,-6.5394,-6.5394,-6.5394,0.0,0.0,0.0,0.0,0.0,0.0,0.0,0.0,0.0,0.0,0.0,0.0,0.0,0.0,0.0,0.0,0.0,0.0,0.0,0.0,0.0,0.0,-2.7658,-2.8007,-2.8007,0.0,0.0,0.0,0.0,0.0,0.0,0.0,0.0,-2.9005,0.0,-2.9005,-2.9005,-2.9005,-2.9005,-2.9005,-2.9005,-2.9005,-2.9023,-2.9152,-2.9115,-2.9023,-2.9152,-2.9115,-2.9005,-2.9005,0.0,0.0,0.0,0.0,-2.9317,-3.0925,-3.243,0.0,0.0,0.0,-4.4984,-4.9462,-5.2417,0.0,-5.5372,-5.6216,-5.7042,-5.7831,-5.7997,-5.7997,-5.7997,-5.7997,-5.7997,-5.7997,-5.7997,-5.7997,-5.7997,-5.7997,-5.7997,-5.7997,-5.8152,-5.8264,-5.8393,-5.8696,-5.9,-5.9196,-5.9456,-5.9702,-5.9885,-5.9963,-6.0106,-6.0279,-6.0308,-6.0337,-6.0403,-6.0403,-6.0403,-6.0403,-6.0403,-6.0752,-6.1421,-6.228,-6.3236,-6.4244,-6.4898,-6.5261,-6.5394,-6.5394,-6.5394,-6.5394,-6.5394,-6.5394,-6.5394,-6.5394,-6.5394,-6.5394,0.0,0.0,0.0,0.0,0.0,0.0,0.0,0.0,0.0,0.0,0.0,0.0,0.0,0.0,0.0,0.0,0.0,0.0,0.0,0.0,0.0,0.0,-2.8785,-2.884,-2.884,-2.884,0.0,0.0,0.0,0.0,0.0,0.0,0.0,-2.9005,0.0,0.0,-2.9005,-2.9005,-2.9005,-2.9005,-2.9005,-2.9005,-2.9078,-2.9757,-2.961,-2.9097,-2.9787,-2.9592,-2.9005,-2.9005,-2.9005,0.0,0.0,0.0,-2.9317,-3.0925,-3.2045,0.0,0.0,0.0,-4.625,0.0,-5.1573,-5.3757,0.0,0.0,-5.7042,0.0,-5.7997,-5.7997,-5.7997,-5.7997,-5.7997,-5.7997,-5.7997,-5.7997,-5.7997,-5.7997,-5.7997,-5.7997,-5.8219,-5.8371,-5.8393,-5.876,-5.9061,-5.9196,-5.9456,-5.9702,-5.9885,-6.001,-6.0152,-6.0298,-6.0366,-6.0389,-6.0403,-6.0403,-6.0403,-6.0403,-6.0403,-6.046,-6.058,-6.1402,-6.2662,-6.4206,-6.432,-6.4764,-6.5394,-6.5394,-6.5394,-6.5394,-6.5394,-6.5394,-6.5394,-6.5394,-6.5394,-6.5394,0.0,0.0,0.0,0.0,0.0,0.0,0.0,0.0,0.0,0.0,0.0,0.0,0.0,0.0,0.0,0.0,0.0,0.0,0.0,0.0,0.0,-2.9005,-2.9005,-2.9005,-2.9005,0.0,0.0,0.0,0.0,0.0,0.0,-2.9005,-2.9005,0.0,0.0,0.0,0.0,0.0,-2.9005,-2.9042,-2.9482,-2.9666,-2.9769,-3.0577,-3.065,-3.0393,-3.0742,-3.065,-3.0283,-2.9824,-2.9666,-2.9592,-2.9133,0.0,0.0,0.0,0.0,0.0,-3.7713,-4.1956,-4.5718,0.0,-5.038,-5.2839,-5.3995,-5.5592,-5.6914,-5.7262,-5.7685,-5.7997,-5.7997,-5.7997,-5.7997,-5.7997,-5.7997,-5.7997,-5.7997,-5.7997,-5.7997,-5.7997,-5.8242,-5.8415,-5.8443,-5.8782,-5.9101,-5.9347,-5.951,-5.9717,-5.9994,-6.0072,-6.0178,-6.0352,-6.0375,-6.0403,-6.0403,-6.0403,-6.0403,-6.0403,-6.0403,-6.0403,-6.0422,-6.0771,-6.1593,-6.2796,-6.3785,-6.4416,-6.4764,-6.5203,-6.5394,-6.5394,-6.5394,-6.5394,-6.5394,-6.5394,-6.5394,-6.5394,0.0,0.0,0.0,0.0,0.0,0.0,0.0,0.0,0.0,0.0,0.0,0.0,0.0,0.0,0.0,0.0,0.0,0.0,0.0,0.0,0.0,-2.9005,-2.9005,-2.9005,-2.9005,0.0,0.0,0.0,0.0,0.0,-2.9005,-2.9005,-2.9005,0.0,-2.9005,0.0,0.0,0.0,0.0,0.0,0.0,0.0,0.0,0.0,0.0,-3.2039,-3.2247,-3.2045,-3.1604,-3.1017,-3.054,-3.0099,-2.9482,-2.9152,0.0,0.0,0.0,0.0,0.0,0.0,-4.3975,-4.5993,-4.8655,-5.1132,0.0,0.0,-5.6069,-5.6675,-5.7281,-5.7758,-5.796,-5.7997,-5.7997,-5.7997,-5.7997,-5.7997,-5.7997,-5.7997,-5.7997,-5.7997,-5.8242,-5.8437,-5.8489,-5.8805,-5.9139,-5.9475,-5.9563,-5.9751,-6.0068,-6.0099,-6.0193,-6.0389,-6.0403,-6.0403,-6.0403,-6.0403,-6.0403,-6.0403,-6.0403,-6.0403,-6.0403,-6.0403,-6.0733,-6.1382,-6.2892,-6.3656,-6.3923,-6.4764,-6.5089,-6.5127,-6.5318,-6.5394,-6.5394,-6.5394,-6.5394,-6.5394,0.0,0.0,0.0,0.0,0.0,0.0,0.0,0.0,0.0,0.0,0.0,0.0,0.0,0.0,0.0,-2.9005,0.0,0.0,0.0,0.0,0.0,-2.9005,-2.9005,0.0,-2.9005,0.0,0.0,0.0,0.0,0.0,-2.9005,-2.9005,-2.9005,-2.9005,-2.9005,-2.9005,-2.9005,0.0,0.0,0.0,0.0,0.0,0.0,0.0,0.0,0.0,0.0,0.0,-3.2528,-3.2491,-3.1445,-3.0191,-3.0155,-2.961,-2.9152,0.0,0.0,0.0,0.0,-3.8267,0.0,-4.4048,-4.6104,-4.8177,0.0,0.0,-5.4051,-5.6345,-5.684,-5.7097,-5.785,-5.7997,-5.7997,-5.7997,-5.7997,-5.7997,-5.7997,-5.7997,-5.7997,-5.7997,-5.8242,-5.8437,-5.8489,-5.8805,-5.9139,-5.9475,-5.9563,-5.9751,-6.0068,-6.0099,-6.0193,-6.0389,-6.0403,-6.0403,-6.0403,-6.0403,-6.0403,-6.0403,-6.0403,-6.0403,-6.0403,-6.0403,-6.0408,-6.0504,-6.1363,-6.2204,-6.3025,-6.3904,-6.4263,-6.4339,-6.5108,-6.5394,-6.5394,-6.5394,-6.5394,-6.5394,0.0,0.0,0.0,0.0,0.0,0.0,0.0,0.0,0.0,0.0,0.0,0.0,0.0,-2.9005,-2.9005,-2.9005,-2.9005,0.0,0.0,0.0,0.0,-2.9005,-2.9005,-2.9005,-2.9005,0.0,0.0,0.0,0.0,-2.9005,-2.9005,-2.9005,-2.9005,-2.9005,-2.9005,-2.9005,-2.9005,-2.9005,0.0,0.0,0.0,0.0,0.0,0.0,0.0,0.0,0.0,0.0,-3.5569,-3.4491,-3.3408,-3.2339,-3.1292,-3.0411,0.0,0.0,0.0,0.0,0.0,0.0,0.0,-4.1075,-4.3608,-4.614,-4.8342,-5.071,-5.2821,-5.4216,-5.5317,-5.6271,-5.7079,-5.7648,-5.7997,-5.7997,-5.7997,-5.7997,-5.7997,-5.7997,-5.802,-5.8129,-5.8305,-5.8502,-5.8737,-5.8982,-5.9253,-5.9545,-5.9702,-5.9883,-6.0084,-6.0182,-6.0275,-6.0389,-6.0403,-6.0403,-6.0403,-6.0403,-6.0403,-6.0403,-6.0403,-6.0403,-6.0403,-6.0403,-6.0403,-6.0422,-6.0695,-6.1306,-6.2128,-6.3006,-6.3694,-6.4244,-6.4516,-6.4955,-6.5394,-6.5394,-6.5394,-6.5394,0.0,0.0,0.0,0.0,0.0,0.0,0.0,0.0,0.0,0.0,0.0,0.0,0.0,0.0,-2.9005,-2.9005,-2.9005,-2.9005,-2.9005,-2.9005,-2.9005,-2.9005,-2.9005,-2.9005,0.0,0.0,0.0,0.0,0.0,0.0,0.0,-2.9005,-2.9005,-2.9005,-2.9005,-2.9005,0.0,0.0,0.0,-3.0742,0.0,0.0,-3.5991,0.0,0.0,0.0,0.0,0.0,0.0,-3.6802,-3.5532,0.0,0.0,0.0,0.0,0.0,0.0,0.0,-3.2632,0.0,0.0,0.0,-4.1111,-4.3663,-4.5792,-4.8416,-5.082,-5.2472,-5.3867,-5.5115,-5.6198,-5.6822,-5.7354,-5.7905,-5.7997,-5.7997,-5.7997,-5.7997,-5.8042,-5.8174,-5.8327,-5.8523,-5.8877,-5.908,-5.9309,-5.9581,-5.9786,-5.9966,-6.0084,-6.0231,-6.0323,-6.0389,-6.0403,-6.0403,-6.0403,-6.0403,-6.0403,-6.0403,-6.0403,-6.0403,-6.0403,-6.0403,-6.0403,-6.0403,-6.0403,-6.0695,-6.1249,-6.2108,-6.2796,-6.335,-6.3637,-6.4095,-6.4611,-6.4879,-6.4993,-6.5031,0.0,0.0,0.0,0.0,0.0,0.0,0.0,0.0,0.0,0.0,0.0,0.0,0.0,0.0,0.0,-2.9005,-2.9005,-2.9005,-2.9005,-2.9005,-2.9005,-2.9005,0.0,0.0,0.0,0.0,0.0,0.0,0.0,0.0,0.0,0.0,-2.9005,-2.9005,-2.9005,-2.9005,-2.906,0.0,-3.0687,-3.158,0.0,-3.5349,-3.7658,0.0,0.0,0.0,-4.148,-4.1205,0.0,-3.935,0.0,0.0,0.0,0.0,0.0,0.0,0.0,0.0,0.0,0.0,0.0,0.0,0.0,0.0,-4.3846,0.0,-4.7938,-5.1187,-5.2527,-5.3592,-5.5188,-5.55,-5.6033,-5.7629,-5.7905,-5.7941,-5.796,-5.796,-5.8024,-5.8197,-5.8327,-5.8545,-5.8859,-5.908,-5.9309,-5.9581,-5.9786,-5.9966,-6.0084,-6.0231,-6.0337,-6.0389,-6.0403,-6.0403,-6.0403,-6.0403,-6.0403,-6.0403,-6.0403,-6.0403,-6.0403,-6.0403,-6.0403,-6.0403,-6.0403,-6.0403,-6.0446,-6.123,-6.1573,-6.1688,-6.2529,-6.2892,-6.3006,-6.3847,-6.4167,-6.4282,0.0,0.0,0.0,0.0,0.0,0.0,0.0,0.0,0.0,0.0,0.0,0.0,0.0,0.0,0.0,-2.9005,-2.9005,-2.9005,-2.9005,-2.9005,-2.9005,-2.9005,-2.9005,-2.9005,0.0,0.0,0.0,0.0,0.0,0.0,0.0,0.0,0.0,0.0,-2.9005,-2.9005,-2.906,-2.9849,0.0,-3.2467,-3.4706,-3.7055,0.0,0.0,0.0,0.0,0.0,-4.37,-4.3462,0.0,-4.023,-3.8319,0.0,0.0,0.0,0.0,0.0,0.0,-3.032,0.0,0.0,0.0,0.0,0.0,-4.0763,-4.3369,-4.5938,-4.803,-4.9591,-5.1077,-5.2692,-5.3463,-5.4197,-5.5225,-5.5868,-5.6455,-5.706,-5.722,-5.7553,-5.8253,-5.8505,-5.8698,-5.8944,-5.9234,-5.9475,-5.9598,-5.9883,-6.0072,-6.0084,-6.027,-6.0375,-6.0403,-6.0403,-6.0403,-6.0403,-6.0403,-6.0403,-6.0403,-6.0403,-6.0403,-6.0403,-6.0403,-6.0403,-6.0403,-6.0403,-6.0403,-6.0422,-6.0637,-6.1077,-6.1631,-6.1879,-6.2338,-6.293,-6.3178,-6.3255,-6.3293,0.0,0.0,0.0,0.0,0.0,0.0,0.0,0.0,0.0,0.0,0.0,0.0,0.0,0.0,0.0,-2.95,-2.95,-2.9354,-2.9023,-2.9005,-2.9005,-2.9005,-2.9005,-2.9005,-2.9005,0.0,0.0,0.0,0.0,0.0,0.0,0.0,0.0,0.0,0.0,0.0,0.0,0.0,0.0,0.0,-3.5661,0.0,0.0,-4.2708,-4.4617,0.0,0.0,0.0,-4.5975,-4.4342,-4.2066,0.0,0.0,0.0,0.0,0.0,0.0,0.0,0.0,0.0,0.0,0.0,0.0,0.0,-3.8447,-4.0873,-4.3351,-4.5627,-4.715,-4.8564,-5.0237,-5.0917,-5.1505,-5.2357,-5.2872,-5.3918,-5.6018,-5.6397,-5.6712,-5.7282,-5.7531,-5.7889,-5.8482,-5.8783,-5.9168,-5.97,-5.9963,-6.0148,-6.0207,-6.0347,-6.0403,-6.0403,-6.0403,-6.0403,-6.0403,-6.0403,-6.0403,-6.0403,-6.0403,-6.0403,-6.0403,-6.0403,-6.0403,-6.0403,-6.0403,-6.0403,-6.0403,-6.0431,-6.0704,-6.1096,-6.1096,-6.1402,-6.1898,-6.2223,-6.2357,-6.2414,0.0,0.0,0.0,0.0,0.0,0.0,0.0,0.0,0.0,0.0,0.0,0.0,0.0,0.0,0.0,0.0,-3.0338,-2.9989,-2.9189,-2.9133,-2.9097,-2.9005,-2.9005,-2.9005,-2.9005,-2.9005,0.0,0.0,0.0,0.0,0.0,0.0,0.0,0.0,0.0,0.0,0.0,0.0,0.0,-3.3151,-3.634,-3.9074,0.0,0.0,-4.5736,-4.8233,-4.77,-4.7957,-4.8324,-4.6617,-4.3479,0.0,0.0,0.0,0.0,0.0,-3.0411,0.0,0.0,0.0,0.0,0.0,0.0,0.0,-3.6556,-3.8355,-4.0375,-4.3424,-4.4763,-4.5901,-4.7519,-4.7979,-4.8366,-4.9141,-4.9418,-5.0874,-5.4703,-5.5429,-5.5628,-5.5771,-5.6071,-5.6664,-5.7679,-5.7955,-5.8521,-5.9528,-5.9836,-6.0097,-6.0389,-6.0403,-6.0403,-6.0403,-6.0403,-6.0403,-6.0403,-6.0403,-6.0403,-6.0403,-6.0403,-6.0403,-6.0403,-6.0403,-6.0403,-6.0403,-6.0403,-6.0403,-6.0417,-6.0485,-6.0472,-6.0403,-6.0417,-6.0417,-6.0512,-6.1239,-6.1473,-6.1588,0.0,0.0,0.0,0.0,0.0,0.0,0.0,0.0,0.0,0.0,0.0,0.0,0.0,0.0,0.0,0.0,0.0,-3.0815,-3.0026,-2.9971,-2.9684,-2.9023,-2.9005,-2.9005,-2.9005,-2.9005,-2.9005,0.0,0.0,0.0,0.0,0.0,0.0,0.0,0.0,0.0,0.0,0.0,0.0,-3.4766,-3.7404,-3.9918,-4.2378,-4.5278,-4.7186,-4.8471,-4.9664,-5.0178,-4.9958,-4.7626,-4.5057,-4.2376,0.0,0.0,0.0,-3.3623,0.0,0.0,0.0,0.0,0.0,0.0,-3.1164,0.0,-3.4119,-3.585,-3.764,-3.9537,-4.1164,-4.2486,-4.3498,-4.477,-4.5747,-4.5912,-4.7018,-4.9067,-5.2478,-5.363,-5.4359,-5.509,-5.5973,-5.665,-5.6983,-5.7197,-5.7477,-5.7864,-5.8703,-5.9564,-6.0351,-6.0403,-6.0403,-6.0403,-6.0403,-6.0403,-6.0403,-6.0403,-6.0403,-6.0403,-6.0403,-6.0403,-6.0403,-6.0403,-6.0403,-6.0403,-6.0458,-6.0485,-6.0485,-6.0552,-6.0539,-6.0485,-6.0539,-6.0565,-6.0584,-6.0737,-6.0755,-6.0753,0.0,0.0,0.0,0.0,0.0,0.0,0.0,0.0,0.0,0.0,0.0,0.0,0.0,0.0,0.0,0.0,0.0,0.0,0.0,0.0,-3.0448,-2.9629,-2.9592,-2.9409,-2.9005,-2.9005,-2.9005,0.0,0.0,0.0,0.0,0.0,0.0,0.0,0.0,0.0,0.0,0.0,-3.377,-3.5844,-3.7881,0.0,-4.3204,-4.603,-4.8103,-4.9719,-5.0949,-5.1389,-5.1022,-4.8545,-4.6361,0.0,-4.1387,-3.9129,-3.7019,0.0,-3.2944,-3.1733,0.0,0.0,0.0,-2.9639,-3.0257,0.0,0.0,-3.3687,-3.5063,-3.6666,-3.77,-3.857,-3.9394,-4.0641,-4.1652,-4.2087,-4.3163,-4.483,-4.7299,-4.9767,-5.1621,-5.2457,-5.3215,-5.4174,-5.5512,-5.5861,-5.6428,-5.746,-5.8478,-5.9258,-5.9739,-6.016,-6.0403,-6.0403,-6.0403,-6.0403,-6.0403,-6.0403,-6.0403,-6.0403,-6.0403,-6.0403,-6.0403,-6.0403,-6.0417,-6.0444,-6.0485,-6.0512,-6.0552,-6.0629,-6.0642,-6.0604,-6.0604,-6.0604,-6.0604,-6.0604,-6.0578,-6.0552,0.0,0.0,0.0,0.0,0.0,0.0,0.0,0.0,0.0,0.0,0.0,0.0,0.0,0.0,0.0,0.0,0.0,0.0,0.0,0.0,-3.1494,-3.0705,-3.0375,-2.9898,-2.9244,-2.9078,-2.9005,-2.9005,0.0,0.0,0.0,0.0,0.0,0.0,0.0,0.0,0.0,0.0,0.0,-3.6909,0.0,-4.113,-4.3993,-4.6416,-4.8764,-5.093,-5.1885,-5.2123,-5.1685,-4.9519,-4.7738,-4.5883,-4.2797,-4.0646,0.0,0.0,0.0,0.0,0.0,0.0,0.0,0.0,0.0,-3.0326,0.0,0.0,0.0,-3.4264,-3.474,-3.5106,-3.5844,-3.6713,-3.7547,-3.8264,-3.9061,-4.012,-4.1633,-4.4758,-4.7527,-4.9292,-4.9933,-5.1174,-5.3578,-5.4375,-5.5413,-5.7096,-5.8094,-5.8765,-5.9076,-5.9778,-6.0217,-6.0403,-6.0403,-6.0403,-6.0403,-6.0403,-6.0403,-6.0403,-6.0403,-6.0403,-6.0403,-6.0403,-6.0431,-6.0499,-6.0512,-6.0565,-6.0629,-6.0685,-6.071,-6.071,-6.0667,-6.0642,-6.0642,-6.0642,-6.0629,-6.0617,-2.9561,-2.9409,0.0,0.0,0.0,0.0,0.0,0.0,0.0,0.0,0.0,0.0,0.0,0.0,0.0,0.0,0.0,0.0,-3.4784,0.0,0.0,-3.2362,-3.095,-3.0173,-3.0081,-2.9354,-2.9005,-2.9005,0.0,0.0,0.0,0.0,0.0,0.0,-3.0173,0.0,0.0,0.0,-3.6233,0.0,-4.0965,-4.2965,0.0,-4.7241,-4.926,-5.1004,-5.2527,-5.2619,-5.185,-5.0922,-4.9543,-4.7795,0.0,-4.2975,-4.0723,-3.8877,0.0,0.0,0.0,0.0,0.0,0.0,-2.9832,-2.9632,-3.0439,0.0,-3.112,-3.2087,0.0,-3.3493,-3.365,0.0,0.0,-3.5019,-3.578,-3.6642,-3.7553,-3.8789,-4.1522,-4.6727,-4.8033,-4.9247,-5.1219,-5.2982,-5.4436,-5.5412,-5.6338,-5.7523,-5.9019,-5.9205,-5.9606,-6.037,-6.0403,-6.0403,-6.0403,-6.0403,-6.0403,-6.0403,-6.0403,-6.0403,-6.0403,-6.0403,-6.0431,-6.0499,-6.0565,-6.0629,-6.0685,-6.0765,-6.0788,-6.0788,-6.0788,-6.0777,-6.0777,-6.0777,-6.0753,-6.0685,-2.964,-2.9431,0.0,0.0,0.0,0.0,0.0,0.0,0.0,0.0,0.0,0.0,0.0,0.0,0.0,0.0,0.0,-3.823,-3.7863,0.0,0.0,-3.4834,-3.323,-3.1931,-3.104,-3.0217,-2.9591,-2.913,-2.913,0.0,0.0,0.0,0.0,0.0,-3.1304,0.0,-3.4787,0.0,-3.8678,0.0,0.0,-4.4699,0.0,-4.8473,-5.0346,-5.2334,-5.3015,-5.3095,-5.2751,-5.1962,-5.0635,-4.8975,0.0,0.0,0.0,-4.0941,0.0,0.0,0.0,0.0,0.0,0.0,-3.1024,-3.0209,-3.0588,-3.0331,-2.9988,-2.9895,0.0,0.0,0.0,0.0,0.0,0.0,-3.1778,-3.2775,-3.4083,-3.4614,-3.6986,-4.2714,-4.425,-4.5949,-4.8808,-5.1167,-5.2863,-5.3741,-5.5103,-5.6645,-5.8307,-5.8861,-5.951,-6.037,-6.0403,-6.0403,-6.0403,-6.0403,-6.0403,-6.0403,-6.0403,-6.0403,-6.0403,-6.0444,-6.0499,-6.0565,-6.0642,-6.0704,-6.0765,-6.0788,-6.08,-6.08,-6.08,-6.08,-6.08,-6.08,-6.0788,-6.0746,-3.0114,0.0,0.0,0.0,0.0,0.0,0.0,0.0,0.0,0.0,0.0,0.0,-3.7988,-3.9074,0.0,0.0,-4.0891,-4.0891,-4.0891,-3.9399,-3.818,-3.7429,-3.5597,-3.3886,-3.2323,-3.127,-3.0327,-2.9533,-2.93,0.0,0.0,0.0,0.0,0.0,0.0,-3.3979,-3.6117,0.0,-4.0883,-4.3045,-4.4522,-4.6924,-4.9658,-5.0115,-5.1549,-5.3341,-5.3341,-5.344,-5.3411,-5.2636,-5.162,-5.0361,-4.8594,-4.6659,-4.4736,0.0,0.0,0.0,-3.8506,-3.6646,-3.4867,-3.4072,-3.2663,-3.1356,-3.0949,-3.0415,-2.9776,-2.8975,-2.8841,0.0,0.0,0.0,0.0,0.0,0.0,-2.9708,0.0,-3.1341,-3.3375,-3.8893,-4.1044,-4.3312,-4.6351,-4.9177,-5.1185,-5.2059,-5.3932,-5.5689,-5.7141,-5.8211,-5.9166,-6.0007,-6.0274,-6.0403,-6.0403,-6.0403,-6.0403,-6.0403,-6.0417,-6.0431,-6.0431,-6.0499,-6.0565,-6.0629,-6.0692,-6.0753,-6.08,-6.08,-6.08,-6.08,-6.08,-6.08,-6.08,-6.08,-6.08,-6.08,-3.1213,-3.0218,0.0,0.0,0.0,0.0,0.0,0.0,0.0,0.0,0.0,0.0,0.0,0.0,0.0,0.0,0.0,-4.3386,-4.3386,-4.1946,-4.0709,-3.9918,-3.7663,-3.5655,-3.4048,-3.2397,-3.1177,-3.0364,-2.9588,0.0,0.0,0.0,0.0,0.0,0.0,-3.4607,-3.7784,-4.0273,-4.225,-4.404,-4.7183,-4.9935,-5.217,-5.2207,-5.2742,-5.3499,-5.3499,-5.3542,-5.3492,-5.2828,-5.2605,-5.2194,-4.9874,-4.8608,-4.7641,-4.5952,-4.3816,-4.1987,-4.1944,-3.9508,-3.6821,-3.6006,-3.4601,-3.2994,-3.1355,-3.1013,-3.0812,-3.0013,-2.9851,-2.962,0.0,0.0,0.0,0.0,0.0,0.0,0.0,0.0,-3.0755,-3.5741,-3.9292,-4.2047,-4.3855,-4.7087,-4.9449,-5.0309,-5.2728,-5.4524,-5.5441,-5.7046,-5.8307,-5.9128,-5.995,-6.0403,-6.0403,-6.0403,-6.0403,-6.0403,-6.0472,-6.0499,-6.0499,-6.0565,-6.0642,-6.0685,-6.0697,-6.0753,-6.08,-6.08,-6.08,-6.08,-6.08,-6.08,-6.08,-6.08,-6.08,-6.08,0.0,0.0,0.0,0.0,0.0,0.0,0.0,-3.2755,-3.4389,-3.6236,-3.8058,-4.001,-4.2112,-4.3752,-4.5021,-4.581,-4.6379,-4.6709,-4.6801,-4.5328,-4.4108,-4.3412,-4.1077,-3.8808,-3.6658,-3.502,-3.3239,-3.1329,-3.0513,0.0,0.0,0.0,0.0,0.0,0.0,-3.5545,0.0,0.0,0.0,0.0,0.0,-5.1806,-5.2605,-5.301,-5.3714,-5.4496,-5.4592,-5.4726,-5.482,-5.4595,-5.3826,-5.2846,-5.2139,-5.1014,-4.9751,-4.8683,-4.7068,-4.5502,-4.496,-4.2747,-4.0413,-3.9618,-3.7755,-3.5702,-3.4036,-3.3248,-3.2496,-3.1105,-3.0391,-2.9772,-2.8931,0.0,0.0,0.0,0.0,0.0,0.0,0.0,-2.9058,-3.1889,-3.5671,-3.8747,-4.0482,-4.3708,-4.6506,-4.8495,-5.1009,-5.332,-5.5288,-5.6434,-5.7676,-5.9057,-5.9396,-5.9816,-6.0403,-6.0444,-6.0472,-6.0472,-6.0539,-6.0565,-6.0565,-6.0642,-6.0692,-6.0697,-6.0753,-6.0788,-6.08,-6.08,-6.08,-6.08,-6.08,-6.08,-6.08,-6.08,-6.08,-6.08,-3.3181,0.0,0.0,0.0,-3.018,-3.102,-3.2622,-3.4155,-3.5993,-3.8401,-4.0285,-4.2297,-4.4698,-4.6635,-4.8071,-4.888,-4.9671,-5.0059,-4.986,-4.8643,-4.733,-4.6045,-4.4262,-4.2009,-3.9268,-3.7628,-3.5584,0.0,0.0,-3.0623,0.0,0.0,0.0,0.0,0.0,-3.6017,-3.9268,-4.2103,-4.5018,0.0,0.0,-5.2955,-5.3271,-5.3721,-5.4429,-5.5193,-5.5305,-5.5656,-5.6077,-5.6077,-5.5206,-5.4134,-5.3937,-5.2976,-5.1779,-5.0988,-4.9838,-4.8707,-4.8182,-4.6187,-4.4053,-4.3255,-4.1176,-3.8926,-3.7252,-3.6023,-3.4838,-3.3467,-3.231,-3.1259,-3.0381,0.0,0.0,0.0,0.0,0.0,0.0,-2.7122,-2.8096,-2.9206,-3.273,-3.5874,-3.7913,-4.1151,-4.4045,-4.6279,-4.9098,-5.1697,-5.3932,-5.5403,-5.6797,-5.8173,-5.8811,-5.9417,-5.9972,-6.0346,-6.0539,-6.0539,-6.0604,-6.0642,-6.0642,-6.0697,-6.0741,-6.0753,-6.0788,-6.08,-6.08,-6.08,-6.08,-6.08,-6.08,-6.08,-6.08,-6.08,-6.08,-6.08,-3.4099,-3.3212,-3.208,-3.0457,-3.1308,-3.2799,-3.4425,-3.5991,-3.7856,-4.0225,-4.2607,-4.4957,-4.7275,-4.9732,-5.1543,-5.2357,-5.3151,-5.3299,-5.2541,-5.1786,-5.0342,-4.7952,-4.7094,-4.5138,-4.185,0.0,0.0,0.0,0.0,0.0,0.0,0.0,0.0,0.0,-3.3484,0.0,-3.9338,-4.2753,-4.5671,-4.8294,-5.1625,-5.3507,-5.4288,-5.4429,-5.4974,-5.5672,-5.5667,-5.6329,-5.7194,-5.7194,-5.674,-5.6065,-5.5287,-5.4553,-5.3831,-5.2952,-5.2188,-5.1593,-5.1555,-4.9726,-4.7612,-4.6805,-4.4761,-4.2544,-4.0912,-3.9294,-3.7871,-3.7037,-3.5561,-3.4134,-3.3221,0.0,0.0,0.0,0.0,0.0,0.0,0.0,-2.78,-2.7857,-3.0647,-3.3578,-3.6118,-3.9374,-4.2049,-4.3815,-4.7073,-4.971,0.0,-5.3913,-5.5651,-5.6505,-5.8233,-5.9172,-5.9191,-6.0137,-6.0604,-6.0604,-6.066,-6.0697,-6.0697,-6.0777,-6.08,-6.08,-6.08,-6.08,-6.08,-6.08,-6.08,-6.08,-6.08,-6.08,-6.08,-6.08,-6.08,-6.08,-3.4339,-3.3303,-3.2924,-3.3704,-3.4025,-3.4479,-3.541,-3.7969,-4.0373,-4.2042,-4.4857,-4.7392,-4.9139,-5.147,-5.3224,-5.4018,-5.4812,-5.5242,-5.5138,-5.4399,-5.3178,-5.1398,-4.9931,-4.7664,-4.4413,-4.211,-3.9454,-3.6402,0.0,0.0,-3.0604,0.0,0.0,0.0,0.0,0.0,-3.9538,-4.2874,-4.6785,-5.0944,-5.3125,-5.4593,-5.5494,-5.5605,-5.6627,-5.787,-5.7132,-5.75,-5.836,-5.836,-5.7878,-5.7249,-5.7039,-5.6946,-5.6753,-5.5874,-5.5065,-5.4329,-5.3716,-5.2166,-5.053,-4.965,-4.8033,-4.6214,-4.4538,-4.332,-4.215,-4.0682,-3.9539,-3.8331,-3.6865,-3.5215,0.0,0.0,0.0,0.0,0.0,0.0,-2.8011,-2.863,-3.0005,-3.1893,-3.44,-3.7099,-3.9909,-4.2889,-4.564,-4.8181,-5.0512,-5.2442,-5.4167,-5.567,-5.7405,-5.863,-5.9262,-6.0201,-6.066,-6.068,-6.0734,-6.0757,-6.0757,-6.08,-6.08,-6.08,-6.08,-6.08,-6.08,-6.08,-6.08,-6.08,-6.08,-6.08,-6.08,-6.08,-6.08,-6.08,-3.5499,-3.4783,-3.4921,-3.6608,-3.7393,-3.7746,-3.7654,-4.0057,-4.2578,-4.4456,-4.7471,-5.0035,-5.1565,-5.3885,-5.5458,-5.5899,-5.6656,-5.7013,-5.6741,-5.6296,-5.5352,-5.3795,-5.2512,-5.0465,-4.7593,-4.5097,0.0,-3.8944,0.0,0.0,-3.1722,0.0,0.0,0.0,0.0,-3.6248,-3.9722,-4.4537,-4.8655,-5.2148,-5.4258,-5.5465,0.0,-5.6527,-5.7646,-5.8853,-5.8289,-5.8699,-5.9496,-5.954,-5.9035,-5.8398,-5.8398,-5.824,-5.7959,-5.7461,-5.6994,-5.6551,-5.6072,-5.4729,-5.331,-5.2812,-5.1165,-4.9401,-4.8461,-4.7329,-4.6099,-4.4774,-4.3525,-4.2162,-4.0482,-3.8493,-3.6284,0.0,0.0,0.0,0.0,0.0,0.0,-3.0131,-3.0919,-3.2127,-3.3863,-3.561,-3.7902,-4.0903,-4.3463,-4.6156,-4.906,-5.0822,-5.2712,-5.4814,-5.6235,-5.7555,-5.882,-5.9718,-6.0368,-6.0734,-6.0788,-6.08,-6.08,-6.08,-6.08,-6.08,-6.08,-6.08,-6.08,-6.08,-6.08,-6.08,-6.08,-6.08,-6.08,-6.08,-6.08,-6.08,-3.7033,-3.6907,-3.7463,-3.9155,-4.0758,-4.1627,-4.103,-4.268,-4.4852,-4.7181,-5.0151,-5.2633,-5.4168,-5.6311,-5.765,-5.768,-5.8349,-5.8442,-5.7736,-5.7698,-5.7051,-5.5603,-5.4652,-5.3086,-5.0785,-4.8074,-4.5156,0.0,0.0,0.0,0.0,0.0,0.0,0.0,0.0,0.0,0.0,-4.6857,-5.0583,-5.247,-5.5003,-5.6156,-5.6436,-5.7361,-5.8378,-5.9303,-5.9316,-5.9781,-6.0431,-6.0499,-6.0048,-5.9479,-5.9479,-5.8999,-5.8448,-5.8448,-5.8359,-5.8282,-5.8282,-5.7112,-5.5873,-5.5873,-5.4065,-5.2303,-5.2303,-5.1057,-4.9644,-4.8779,-4.7355,-4.5748,-4.4066,-4.1585,-3.8726,0.0,0.0,0.0,-3.2462,0.0,0.0,0.0,-3.2712,0.0,-3.4183,-3.4898,-3.6321,-3.8829,-4.1151,-4.394,-4.7292,-4.9135,-5.1235,-5.3793,-5.5002,-5.6441,-5.82,-5.9085,-5.9935,-6.08,-6.08,-6.08,-6.08,-6.08,-6.08,-6.08,-6.08,-6.08,-6.08,-6.08,-6.08,-6.08,-6.08,-6.08,-6.08,-6.08,-6.08,-6.08,-3.7942,-3.8297,-3.9272,-4.0946,-4.2537,-4.4206,-4.6113,-4.7168,-4.8309,-4.9855,-5.2308,-5.4493,-5.5977,-5.7116,-5.8031,-5.8684,-5.887,-5.8889,-5.8758,-5.874,-5.831,-5.7397,-5.5884,-5.4241,-5.2502,-4.8672,-4.5439,0.0,0.0,0.0,0.0,0.0,0.0,0.0,0.0,0.0,-4.4109,-4.8083,-5.0795,-5.2665,-5.5222,-5.6778,-5.7685,-5.85,-5.945,-6.0348,-6.0412,-6.0482,-6.0565,-6.0578,-6.0533,-6.0442,-6.0442,-6.0402,-6.0334,-6.0334,-5.9815,-5.9246,-5.9246,-5.8554,-5.7804,-5.7804,-5.6393,-5.5019,-5.5019,-5.3731,-5.2299,-5.1404,-5.0471,-4.9288,-4.7548,-4.4605,-4.1546,-3.8861,-3.768,-3.6808,-3.5942,-3.525,0.0,0.0,-3.4327,-3.4294,-3.5086,-3.5243,-3.6356,-3.8892,-4.0119,-4.2202,-4.5564,-4.7386,-4.9526,-5.2138,-5.441,-5.6464,-5.8258,-5.9077,-5.9935,-6.08,-6.08,-6.08,-6.08,-6.08,-6.08,-6.08,-6.08,-6.08,-6.08,-6.08,-6.08,-6.08,-6.08,-6.08,-6.08,-6.08,-6.08,-6.08,-4.0046,0.0,0.0,-4.3986,-4.5678,-4.7571,-5.0019,-5.1389,-5.214,-5.2205,-5.4355,-5.6291,-5.732,-5.8184,-5.8803,-5.914,-5.9159,-5.9159,-5.9159,-5.9159,-5.9009,-5.8709,-5.7471,-5.6063,-5.4482,-5.123,-4.8127,-4.5219,-4.1875,0.0,0.0,0.0,0.0,0.0,0.0,-4.1628,0.0,-4.9148,-5.1372,-5.2867,-5.5911,-5.7456,-5.8092,-5.9389,-6.0214,-6.0667,-6.0685,-6.0697,-6.0704,-6.0704,-6.0729,-6.0746,-6.0746,-6.0757,-6.08,-6.08,-6.0492,-6.0165,-6.0165,-5.9569,-5.8915,-5.8915,-5.7973,-5.7049,-5.7049,-5.6415,-5.5472,-5.4145,-5.3549,-5.2356,-4.9336,-4.7086,-4.4855,-4.2316,-4.1546,-4.0816,-3.9519,-3.9,-3.8596,0.0,0.0,0.0,-3.7389,-3.6945,-3.7167,-3.838,-3.9225,-4.1168,-4.4556,-4.6377,-4.8699,-5.1704,-5.3456,-5.5401,-5.7588,-5.8454,-5.93,-6.0127,-6.0569,-6.08,-6.08,-6.08,-6.08,-6.08,-6.08,-6.08,-6.08,-6.08,-6.08,-6.08,-6.08,-6.08,-6.08,-6.08,-6.08,-6.08,-4.2604,-4.3451,-4.4837,-4.6973,-4.8875,-5.0858,-5.3061,-5.4823,-5.5529,-5.4562,-5.6288,-5.7859,-5.8485,-5.9167,-5.9528,-5.9437,-5.9437,-5.9437,-5.9437,-5.9437,-5.9473,-5.9582,-5.8734,-5.7637,-5.625,-5.3603,-5.0784,-4.7767,-4.4235,-4.1017,-3.808,0.0,0.0,0.0,-4.0713,-4.4167,-4.6823,-5.0,-5.2133,-5.3601,-5.669,-5.8093,-5.8464,-6.0029,-6.0648,-6.071,-6.071,-6.0765,-6.08,-6.08,-6.08,-6.08,-6.08,-6.08,-6.08,-6.08,-6.08,-6.08,-6.08,-6.03,-5.9781,-5.9781,-5.9165,-5.8569,-5.8569,-5.8415,-5.7915,-5.653,-5.5953,-5.4511,-5.0644,-4.9375,-4.8202,-4.6009,-4.5355,-4.4643,-4.3308,-4.2835,-4.2277,0.0,0.0,0.0,-3.9854,-3.9004,-3.8524,-3.8714,-3.912,-4.0703,-4.3751,-4.5755,-4.826,-5.1429,-5.2614,-5.4414,-5.6983,-5.7857,-5.8704,-5.9511,-6.0377,-6.08,-6.08,-6.08,-6.08,-6.08,-6.08,-6.08,-6.08,-6.08,-6.08,-6.08,-6.08,-6.08,-6.08,-6.08,-6.08,-6.08,-4.5248,-4.6528,-4.7952,-4.8981,-5.1152,-5.333,-5.5074,-5.6755,-5.766,-5.7209,-5.8023,-5.8941,-5.9661,-5.9796,-5.9853,-5.9853,-5.9836,-5.9836,-5.9836,-5.9836,-5.9853,-5.9853,-5.9038,-5.8148,-5.7292,-5.4053,-5.1476,-4.9638,-4.5558,-4.2614,-4.0805,0.0,0.0,-3.9726,-4.2523,-4.5208,-4.7829,-5.0462,-5.3037,-5.548,-5.7339,-5.8558,-5.9367,-6.0339,-6.0722,-6.08,-6.08,-6.08,-6.08,-6.08,-6.08,-6.08,-6.08,-6.08,-6.08,-6.08,-6.08,-6.08,-6.08,-6.0742,-6.0685,-6.0685,-6.0031,-5.9396,-5.9396,-5.8819,-5.8261,-5.8088,-5.6799,-5.4876,-5.2154,-5.1596,-5.1241,-5.026,-4.8759,-4.7702,-4.7528,-4.6201,-4.4921,-4.4047,0.0,0.0,-4.1643,-4.0777,-4.0585,-4.1377,-4.0715,-4.1076,-4.2917,-4.5419,-4.8001,-5.0632,-5.2326,-5.4414,-5.6983,-5.7857,-5.8704,-5.9511,-6.0377,-6.08,-6.08,-6.08,-6.08,-6.08,-6.08,-6.08,-6.08,-6.08,-6.08,-6.08,-6.08,-6.08,-6.08,-6.08,-6.08,-6.08,-4.8653,-5.001,-5.1433,-5.2318,-5.4115,-5.5986,-5.7643,-5.8446,-5.8993,-5.9327,-5.9593,-5.985,-6.0064,-6.0041,-6.0026,-6.0026,-6.0026,-6.0026,-6.0026,-6.0026,-6.0026,-6.0026,-5.9703,-5.8886,-5.7555,-5.5731,-5.3503,-5.0804,-4.8124,-4.5456,-4.2794,-4.1668,-4.1636,-4.2642,-4.5701,-4.7952,-4.9622,-5.2637,-5.458,-5.5792,-5.7999,-5.911,-5.9554,-6.0419,-6.0777,-6.08,-6.08,-6.08,-6.08,-6.08,-6.08,-6.08,-6.08,-6.08,-6.08,-6.08,-6.08,-6.08,-6.08,-6.08,-6.08,-6.08,-6.0531,-6.0281,-6.0281,-6.0031,-5.9646,-5.9127,-5.7665,-5.6011,-5.4453,-5.3799,-5.3183,-5.2337,-5.1625,-5.0991,-5.0442,-4.9394,-4.8346,-4.7451,-4.6182,-4.5047,-4.4162,-4.3278,-4.2931,-4.3278,-4.2014,-4.2208,-4.4407,-4.6011,-4.825,-5.1288,-5.2558,-5.4164,-5.6214,-5.7607,-5.8473,-5.88,-6.0146,-6.08,-6.08,-6.08,-6.08,-6.08,-6.08,-6.08,-6.08,-6.08,-6.08,-6.08,-6.08,-6.08,-6.08,-6.08,-6.08,-6.08,-5.2174,-5.3318,-5.4511,-5.5126,-5.6607,-5.8115,-5.9261,-5.9653,-6.0025,-6.0571,-6.0565,-6.0439,-6.0337,-6.028,-6.0251,-6.0251,-6.0251,-6.0251,-6.0251,-6.0251,-6.0251,-6.0251,-6.0251,-5.9564,-5.8129,-5.7061,-5.5229,-5.2609,-5.0682,-4.8277,-4.5434,-4.4637,-4.4612,-4.5381,-4.8544,-5.0598,-5.1817,-5.4415,-5.6003,-5.6886,-5.8711,-5.9611,-5.9954,-6.0569,-6.08,-6.08,-6.08,-6.08,-6.08,-6.08,-6.08,-6.08,-6.08,-6.08,-6.08,-6.08,-6.08,-6.08,-6.08,-6.08,-6.08,-6.08,-6.08,-6.08,-6.08,-6.08,-6.055,-5.9685,-5.855,-5.7473,-5.6626,-5.5992,-5.5338,-5.4453,-5.4107,-5.3645,-5.2779,-5.1952,-5.101,-4.9913,-4.874,-4.7567,-4.6432,-4.5778,-4.5413,-4.5413,-4.4316,-4.4335,-4.5893,-4.7278,-4.9221,-5.1827,-5.2991,-5.4395,-5.6069,-5.7569,-5.8415,-5.8665,-6.0108,-6.08,-6.08,-6.08,-6.08,-6.08,-6.08,-6.08,-6.08,-6.08,-6.08,-6.08,-6.08,-6.08,-6.08,-6.08,-6.08,-6.08,-5.5645,-5.6349,-5.6964,-5.6964,-5.8357,-5.9473,-5.9492,-6.0223,-6.0781,-6.08,-6.0753,-6.066,-6.0604,-6.0591,-6.0591,-6.0591,-6.0591,-6.0591,-6.0591,-6.0591,-6.0591,-6.0591,-6.0591,-6.0182,-5.93,-5.7651,-5.6348,-5.5435,-5.2973,-5.0856,-4.913,-4.8316,-4.7932,-4.8066,-5.0636,-5.273,-5.4416,-5.5231,-5.709,-5.9454,-5.9492,-6.0012,-6.0781,-6.08,-6.08,-6.08,-6.08,-6.08,-6.08,-6.08,-6.08,-6.08,-6.08,-6.08,-6.08,-6.08,-6.08,-6.08,-6.08,-6.08,-6.08,-6.08,-6.08,-6.08,-6.08,-6.08,-6.055,-5.9685,-5.9473,-5.9223,-5.8415,-5.8261,-5.7973,-5.7099,-5.6233,-5.5395,-5.4587,-5.3722,-5.2549,-5.0885,-5.0673,-4.9971,-4.824,-4.8067,-4.8048,-4.8048,-4.8048,-4.7702,-4.6923,-4.9279,-5.1029,-5.1865,-5.3587,-5.528,-5.6964,-5.7857,-5.8704,-5.9492,-6.0377,-6.08,-6.08,-6.08,-6.08,-6.08,-6.08,-6.08,-6.08,-6.08,-6.08,-6.08,-6.08,-6.08,-6.08,-6.08,-6.08,-6.08,-5.7473,-5.8146,-5.8704,-5.8704,-5.9646,-6.0396,-6.0396,-6.0608,-6.08,-6.08,-6.0788,-6.0765,-6.0741,-6.0655,-6.0604,-6.0604,-6.0604,-6.0604,-6.0604,-6.0604,-6.0604,-6.0604,-6.0604,-6.0201,-5.9319,-5.8782,-5.7517,-5.5504,-5.4718,-5.3168,-5.0966,-5.0755,-5.0661,-5.0768,-5.3315,-5.4767,-5.5412,-5.7412,-5.8739,-5.955,-6.0146,-6.055,-6.08,-6.08,-6.08,-6.08,-6.08,-6.08,-6.08,-6.08,-6.08,-6.08,-6.08,-6.08,-6.08,-6.08,-6.08,-6.08,-6.08,-6.08,-6.08,-6.08,-6.08,-6.08,-6.08,-6.08,-6.0723,-6.0435,-5.9915,-5.9415,-5.9165,-5.8665,-5.8204,-5.7934,-5.7146,-5.6503,-5.6252,-5.4972,-5.3895,-5.3356,-5.276,-5.1952,-5.0788,-5.0183,-4.9875,-4.9875,-4.9875,-4.976,-4.949,-5.0269,-5.1606,-5.3606,-5.4203,-5.5299,-5.6983,-5.7857,-5.8704,-5.9511,-6.0377,-6.08,-6.08,-6.08,-6.08,-6.08,-6.08,-6.08,-6.08,-6.08,-6.08,-6.08,-6.08,-6.08,-6.08,-6.08,-6.08,-6.08,-6.0185,-6.0589,-6.0935,-6.0935,-6.1377,-6.1647,-6.132,-6.1281,-6.1166,-6.0839,-6.08,-6.08,-6.08,-6.0729,-6.068,-6.068,-6.068,-6.068,-6.068,-6.068,-6.068,-6.068,-6.068,-6.0411,-5.9873,-5.9528,-5.8606,-5.6994,-5.638,-5.527,-5.3746,-5.3795,-5.3825,-5.3895,-5.5818,-5.6838,-5.7223,-5.8819,-5.9685,-6.0031,-6.0569,-6.08,-6.08,-6.08,-6.08,-6.08,-6.08,-6.08,-6.08,-6.08,-6.08,-6.08,-6.08,-6.08,-6.08,-6.08,-6.08,-6.08,-6.08,-6.08,-6.08,-6.08,-6.08,-6.08,-6.08,-6.08,-6.08,-6.08,-6.0358,-5.9992,-5.9992,-5.9588,-5.9031,-5.8396,-5.7838,-5.7261,-5.6599,-5.5607,-5.4838,-5.453,-5.401,-5.3356,-5.2462,-5.1933,-5.1645,-5.1645,-5.1645,-5.1779,-5.2106,-5.2125,-5.2856,-5.4453,-5.5107,-5.6088,-5.7473,-5.8338,-5.9165,-5.9992,-6.0531,-6.08,-6.08,-6.08,-6.08,-6.08,-6.08,-6.08,-6.08,-6.08,-6.08,-6.08,-6.08,-6.08,-6.08,-6.08,-6.08,-6.08,-6.3288,-6.3288,-6.3288,-6.3288,-6.3288,-6.3051,-6.2312,-6.2139,-6.1812,-6.0993,-6.0839,-6.08,-6.08,-6.08,-6.08,-6.08,-6.08,-6.08,-6.08,-6.08,-6.08,-6.08,-6.08,-6.08,-6.08,-6.0012,-5.9569,-5.9492,-5.7865,-5.7088,-5.7099,-5.7099,-5.7099,-5.7137,-5.7992,-5.88,-5.9492,-5.9569,-6.0069,-6.08,-6.08,-6.08,-6.08,-6.08,-6.08,-6.08,-6.08,-6.08,-6.08,-6.08,-6.08,-6.08,-6.08,-6.08,-6.08,-6.08,-6.08,-6.08,-6.08,-6.08,-6.08,-6.08,-6.08,-6.08,-6.08,-6.08,-6.08,-6.08,-6.08,-6.08,-6.08,-6.0742,-6.0204,-5.8646,-5.83,-5.7646,-5.6011,-5.5742,-5.5415,-5.4664,-5.4587,-5.426,-5.3453,-5.3318,-5.3299,-5.3299,-5.3299,-5.3645,-5.4453,-5.4607,-5.4664,-5.4664,-5.6195,-5.7453,-5.8377,-5.9127,-5.9935,-6.08,-6.08,-6.08,-6.08,-6.08,-6.08,-6.08,-6.08,-6.08,-6.08,-6.08,-6.08,-6.08,-6.08,-6.08,-6.08,-6.08,-6.08,-6.08,-6.3288,-6.3288,-6.3288,-6.3288,-6.3288,-6.3243,-6.3051,-6.2493,-6.2043,-6.1831,-6.1204,-6.08,-6.08,-6.08,-6.08,-6.08,-6.08,-6.08,-6.08,-6.08,-6.08,-6.08,-6.08,-6.08,-6.08,-6.0589,-6.0165,-5.9492,-5.8492,-5.7992,-5.7992,-5.7992,-5.7992,-5.803,-5.8858,-5.9319,-5.955,-6.0204,-6.0608,-6.08,-6.08,-6.08,-6.08,-6.08,-6.08,-6.08,-6.08,-6.08,-6.08,-6.08,-6.08,-6.08,-6.08,-6.08,-6.08,-6.08,-6.08,-6.08,-6.08,-6.08,-6.08,-6.08,-6.08,-6.08,-6.08,-6.08,-6.08,-6.08,-6.08,-6.08,-6.08,-6.0262,-5.9685,-5.9281,-5.8146,-5.7157,-5.6753,-5.6107,-5.5626,-5.5434,-5.5415,-5.5318,-5.5126,-5.4549,-5.4184,-5.4184,-5.4184,-5.428,-5.4491,-5.5703,-5.6406,-5.6406,-5.6791,-5.7703,-5.9204,-5.9396,-5.9935,-6.08,-6.08,-6.08,-6.08,-6.08,-6.08,-6.08,-6.08,-6.08,-6.08,-6.08,-6.08,-6.08,-6.08,-6.08,-6.08,-6.08,-6.08,-6.08,-6.4493,-6.4493,-6.4493,-6.4493,-6.4493,-6.4359,-6.3955,-6.3512,-6.2974,-6.2197,-6.1697,-6.1243,-6.0839,-6.08,-6.08,-6.08,-6.08,-6.08,-6.08,-6.08,-6.08,-6.08,-6.08,-6.08,-6.08,-6.08,-6.0569,-6.0089,-5.9665,-5.9435,-5.9435,-5.9435,-5.9435,-5.9454,-5.9896,-6.0089,-6.0127,-6.0589,-6.08,-6.08,-6.08,-6.08,-6.08,-6.08,-6.08,-6.08,-6.08,-6.08,-6.08,-6.08,-6.08,-6.08,-6.08,-6.08,-6.08,-6.08,-6.08,-6.08,-6.08,-6.08,-6.08,-6.08,-6.08,-6.08,-6.08,-6.08,-6.08,-6.08,-6.08,-6.08,-6.08,-6.0089,-5.9377,-5.9011,-5.7838,-5.6868,-5.6464,-5.5992,-5.5838,-5.6252,-5.6291,-5.6453,-5.6857,-5.6492,-5.6069,-5.5665,-5.6011,-5.6069,-5.5665,-5.6876,-5.7407,-5.7003,-5.7742,-5.8569,-5.9492,-5.9896,-6.0319,-6.08,-6.08,-6.08,-6.08,-6.08,-6.08,-6.08,-6.08,-6.08,-6.08,-6.08,-6.08,-6.08,-6.08,-6.08,-6.08,-6.08,-6.08,-6.08,-6.5897,-6.5897,-6.5897,-6.5897,-6.5897,-6.5647,-6.4916,-6.4686,-6.4032,-6.2474,-6.2178,-6.1774,-6.0896,-6.08,-6.08,-6.08,-6.08,-6.08,-6.08,-6.08,-6.08,-6.08,-6.08,-6.08,-6.08,-6.08,-6.08,-6.08,-6.08,-6.08,-6.08,-6.08,-6.08,-6.08,-6.08,-6.08,-6.08,-6.08,-6.08,-6.08,-6.08,-6.08,-6.08,-6.08,-6.08,-6.08,-6.08,-6.08,-6.08,-6.08,-6.08,-6.08,-6.08,-6.08,-6.08,-6.08,-6.08,-6.08,-6.08,-6.08,-6.08,-6.08,-6.08,-6.08,-6.08,-6.08,-6.08,-6.08,-6.08,-6.08,-6.08,-5.9992,-5.9108,-5.8415,-5.7453,-5.656,-5.5799,-5.5799,-5.6175,-5.6907,-5.7118,-5.7492,-5.8223,-5.83,-5.7992,-5.7253,-5.7877,-5.7973,-5.7253,-5.8011,-5.8146,-5.7407,-5.8761,-5.9569,-5.9685,-6.0435,-6.08,-6.08,-6.08,-6.08,-6.08,-6.08,-6.08,-6.08,-6.08,-6.08,-6.08,-6.08,-6.08,-6.08,-6.08,-6.08,-6.08,-6.08,-6.08,-6.08,-6.5897,-6.5897,-6.5897,-6.5897,-6.5897,-6.584,-6.5724,-6.507,-6.4243,-6.3243,-6.2512,-6.1774,-6.0896,-6.08,-6.08,-6.08,-6.08,-6.08,-6.08,-6.08,-6.08,-6.08,-6.08,-6.08,-6.08,-6.08,-6.08,-6.08,-6.08,-6.08,-6.08,-6.08,-6.08,-6.08,-6.08,-6.08,-6.08,-6.08,-6.08,-6.08,-6.08,-6.08,-6.08,-6.08,-6.08,-6.08,-6.08,-6.08,-6.08,-6.08,-6.08,-6.08,-6.08,-6.08,-6.08,-6.08,-6.08,-6.08,-6.08,-6.08,-6.08,-6.08,-6.08,-6.08,-6.08,-6.08,-6.08,-6.08,-6.08,-6.08,-6.08,-5.9531,-5.8454,-5.8319,-5.6953,-5.5838,-5.5722,-5.6329,-5.6849,-5.6983,-5.7646,-5.8146,-5.83,-5.83,-5.8242,-5.8107,-5.8223,-5.8242,-5.8107,-5.8877,-5.9242,-5.9127,-5.9358,-5.9858,-6.0589,-6.0723,-6.08,-6.08,-6.08,-6.08,-6.08,-6.08,-6.08,-6.08,-6.08,-6.08,-6.08,-6.08,-6.08,-6.08,-6.08,-6.08,-6.08,-6.08,-6.08,-6.08,-6.5897,-6.5897,-6.5897,-6.5897,-6.5897,-6.5897,-6.5897,-6.5551,-6.482,-6.3481,-6.2974,-6.2243,-6.0935,-6.08,-6.08,-6.08,-6.08,-6.08,-6.08,-6.08,-6.08,-6.08,-6.08,-6.08,-6.08,-6.08,-6.08,-6.08,-6.08,-6.08,-6.08,-6.08,-6.08,-6.08,-6.08,-6.08,-6.08,-6.08,-6.08,-6.08,-6.08,-6.08,-6.08,-6.08,-6.08,-6.08,-6.08,-6.08,-6.08,-6.08,-6.08,-6.08,-6.08,-6.08,-6.08,-6.08,-6.08,-6.08,-6.08,-6.08,-6.08,-6.08,-6.08,-6.08,-6.08,-6.08,-6.08,-6.08,-6.08,-6.08,-6.08,-5.9435,-5.83,-5.83,-5.6838,-5.5703,-5.5703,-5.6445,-5.7176,-5.7646,-5.8434,-5.9127,-5.9608,-5.9646,-5.9454,-5.8973,-5.9377,-5.9435,-5.8973,-5.9742,-6.0204,-6.0204,-6.0204,-6.0396,-6.08,-6.08,-6.08,-6.08,-6.08,-6.08,-6.08,-6.08,-6.08,-6.08,-6.08,-6.08,-6.08,-6.08,-6.08,-6.08,-6.08,-6.08,-6.08,-6.08,-6.08,-6.08,-6.5897,-6.5897,-6.5897,-6.5897,-6.5897,-6.5897,-6.5897,-6.5897,-6.5263,-6.3519,-6.3288,-6.2666,-6.0973,-6.08,-6.08,-6.08,-6.08,-6.08,-6.08,-6.08,-6.08,-6.08,-6.08,-6.08,-6.08,-6.08,-6.08,-6.08,-6.08,-6.08,-6.08,-6.08,-6.08,-6.08,-6.08,-6.08,-6.08,-6.08,-6.08,-6.08,-6.08,-6.08,-6.08,-6.08,-6.08,-6.08,-6.08,-6.08,-6.08,-6.08,-6.08,-6.08,-6.08,-6.08,-6.08,-6.08,-6.08,-6.08,-6.08,-6.08,-6.08,-6.08,-6.08,-6.08,-6.08,-6.08,-6.08,-6.08,-6.08,-6.08,-6.08,-5.9588,-5.8588,-5.8588,-5.73,-5.6299,-5.6299,-5.703,-5.7819,-5.8511,-5.93,-6.0069,-6.0742,-6.08,-6.0512,-5.9858,-6.0416,-6.0512,-5.9838,-6.0435,-6.08,-6.08,-6.08,-6.08,-6.08,-6.08,-6.08,-6.08,-6.08,-6.08,-6.08,-6.08,-6.08,-6.08,-6.08,-6.08,-6.08,-6.08,-6.08,-6.08,-6.08,-6.08,-6.08,-6.08,-6.08,-6.08,-6.5897,-6.5897,-6.5897,-6.5897,-6.5897,-6.5897,-6.5897,-6.5897,-6.5263,-6.3519,-6.3288,-6.2666,-6.0973,-6.08,-6.08,-6.08,-6.08,-6.08,-6.08,-6.08,-6.08,-6.08,-6.08,-6.08,-6.08,-6.08,-6.08,-6.08,-6.08,-6.08,-6.08,-6.08,-6.08,-6.08,-6.08,-6.08,-6.08,-6.08,-6.08,-6.08,-6.08,-6.08,-6.08,-6.08,-6.08,-6.08,-6.08,-6.08,-6.08,-6.08,-6.08,-6.08,-6.08,-6.08,-6.08,-6.08,-6.08,-6.08,-6.08,-6.08,-6.08,-6.08,-6.08,-6.08,-6.08,-6.08,-6.08,-6.08,-6.08,-6.08,-6.08,-6.0031,-5.9415,-5.9415,-5.8684,-5.8107,-5.8107,-5.8819,-5.9338,-5.9396,-6.0185,-6.0723,-6.0781,-6.08,-6.0762,-6.0704,-6.0762,-6.0762,-6.0704,-6.0762,-6.08,-6.08,-6.08,-6.08,-6.08,-6.08,-6.08,-6.08,-6.08,-6.08,-6.08,-6.08,-6.08,-6.08,-6.08,-6.08,-6.08,-6.08,-6.08,-6.08,-6.08,-6.08,-6.08,-6.08,-6.08,-6.08,-6.5897,-6.5897,-6.5897,-6.5897,-6.5897,-6.5897,-6.5897,-6.5436,-6.4666,-6.3474,-6.2878,-6.2108,-6.0935,-6.08,-6.08,-6.08,-6.08,-6.08,-6.08,-6.08,-6.08,-6.08,-6.08,-6.08,-6.08,-6.08,-6.08,-6.08,-6.08,-6.08,-6.08,-6.08,-6.08,-6.08,-6.08,-6.08,-6.08,-6.08,-6.08,-6.08,-6.08,-6.08,-6.08,-6.08,-6.08,-6.08,-6.08,-6.08,-6.08,-6.08,-6.08,-6.08,-6.08,-6.08,-6.08,-6.08,-6.08,-6.08,-6.08,-6.08,-6.08,-6.08,-6.08,-6.08,-6.08,-6.08,-6.08,-6.08,-6.08,-6.08,-6.08,-6.0089,-5.9492,-5.9492,-5.8819,-5.83,-5.83,-5.8992,-5.9492,-5.9492,-6.0262,-6.08,-6.08,-6.08,-6.08,-6.08,-6.08,-6.08,-6.08,-6.08,-6.08,-6.08,-6.08,-6.08,-6.08,-6.08,-6.08,-6.08,-6.08,-6.08,-6.08,-6.08,-6.08,-6.08,-6.08,-6.08,-6.08,-6.08,-6.08,-6.08,-6.08,-6.08,-6.08,-6.08,-6.08,-6.08,-6.5897,-6.5897,-6.5897,-6.5897,-6.5897,-6.5801,-6.5532,-6.4974,-6.4205,-6.307,-6.2435,-6.1774,-6.0896,-6.08,-6.08,-6.08,-6.08,-6.08,-6.08,-6.08,-6.08,-6.08,-6.08,-6.08,-6.08,-6.08,-6.08,-6.08,-6.08,-6.08,-6.08,-6.08,-6.08,-6.08,-6.08,-6.08,-6.08,-6.08,-6.08,-6.08,-6.08,-6.08,-6.08,-6.08,-6.08,-6.08,-6.08,-6.08,-6.08,-6.08,-6.08,-6.08,-6.08,-6.08,-6.08,-6.08,-6.08,-6.08,-6.08,-6.08,-6.08,-6.08,-6.08,-6.08,-6.08,-6.08,-6.08,-6.08,-6.08,-6.08,-6.08,-6.03,-5.9915,-5.9915,-5.9454,-5.9088,-5.9088,-5.955,-5.9915,-5.9915,-6.0435,-6.08,-6.08,-6.08,-6.08,-6.08,-6.08,-6.08,-6.08,-6.08,-6.08,-6.08,-6.08,-6.08,-6.08,-6.08,-6.08,-6.08,-6.08,-6.08,-6.08,-6.08,-6.08,-6.08,-6.08,-6.08,-6.08,-6.08,-6.08,-6.08,-6.08,-6.08,-6.08,-6.08,-6.08,-6.08,-6.5897,-6.5897,-6.5897,-6.5897,-6.5878,-6.559,-6.4724,-6.4589,-6.3974,-6.2332,-6.2101,-6.1774,-6.0877,-6.08,-6.08,-6.08,-6.08,-6.08,-6.08,-6.08,-6.08,-6.08,-6.08,-6.08,-6.08,-6.08,-6.08,-6.08,-6.08,-6.08,-6.08,-6.08,-6.08,-6.08,-6.08,-6.08,-6.08,-6.08,-6.08,-6.08,-6.08,-6.08,-6.08,-6.08,-6.08,-6.08,-6.08,-6.08,-6.08,-6.08,-6.08,-6.08,-6.08,-6.08,-6.08,-6.08,-6.08,-6.08,-6.08,-6.08,-6.08,-6.08,-6.08,-6.08,-6.08,-6.08,-6.08,-6.08,-6.08,-6.08,-6.08,-6.08,-6.08,-6.08,-6.08,-6.08,-6.08,-6.08,-6.08,-6.08,-6.08,-6.08,-6.08,-6.08,-6.08,-6.08,-6.08,-6.08,-6.08,-6.08,-6.08,-6.08,-6.08,-6.08,-6.08,-6.08,-6.08,-6.08,-6.08,-6.08,-6.08,-6.08,-6.08,-6.08,-6.08,-6.08,-6.08,-6.08,-6.08,-6.08,-6.08,-6.08,-6.08,-6.08,-6.08,-6.08,-6.5897,-6.5897,-6.5897,-6.5897,-6.5397,-6.4897,-6.4647,-6.3589,-6.2678,-6.2178,-6.1581,-6.1089,-6.0819,-6.08,-6.08,-6.08,-6.08,-6.08,-6.08,-6.08,-6.08,-6.08,-6.08,-6.08,-6.08,-6.08,-6.08,-6.08,-6.08,-6.08,-6.08,-6.08,-6.08,-6.08,-6.08,-6.08,-6.08,-6.08,-6.08,-6.08,-6.08,-6.08,-6.08,-6.08,-6.08,-6.08,-6.08,-6.08,-6.08,-6.08,-6.08,-6.08,-6.08,-6.08,-6.08,-6.08,-6.08,-6.08,-6.08,-6.08,-6.08,-6.08,-6.08,-6.08,-6.08,-6.08,-6.08,-6.08,-6.08,-6.08,-6.08,-6.08,-6.08,-6.08,-6.08,-6.08,-6.08,-6.08,-6.08,-6.08,-6.08,-6.08,-6.08,-6.08,-6.08,-6.08,-6.08,-6.08,-6.08,-6.08,-6.08,-6.08,-6.08,-6.08,-6.08,-6.08,-6.08,-6.08,-6.08,-6.08,-6.08,-6.08,-6.08,-6.08,-6.08,-6.08,-6.08,-6.08,-6.08,-6.08,-6.08,-6.08,-6.08,-6.08,-6.08,-6.08,-6.5897,-6.5897,-6.5782,-6.5455,-6.4955,-6.4378,-6.3705,-6.2743,-6.1985,-6.1639,-6.1127,-6.08,-6.08,-6.08,-6.08,-6.08,-6.08,-6.08,-6.08,-6.08,-6.08,-6.08,-6.08,-6.08,-6.08,-6.08,-6.08,-6.08,-6.08,-6.08,-6.08,-6.08,-6.08,-6.08,-6.08,-6.08,-6.08,-6.08,-6.08,-6.08,-6.08,-6.08,-6.08,-6.08,-6.08,-6.08,-6.08,-6.08,-6.08,-6.08,-6.08,-6.08,-6.08,-6.08,-6.08,-6.08,-6.08,-6.08,-6.08,-6.08,-6.08,-6.08,-6.08,-6.08,-6.08,-6.08,-6.08,-6.08,-6.08,-6.08,-6.08,-6.08,-6.08,-6.08,-6.08,-6.08,-6.08,-6.08,-6.08,-6.08,-6.08,-6.08,-6.08,-6.0823,-6.0846,-6.0869,-6.0869,-6.0869,-6.0869,-6.0869,-6.0869,-6.0869,-6.0869,-6.0869,-6.0869,-6.0869,-6.0846,-6.08,-6.08,-6.08,-6.08,-6.08,-6.08,-6.08,-6.08,-6.08,-6.08,-6.08,-6.08,-6.08,-6.08,-6.08,-6.08,-6.08,-6.08,-6.08,-6.5801,-6.5782,-6.5513,-6.4647,-6.4416,-6.3858,-6.2332,-6.2043,-6.1697,-6.0896,-6.08,-6.08,-6.08,-6.08,-6.08,-6.08,-6.08,-6.08,-6.08,-6.08,-6.08,-6.08,-6.08,-6.08,-6.08,-6.08,-6.08,-6.08,-6.08,-6.08,-6.08,-6.08,-6.08,-6.08,-6.08,-6.08,-6.08,-6.08,-6.08,-6.08,-6.08,-6.08,-6.08,-6.08,-6.08,-6.08,-6.08,-6.08,-6.08,-6.08,-6.08,-6.08,-6.08,-6.08,-6.08,-6.08,-6.08,-6.08,-6.08,-6.08,-6.08,-6.08,-6.08,-6.08,-6.08,-6.08,-6.08,-6.08,-6.08,-6.08,-6.08,-6.08,-6.08,-6.08,-6.08,-6.08,-6.08,-6.08,-6.08,-6.08,-6.0812,-6.0812,-6.0812,-6.0869,-6.0933,-6.1006,-6.0987,-6.0987,-6.0987,-6.0997,-6.0997,-6.0997,-6.1008,-6.1008,-6.1008,-6.1008,-6.0935,-6.0823,-6.0823,-6.0823,-6.0823,-6.0812,-6.0812,-6.0812,-6.08,-6.08,-6.08,-6.08,-6.08,-6.08,-6.08,-6.08,-6.08,-6.08,-6.08,-6.08,-6.5013,-6.4878,-6.4609,-6.3743,-6.3051,-6.2524,-6.2159,-6.1524,-6.1012,-6.0819,-6.08,-6.08,-6.08,-6.08,-6.08,-6.08,-6.08,-6.08,-6.08,-6.08,-6.08,-6.08,-6.08,-6.08,-6.08,-6.08,-6.08,-6.08,-6.08,-6.08,-6.08,-6.08,-6.08,-6.08,-6.08,-6.08,-6.08,-6.08,-6.08,-6.08,-6.08,-6.08,-6.08,-6.08,-6.08,-6.08,-6.08,-6.08,-6.08,-6.08,-6.08,-6.08,-6.08,-6.08,-6.08,-6.08,-6.08,-6.08,-6.08,-6.08,-6.08,-6.08,-6.08,-6.08,-6.08,-6.08,-6.08,-6.08,-6.08,-6.08,-6.08,-6.08,-6.08,-6.08,-6.08,-6.08,-6.08,-6.08,-6.08,-6.08,-6.0846,-6.0869,-6.0869,-6.0944,-6.0976,-6.0987,-6.0987,-6.0987,-6.0987,-6.1,-6.1001,-6.1001,-6.1041,-6.108,-6.108,-6.108,-6.105,-6.0955,-6.0955,-6.0955,-6.0955,-6.0891,-6.0869,-6.0888,-6.0823,-6.08,-6.08,-6.08,-6.08,-6.08,-6.08,-6.08,-6.08,-6.08,-6.08,-6.08,-6.4147,-6.3974,-6.3724,-6.2878,-6.2377,-6.1966,-6.1543,-6.1089,-6.08,-6.08,-6.08,-6.08,-6.08,-6.08,-6.08,-6.08,-6.08,-6.08,-6.08,-6.08,-6.08,-6.08,-6.08,-6.08,-6.08,-6.08,-6.08,-6.08,-6.08,-6.08,-6.08,-6.08,-6.08,-6.08,-6.08,-6.08,-6.08,-6.08,-6.08,-6.08,-6.08,-6.08,-6.08,-6.08,-6.08,-6.08,-6.08,-6.08,-6.08,-6.08,-6.08,-6.08,-6.08,-6.08,-6.08,-6.08,-6.08,-6.08,-6.08,-6.08,-6.08,-6.08,-6.08,-6.08,-6.08,-6.08,-6.08,-6.08,-6.0473,-6.0185,-6.0185,-5.9877,-5.9608,-5.9608,-5.9608,-5.9608,-5.9608,-5.9611,-5.9768,-6.0192,-6.0294,-6.0503,-6.0951,-6.106,-6.1119,-6.1147,-6.1147,-6.1147,-6.1147,-6.1137,-6.1136,-6.1136,-6.1173,-6.121,-6.121,-6.121,-6.1183,-6.1147,-6.105,-6.0999,-6.0987,-6.0965,-6.0933,-6.0911,-6.0858,-6.0835,-6.08,-6.08,-6.08,-6.08,-6.08,-6.08,-6.08,-6.08,-6.08,-6.08,-6.3262,-6.3089,-6.2839,-6.2024,-6.1889,-6.1639,-6.0916,-6.08,-6.08,-6.08,-6.08,-6.08,-6.08,-6.08,-6.08,-6.08,-6.08,-6.08,-6.08,-6.08,-6.08,-6.08,-6.08,-6.08,-6.08,-6.08,-6.08,-6.08,-6.08,-6.08,-6.08,-6.08,-6.08,-6.08,-6.08,-6.08,-6.08,-6.08,-6.08,-6.08,-6.08,-6.08,-6.08,-6.08,-6.08,-6.08,-6.08,-6.08,-6.08,-6.08,-6.08,-6.08,-6.08,-6.08,-6.08,-6.08,-6.08,-6.08,-6.08,-6.08,-6.0762,-6.0608,-6.0569,-6.0531,-6.0396,-6.0473,-6.0531,-6.0396,-5.98,-5.93,-5.93,-5.8742,-5.83,-5.83,-5.83,-5.83,-5.8292,-5.8297,-5.858,-5.9303,-5.9588,-6.0026,-6.0818,-6.1104,-6.1245,-6.1306,-6.1322,-6.1322,-6.1322,-6.133,-6.131,-6.131,-6.1318,-6.1326,-6.1326,-6.1326,-6.1318,-6.131,-6.1154,-6.1051,-6.1029,-6.1029,-6.0967,-6.0924,-6.0903,-6.0858,-6.0823,-6.0812,-6.08,-6.08,-6.08,-6.08,-6.08,-6.08,-6.08,-6.08,-6.2416,-6.2274,-6.1993,-6.1127,-6.0973,-6.0935,-6.0819,-6.08,-6.08,-6.08,-6.08,-6.08,-6.08,-6.08,-6.08,-6.08,-6.08,-6.08,-6.08,-6.08,-6.08,-6.08,-6.08,-6.08,-6.08,-6.08,-6.08,-6.08,-6.08,-6.08,-6.08,-6.08,-6.08,-6.08,-6.08,-6.08,-6.08,-6.08,-6.08,-6.08,-6.08,-6.08,-6.08,-6.08,-6.08,-6.08,-6.08,-6.08,-6.08,-6.08,-6.08,-6.08,-6.08,-6.08,-6.08,-6.08,-6.08,-6.08,-6.08,-6.08,-6.0608,-5.9858,-5.9685,-5.9492,-5.88,-5.9184,-5.9473,-5.8781,-5.855,-5.8473,-5.8473,-5.8377,-5.83,-5.83,-5.83,-5.8292,-5.8308,-5.8299,-5.8379,-5.8546,-5.9292,-5.9879,-6.0121,-6.0829,-6.1287,-6.1295,-6.1352,-6.1393,-6.1393,-6.1401,-6.1395,-6.1395,-6.1441,-6.1473,-6.1473,-6.1473,-6.1441,-6.1395,-6.1366,-6.1294,-6.1174,-6.1118,-6.1051,-6.0972,-6.0935,-6.088,-6.088,-6.0823,-6.08,-6.08,-6.08,-6.08,-6.08,-6.08,-6.08,-6.08,-6.1531,-6.1358,-6.1243,-6.0858,-6.08,-6.08,-6.08,-6.08,-6.08,-6.08,-6.08,-6.08,-6.08,-6.08,-6.08,-6.08,-6.08,-6.08,-6.08,-6.08,-6.08,-6.08,-6.08,-6.08,-6.08,-6.08,-6.08,-6.08,-6.08,-6.08,-6.08,-6.08,-6.08,-6.08,-6.08,-6.08,-6.08,-6.08,-6.08,-6.08,-6.08,-6.08,-6.08,-6.08,-6.08,-6.08,-6.08,-6.08,-6.08,-6.08,-6.08,-6.08,-6.08,-6.08,-6.08,-6.08,-6.08,-6.0685,-6.0204,-6.0069,-5.9877,-5.905,-5.8838,-5.8607,-5.7761,-5.7838,-5.8146,-5.828,-5.7915,-5.7569,-5.7569,-5.7184,-5.6868,-5.69,-5.6911,-5.6922,-5.6954,-5.6995,-5.7216,-5.7772,-5.8679,-5.9468,-6.0002,-6.0448,-6.089,-6.1376,-6.1434,-6.146,-6.146,-6.1453,-6.146,-6.146,-6.1478,-6.1503,-6.1503,-6.1503,-6.1497,-6.146,-6.1467,-6.1381,-6.1239,-6.1191,-6.1108,-6.1041,-6.0981,-6.0967,-6.0955,-6.0933,-6.088,-6.0858,-6.0858,-6.0835,-6.08,-6.08,-6.08,-6.08]},{"header":{"parameterUnit":"m.s-1","parameterCategory":1,"la1":30.6,"la2":28.766,"lo1":-90.7593,"lo2":-88.6598,"dy":0.0162,"dx":0.0183,"nx":116,"ny":114,"refTime":"2023-03-06T18:00:00:Z","depth":0,"parameterNumber":3,"parameterNumberName":"V-component_of_WINDS"},"data":[0.0,0.0,0.0,0.0,0.0,0.0,0.0,0.0,0.0,0.0,0.0,0.0,0.0,0.0,0.0,0.0,0.0,0.0,0.0,0.0,0.0,0.0,0.0,0.0,0.0,0.0,0.0,0.0,0.0,0.0,0.0,0.0,0.0,0.0,0.0,0.0,0.0,0.0,0.0,0.0,0.0,0.0,0.0,0.0,0.0,0.0,0.0,0.0,0.0,0.0,0.0,0.0,0.0,0.0,0.0,0.0,0.0,0.0,0.0,0.0,0.0,0.0,0.0,0.0,0.0,0.0,0.0,0.0,0.0,0.0,0.0,0.0,0.0,0.0,0.0,0.0,0.0,0.0,0.0,0.0,0.0,0.0,0.0,0.0,0.0,0.0,0.0,0.0,0.0,0.0,0.0,0.0,0.0,0.0,0.0,0.0,0.0,0.0,0.0,0.0,0.0,0.0,0.0,0.0,0.0,0.0,0.0,0.0,0.0,0.0,0.0,0.0,0.0,0.0,0.0,0.0,0.0,0.0,0.0,0.0,0.0,0.0,0.0,0.0,0.0,0.0,0.0,0.0,0.0,0.0,0.0,0.0,0.0,0.0,0.0,0.0,0.0,0.0,0.0,0.0,0.0,0.0,0.0,0.0,0.0,0.0,0.0,0.0,0.0,0.0,0.0,0.0,0.0,0.0,0.0,0.0,0.0,0.0,0.0,0.0,0.0,0.0,0.0,0.0,0.0,0.0,0.0,0.0,0.0,0.0,0.0,0.0,0.0,0.0,0.0,0.0,0.0,0.0,0.0,0.0,0.0,0.0,0.0,0.0,0.0,0.0,0.0,0.0,0.0,0.0,0.0,0.0,0.0,0.0,0.0,0.0,0.0,0.0,0.0,0.0,0.0,0.0,0.0,0.0,0.0,0.0,0.0,0.0,0.0,0.0,0.0,0.0,0.0,0.0,0.0,0.0,0.0,0.0,0.0,0.0,0.0,0.0,0.0,0.0,0.0,0.0,0.0,0.0,0.0,0.0,0.0,0.0,0.0,0.0,0.0,0.0,0.0,0.0,0.0,0.0,0.0,0.0,0.0,0.0,0.0,0.0,0.0,0.0,0.0,0.0,0.0,0.0,0.0,0.0,0.0,0.0,0.0,0.0,0.0,0.0,0.0,0.0,0.0,0.0,0.0,0.0,0.0,0.0,0.0,0.0,0.0,0.0,0.0,0.0,0.0,0.0,0.0,0.0,0.0,0.0,0.0,0.0,0.0,0.0,0.0,0.0,0.0,0.0,0.0,0.0,0.0,0.0,0.0,0.0,0.0,0.0,0.0,0.0,0.0,0.0,0.0,0.0,0.0,0.0,0.0,0.0,0.0,0.0,0.0,0.0,0.0,0.0,0.0,0.0,0.0,0.0,0.0,0.0,0.0,0.0,0.0,0.0,0.0,0.0,0.0,0.0,0.0,0.0,0.0,0.0,0.0,0.0,0.0,0.0,0.0,0.0,0.0,0.0,0.0,0.0,0.0,0.0,0.0,0.0,0.0,0.0,0.0,0.0,0.0,0.0,0.0,0.0,0.0,0.0,0.0,0.0,0.0,0.0,0.0,0.0,0.0,0.0,0.0,0.0,0.0,0.0,0.0,0.0,0.0,0.0,0.0,0.0,0.0,0.0,0.0,0.0,0.0,0.0,0.0,0.0,0.0,0.0,0.0,0.0,0.0,0.0,0.0,0.0,0.0,0.0,0.0,0.0,0.0,0.0,0.0,0.0,0.0,0.0,0.0,0.0,0.0,0.0,0.0,0.0,0.0,0.0,0.0,0.0,0.0,0.0,0.0,0.0,0.0,0.0,0.0,0.0,0.0,0.0,0.0,0.0,0.0,0.0,0.0,0.0,0.0,0.0,0.0,0.0,0.0,0.0,0.0,0.0,0.0,0.0,0.0,0.0,0.0,0.0,0.0,0.0,0.0,0.0,0.0,0.0,0.0,0.0,0.0,0.0,0.0,0.0,0.0,0.0,0.0,0.0,0.0,0.0,0.0,0.0,0.0,0.0,0.0,0.0,0.0,0.0,0.0,0.0,0.0,0.0,0.0,0.0,0.0,0.0,0.0,0.0,0.0,0.0,0.0,0.0,0.0,0.0,0.0,0.0,0.0,0.0,0.0,0.0,0.0,0.0,0.0,0.0,0.0,0.0,0.0,0.0,0.0,0.0,0.0,0.0,0.0,0.0,0.0,0.0,0.0,0.0,0.0,0.0,0.0,0.0,0.0,0.0,0.0,0.0,0.0,0.0,0.0,0.0,0.0,0.0,0.0,0.0,0.0,0.0,0.0,0.0,0.0,0.0,0.0,0.0,0.0,0.0,0.0,0.0,0.0,0.0,0.0,0.0,0.0,0.0,0.0,0.0,0.0,0.0,0.0,0.0,0.0,0.0,0.0,0.0,0.0,0.0,0.0,0.0,0.0,0.0,0.0,0.0,0.0,0.0,0.0,0.0,0.0,0.0,0.0,0.0,0.0,0.0,0.0,0.0,0.0,0.0,0.0,0.0,0.0,0.0,0.0,0.0,0.0,0.0,0.0,0.0,0.0,0.0,0.0,0.0,0.0,0.0,0.0,0.0,0.0,0.0,0.0,0.0,0.0,0.0,0.0,0.0,0.0,0.0,0.0,0.0,0.0,0.0,0.0,0.0,0.0,0.0,0.0,0.0,0.0,0.0,0.0,0.0,0.0,0.0,0.0,0.0,0.0,0.0,0.0,0.0,0.0,0.0,0.0,0.0,0.0,0.0,0.0,0.0,0.0,0.0,0.0,0.0,0.0,0.0,0.0,0.0,0.0,0.0,0.0,0.0,0.0,0.0,0.0,0.0,0.0,0.0,0.0,0.0,0.0,0.0,0.0,0.0,0.0,0.0,0.0,0.0,0.0,0.0,0.0,0.0,0.0,0.0,0.0,0.0,0.0,0.0,0.0,0.0,0.0,0.0,0.0,0.0,0.0,0.0,0.0,0.0,0.0,0.0,0.0,0.0,0.0,0.0,0.0,0.0,0.0,0.0,0.0,0.0,0.0,0.0,0.0,0.0,0.0,0.0,0.0,0.0,0.0,0.0,0.0,0.0,0.0,0.0,0.0,0.0,0.0,0.0,0.0,0.0,0.0,0.0,0.0,0.0,0.0,0.0,0.0,0.0,0.0,0.0,0.0,0.0,0.0,0.0,0.0,0.0,0.0,0.0,0.0,0.0,0.0,0.0,0.0,0.0,0.0,0.0,0.0,0.0,0.0,0.0,0.0,0.0,0.0,0.0,0.0,0.0,0.0,0.0,0.0,0.0,0.0,0.0,0.0,0.0,0.0,0.0,0.0,0.0,0.0,0.0,0.0,0.0,0.0,0.0,0.0,0.0,0.0,0.0,0.0,0.0,0.0,0.0,0.0,0.0,0.0,0.0,0.0,0.0,0.0,0.0,0.0,0.0,0.0,0.0,0.0,0.0,0.0,0.0,0.0,0.0,0.0,0.0,0.0,0.0,0.0,0.0,0.0,0.0,0.0,0.0,0.0,0.0,0.0,0.0,0.0,0.0,0.0,0.0,0.0,0.0,0.0,0.0,0.0,0.0,0.0,0.0,0.0,0.0,0.0,0.0,0.0,0.0,0.0,0.0,0.0,0.0,0.0,0.0,0.0,0.0,0.0,0.0,0.0,0.0,0.0,0.0,0.0,0.0,0.0,0.0,0.0,0.0,0.0,0.0,0.0,0.0,0.0,0.0,0.0,0.0,0.0,0.0,0.0,0.0,0.0,0.0,0.0,0.0,0.0,0.0,0.0,0.0,0.0,0.0,0.0,0.0,0.0,0.0,0.0,0.0,0.0,0.0,0.0,0.0,0.0,0.0,0.0,0.0,0.0,0.0,0.0,0.0,0.0,0.0,0.0,0.0,0.0,0.0,0.0,0.0,0.0,0.0,0.0,0.0,0.0,0.0,0.0,0.0,0.0,0.0,0.0,0.0,0.0,0.0,0.0,0.0,0.0,0.0,0.0,0.0,0.0,0.0,0.0,0.0,0.0,0.0,0.0,0.0,0.0,0.0,0.0,0.0,0.0,0.0,0.0,0.0,0.0,0.0,0.0,0.0,0.0,0.0,0.0,0.0,0.0,0.0,0.0,0.0,0.0,0.0,0.0,0.0,0.0,0.0,0.0,0.0,0.0,0.0,0.0,0.0,0.0,0.0,0.0,0.0,0.0,0.0,0.0,0.0,0.0,0.0,0.0,0.0,0.0,0.0,0.0,0.0,0.0,0.0,0.0,0.0,0.0,0.0,0.0,0.0,0.0,0.0,0.0,0.0,0.0,0.0,0.0,0.0,0.0,0.0,0.0,0.0,0.0,0.0,0.0,0.0,0.0,0.0,0.0,0.0,0.0,0.0,0.0,0.0,0.0,0.0,0.0,0.0,0.0,0.0,0.0,0.0,0.0,0.0,0.0,0.0,0.0,0.0,0.0,0.0,0.0,0.0,0.0,0.0,0.0,0.0,0.0,0.0,0.0,0.0,0.0,0.0,0.0,0.0,0.0,0.0,0.0,0.0,0.0,0.0,0.0,0.0,0.0,0.0,0.0,0.0,0.0,0.0,0.0,0.0,0.0,0.0,0.0,0.0,0.0,0.0,0.0,0.0,0.0,0.0,0.0,0.0,0.0,0.0,0.0,0.0,0.0,0.0,0.0,0.0,0.0,0.0,0.0,0.0,0.0,0.0,0.0,0.0,0.0,0.0,0.0,0.0,0.0,0.0,0.0,0.0,0.0,0.0,0.0,0.0,0.0,0.0,0.0,0.0,0.0,0.0,0.0,0.0,0.0,0.0,0.0,0.0,0.0,0.0,0.0,0.0,0.0,0.0,0.0,0.0,0.0,0.0,0.0,0.0,0.0,0.0,0.0,0.0,0.0,0.0,0.0,0.0,0.0,0.0,0.0,0.0,0.0,0.0,0.0,0.0,0.0,0.0,0.0,0.0,0.0,0.0,0.0,0.0,0.0,0.0,0.0,0.0,0.0,0.0,0.0,0.0,0.0,0.0,0.0,0.0,0.0,0.0,0.0,0.0,0.0,0.0,0.0,0.0,0.0,0.0,0.0,0.0,0.0,0.0,0.0,0.0,0.0,0.0,0.0,0.0,0.0,0.0,0.0,0.0,0.0,0.0,0.0,0.0,0.0,0.0,0.0,0.0,0.0,0.0,0.0,0.0,0.0,0.0,0.0,0.0,0.0,0.0,0.0,0.0,0.0,0.0,0.0,0.0,0.0,0.0,0.0,0.0,0.0,0.0,0.0,0.0,0.0,0.0,0.0,0.0,0.0,0.0,0.0,0.0,0.0,0.0,0.0,0.0,0.0,0.0,0.0,0.0,0.0,0.0,0.0,0.0,0.0,0.0,0.0,0.0,0.0,0.0,0.0,0.0,0.0,0.0,0.0,0.0,0.0,0.0,0.0,0.0,0.0,0.0,0.0,0.0,0.0,0.0,0.0,0.0,0.0,0.0,0.0,0.0,0.0,0.0,0.0,0.0,0.0,0.0,0.0,0.0,0.0,0.0,0.0,0.0,0.0,0.0,0.0,0.0,0.0,0.0,0.0,0.0,0.0,0.0,0.0,0.0,0.0,0.0,0.0,0.0,0.0,0.0,0.0,0.0,0.0,0.0,0.0,0.0,0.0,0.0,0.0,0.0,0.0,0.0,0.0,0.0,0.0,0.0,0.0,0.0,0.0,0.0,0.0,0.0,0.0,0.0,0.0,0.0,0.0,0.0,0.0,0.0,0.0,0.0,0.0,0.0,0.0,0.0,0.0,0.0,0.0,0.0,0.0,0.0,0.0,0.0,0.0,0.0,0.0,0.0,0.0,0.0,0.0,0.0,0.0,0.0,0.0,0.0,0.0,0.0,0.0,0.0,0.0,0.0,0.0,0.0,0.0,0.0,0.0,0.0,0.0,0.0,0.0,0.0,0.0,0.0,0.0,0.0,0.0,0.0,0.0,0.0,0.0,0.0,0.0,0.0,0.0,0.0,0.0,0.0,0.0,0.0,0.0,0.0,0.0,0.0,0.0,0.0,0.0,0.0,0.0,0.0,0.0,0.0,0.0,0.0,-1.4202,0.0,0.0,0.0,0.0,0.0,0.0,0.0,0.0,0.0,0.0,0.0,0.0,0.0,0.0,0.0,0.0,0.0,0.0,0.0,0.0,0.0,0.0,0.0,0.0,0.0,0.0,0.0,0.0,0.0,0.0,0.0,0.0,0.0,0.0,0.0,0.0,0.0,0.0,0.0,0.0,0.0,0.0,0.0,0.0,0.0,0.0,0.0,0.0,0.0,0.0,0.0,0.0,0.0,0.0,0.0,0.0,0.0,0.0,0.0,0.0,0.0,0.0,0.0,0.0,0.0,0.0,0.0,0.0,0.0,0.0,0.0,0.0,0.0,0.0,0.0,0.0,0.0,0.0,0.0,0.0,0.0,0.0,0.0,0.0,0.0,0.0,0.0,0.0,0.0,0.0,0.0,0.0,0.0,0.0,0.0,0.0,0.0,0.0,0.0,0.0,0.0,0.0,0.0,0.0,0.0,0.0,0.0,0.0,0.0,0.0,0.0,0.0,0.0,0.0,0.0,0.0,-1.4676,0.0,0.0,0.0,0.0,0.0,0.0,0.0,0.0,0.0,0.0,0.0,0.0,0.0,0.0,0.0,0.0,0.0,0.0,0.0,0.0,0.0,0.0,0.0,0.0,0.0,0.0,0.0,0.0,0.0,0.0,0.0,0.0,0.0,0.0,0.0,0.0,0.0,0.0,0.0,0.0,0.0,0.0,0.0,0.0,0.0,0.0,0.0,0.0,0.0,0.0,0.0,0.0,0.0,0.0,0.0,0.0,0.0,0.0,0.0,0.0,0.0,0.0,0.0,0.0,0.0,0.0,0.0,0.0,0.0,0.0,0.0,0.0,0.0,0.0,0.0,0.0,0.0,0.0,0.0,0.0,0.0,0.0,0.0,0.0,0.0,0.0,0.0,0.0,0.0,0.0,0.0,0.0,0.0,0.0,0.0,0.0,0.0,0.0,0.0,0.0,0.0,0.0,0.0,0.0,0.0,0.0,0.0,0.0,-1.6987,-1.7295,-1.7816,-1.7869,-1.7889,-1.7842,-1.6867,-1.5999,-1.5316,-1.5316,0.0,0.0,0.0,0.0,0.0,0.0,0.0,0.0,0.0,0.0,0.0,0.0,0.0,0.0,0.0,0.0,0.0,0.0,0.0,0.0,0.0,0.0,0.0,0.0,0.0,0.0,0.0,0.0,0.0,0.0,0.0,0.0,0.0,0.0,0.0,0.0,0.0,0.0,-1.4147,-1.4431,-1.4503,-1.4358,-1.3429,0.0,0.0,0.0,0.0,0.0,0.0,0.0,0.0,0.0,0.0,0.0,0.0,0.0,0.0,0.0,0.0,0.0,0.0,0.0,0.0,0.0,0.0,0.0,0.0,0.0,0.0,0.0,0.0,0.0,0.0,0.0,0.0,0.0,0.0,0.0,0.0,0.0,0.0,0.0,0.0,0.0,0.0,0.0,-1.3008,-1.2923,0.0,0.0,0.0,0.0,0.0,0.0,0.0,0.0,0.0,0.0,0.0,0.0,0.0,-1.648,-1.648,-1.7054,-1.7515,-1.7842,-1.8123,-1.843,-1.8758,-1.9018,-1.9189,-1.9125,-1.8971,0.0,-1.648,-1.648,0.0,0.0,0.0,0.0,0.0,0.0,0.0,0.0,0.0,0.0,0.0,0.0,0.0,0.0,0.0,0.0,0.0,0.0,0.0,0.0,0.0,0.0,0.0,0.0,0.0,0.0,0.0,0.0,0.0,0.0,0.0,0.0,0.0,0.0,0.0,0.0,-1.3525,-1.4226,-1.4757,-1.5028,-1.5155,-1.5137,-1.4666,-1.4208,-1.3761,-1.3375,0.0,0.0,0.0,0.0,0.0,0.0,0.0,0.0,0.0,0.0,0.0,0.0,0.0,0.0,0.0,0.0,0.0,0.0,0.0,0.0,0.0,0.0,0.0,0.0,0.0,0.0,0.0,0.0,0.0,0.0,0.0,0.0,0.0,0.0,0.0,0.0,0.0,0.0,0.0,-1.3457,-1.3566,-1.3809,-1.3578,-1.3348,0.0,0.0,0.0,0.0,0.0,0.0,0.0,0.0,0.0,-1.546,-1.6565,-1.7266,-1.743,-1.8014,-1.8564,-1.9018,-1.9158,-1.9379,-1.9666,-1.9793,-1.9853,-1.9853,-1.9853,-1.9319,-1.8404,-1.7909,-1.7108,-1.6221,0.0,0.0,0.0,0.0,-1.5759,-1.5996,0.0,0.0,0.0,0.0,0.0,0.0,0.0,0.0,0.0,0.0,0.0,0.0,0.0,0.0,0.0,-1.1697,0.0,0.0,0.0,0.0,0.0,0.0,0.0,0.0,0.0,0.0,0.0,0.0,-1.431,-1.4847,-1.5312,-1.5578,-1.5734,-1.5807,-1.5807,-1.536,-1.4582,-1.4256,-1.3845,0.0,0.0,0.0,0.0,0.0,0.0,0.0,0.0,0.0,0.0,0.0,0.0,0.0,0.0,0.0,0.0,0.0,0.0,0.0,0.0,0.0,0.0,0.0,0.0,0.0,0.0,0.0,0.0,0.0,0.0,0.0,0.0,0.0,0.0,0.0,0.0,0.0,0.0,-1.4012,-1.4132,-1.4469,-1.4167,-1.3905,0.0,0.0,0.0,0.0,0.0,0.0,-1.517,-1.565,-1.5995,-1.6226,-1.7242,-1.7955,-1.8353,-1.8825,-1.9362,-1.9913,-1.9987,-2.014,-2.0347,-2.0421,-2.0454,-2.0454,-2.0454,-2.0294,-1.996,-1.9158,-1.8343,-1.7628,-1.7275,-1.6981,-1.6727,-1.6727,-1.6874,-1.714,0.0,0.0,0.0,0.0,0.0,0.0,0.0,0.0,0.0,0.0,0.0,0.0,0.0,0.0,-1.228,-1.2522,-1.2547,-1.224,0.0,0.0,0.0,0.0,0.0,0.0,0.0,0.0,0.0,-1.4256,-1.5052,-1.5578,-1.5855,-1.6115,-1.6386,-1.664,-1.664,-1.6193,-1.5403,-1.4896,-1.4509,-1.4171,0.0,0.0,0.0,0.0,0.0,0.0,0.0,0.0,0.0,0.0,0.0,0.0,0.0,0.0,0.0,0.0,0.0,0.0,0.0,0.0,0.0,0.0,0.0,0.0,0.0,0.0,0.0,0.0,0.0,0.0,0.0,0.0,0.0,0.0,0.0,0.0,0.0,0.0,0.0,-1.43,-1.4181,0.0,0.0,0.0,0.0,-1.4134,-1.4174,-1.4642,-1.5718,-1.6006,-1.6551,-1.7382,-1.8059,-1.8608,-1.9206,-1.9546,-1.9824,-2.0153,-2.0494,-2.0641,-2.0661,-2.0942,-2.1062,-2.1062,-2.1062,-2.0902,-2.0588,-1.998,-1.9379,-1.8804,-1.8517,-1.8217,-1.7902,-1.7902,-1.8136,-1.8417,0.0,0.0,0.0,0.0,0.0,0.0,0.0,0.0,0.0,0.0,0.0,0.0,0.0,-1.343,-1.4008,-1.4315,-1.3909,-1.3503,-1.3252,0.0,0.0,0.0,0.0,0.0,0.0,0.0,-1.4026,-1.457,-1.536,-1.5885,-1.6151,-1.6598,-1.6857,-1.6954,-1.6954,-1.6791,-1.6477,-1.5771,-1.5318,-1.4998,-1.4398,-1.3759,0.0,0.0,0.0,0.0,0.0,0.0,0.0,0.0,0.0,0.0,0.0,0.0,0.0,0.0,0.0,0.0,0.0,0.0,0.0,0.0,0.0,0.0,0.0,0.0,0.0,0.0,0.0,0.0,0.0,0.0,0.0,0.0,0.0,0.0,0.0,0.0,0.0,-1.4965,-1.4803,0.0,-1.4591,-1.4504,-1.4537,-1.4871,-1.5058,-1.5407,-1.5968,-1.6385,-1.6891,-1.7396,-1.799,-1.855,-1.9259,-1.973,-2.0188,-2.049,-2.0783,-2.0955,-2.0962,-2.1263,-2.1396,-2.1403,-2.159,-2.1617,-2.1503,-2.1296,-2.0635,-1.974,-1.9446,-1.9265,-1.9178,-1.9178,-1.9239,-1.9372,0.0,0.0,0.0,0.0,0.0,0.0,0.0,0.0,0.0,0.0,0.0,-1.3596,-1.3945,-1.4724,-1.5312,-1.5437,-1.4819,-1.4387,-1.4201,0.0,0.0,0.0,0.0,0.0,0.0,-1.3809,-1.4485,-1.5113,-1.5722,-1.6205,-1.6561,-1.6923,-1.7135,-1.7219,-1.7219,-1.7219,-1.7183,-1.6561,-1.609,-1.5734,-1.5263,-1.4677,-1.4001,0.0,0.0,0.0,0.0,0.0,0.0,0.0,0.0,0.0,0.0,0.0,0.0,0.0,0.0,0.0,0.0,0.0,0.0,0.0,0.0,0.0,0.0,0.0,0.0,0.0,0.0,0.0,0.0,0.0,0.0,0.0,0.0,0.0,0.0,0.0,-1.5317,-1.5528,-1.5192,-1.4937,-1.4942,-1.4817,-1.4794,-1.5033,-1.5284,-1.5582,-1.5941,-1.6447,-1.6908,-1.7288,-1.7887,-1.8541,-1.9185,-1.9796,-2.0316,-2.0752,-2.1036,-2.1275,-2.141,-2.161,-2.1762,-2.171,-2.1904,-2.1984,-2.1984,-2.1984,-2.1523,-2.0795,-2.0501,-2.0394,-2.0394,-2.0394,-2.0394,-2.0434,0.0,0.0,0.0,0.0,0.0,0.0,0.0,0.0,0.0,0.0,-1.3888,-1.4699,-1.5115,-1.5742,-1.6027,-1.5782,-1.5267,-1.474,-1.4284,-1.3476,0.0,0.0,0.0,0.0,-1.39,-1.4461,-1.5119,-1.5891,-1.6163,-1.6567,-1.7092,-1.7098,-1.7237,-1.7485,-1.7485,-1.7485,-1.7467,-1.7213,-1.6819,-1.6336,-1.6051,-1.5607,-1.507,0.0,0.0,0.0,0.0,0.0,0.0,0.0,0.0,0.0,0.0,0.0,0.0,0.0,0.0,0.0,0.0,0.0,0.0,0.0,0.0,0.0,0.0,0.0,0.0,0.0,0.0,0.0,0.0,0.0,0.0,0.0,0.0,0.0,-1.5472,-1.5661,-1.5785,-1.5803,-1.521,-1.4845,-1.4804,-1.4494,-1.4368,-1.4595,-1.4811,-1.5151,-1.5675,-1.6074,-1.6561,-1.7089,-1.78,-1.8502,-1.9084,-1.9687,-2.0343,-2.0981,-2.1254,-2.1588,-2.1984,-2.1997,-2.1997,-2.1997,-2.2004,-2.2011,-2.2011,-2.2011,-2.2011,-2.1984,-2.1748,-2.1635,-2.1635,-2.1635,-2.1635,-2.1675,0.0,0.0,0.0,0.0,0.0,0.0,0.0,0.0,0.0,0.0,-1.4517,-1.5536,-1.6124,-1.661,-1.6957,-1.7154,-1.6116,-1.5415,-1.5288,0.0,0.0,0.0,0.0,0.0,-1.4177,-1.4908,-1.5481,-1.5891,-1.6356,-1.6761,-1.7092,-1.7286,-1.7412,-1.7485,-1.7485,-1.7485,-1.7479,-1.7406,-1.7422,-1.7489,-1.6741,-1.6436,-1.6253,0.0,0.0,0.0,0.0,0.0,0.0,0.0,0.0,0.0,0.0,0.0,0.0,0.0,0.0,0.0,0.0,0.0,0.0,0.0,0.0,0.0,0.0,0.0,0.0,0.0,0.0,0.0,0.0,0.0,0.0,0.0,0.0,-1.6445,-1.6335,-1.6182,-1.6147,-1.627,-1.5704,-1.5354,-1.5513,-1.5237,-1.5054,-1.5115,-1.527,-1.5489,-1.5608,-1.6153,-1.6594,-1.7033,-1.786,-1.8581,-1.9042,-1.9897,-2.0362,-2.0561,-2.1153,-2.1456,-2.1595,-2.2071,-2.2298,-2.2311,-2.2532,-2.2619,-2.2619,-2.2619,-2.2619,-2.2572,-2.2064,-2.1864,-2.1864,-2.1864,-2.1864,-2.1877,0.0,0.0,0.0,0.0,0.0,0.0,0.0,0.0,0.0,0.0,-1.5094,-1.6133,-1.6885,-1.7181,-1.7394,-1.7497,-1.6404,-1.5653,-1.5483,0.0,0.0,0.0,0.0,-1.4298,-1.4793,-1.5366,-1.5849,-1.6229,-1.6658,-1.6996,-1.7255,-1.7412,-1.7485,-1.7485,-1.7485,-1.7485,-1.7485,-1.7485,-1.7692,-1.7963,-1.7456,-1.7216,-1.7108,-1.6752,-1.6262,-1.5709,-1.5295,-1.4975,-1.4702,-1.4417,0.0,0.0,0.0,0.0,0.0,0.0,0.0,0.0,0.0,0.0,0.0,0.0,0.0,0.0,0.0,0.0,0.0,0.0,0.0,0.0,0.0,0.0,0.0,0.0,-1.6516,-1.6733,-1.6956,-1.6632,-1.6316,-1.6272,-1.5762,-1.5385,-1.5411,-1.5142,-1.5008,-1.5008,-1.5209,-1.5332,-1.5332,-1.5999,-1.6514,-1.67,-1.773,-1.8521,-1.8919,-1.971,-2.0246,-2.0575,-2.1225,-2.1613,-2.1821,-2.2323,-2.2605,-2.2612,-2.2786,-2.2928,-2.2928,-2.2928,-2.2928,-2.2901,0.0,0.0,0.0,0.0,-2.2352,-2.2352,0.0,0.0,0.0,0.0,0.0,0.0,0.0,0.0,0.0,0.0,0.0,-1.6498,-1.7255,-1.7426,-1.7432,-1.7214,-1.6238,-1.5453,0.0,0.0,0.0,-1.431,-1.4358,-1.4751,-1.5523,-1.5801,-1.6199,-1.6748,-1.6978,-1.7225,-1.7485,-1.7485,-1.7485,-1.7485,-1.7485,-1.7485,-1.7485,-1.7485,-1.7667,-1.8006,-1.8045,-1.7916,-1.7676,-1.7695,-1.7341,-1.682,-1.6526,-1.6245,-1.6019,-1.5737,0.0,0.0,0.0,0.0,0.0,0.0,0.0,0.0,0.0,0.0,0.0,0.0,0.0,0.0,0.0,0.0,0.0,0.0,0.0,0.0,0.0,0.0,0.0,0.0,-1.6869,-1.684,-1.7273,-1.6866,-1.6384,-1.5994,-1.5587,-1.5165,-1.4823,-1.468,-1.4538,-1.4538,-1.4702,-1.4875,-1.4903,0.0,0.0,0.0,0.0,-1.8379,-1.8777,-1.9442,-2.0048,-2.0724,-2.1439,-2.1897,-2.2242,-2.2654,-2.2859,-2.2928,-2.2928,-2.2928,-2.2928,-2.2928,-2.2928,-2.2928,-2.2928,-2.2928,-2.2928,-2.2928,-2.2928,-2.2928,0.0,0.0,0.0,0.0,0.0,0.0,0.0,0.0,0.0,-1.4122,-1.538,-1.6348,-1.6798,-1.7063,-1.7171,-1.7127,-1.5995,-1.4961,0.0,0.0,-1.4022,-1.4274,-1.4721,-1.5221,-1.5801,-1.6085,-1.6489,-1.7014,-1.7062,-1.7225,-1.7485,-1.7485,-1.7485,-1.7485,-1.7485,-1.7485,-1.7485,-1.7485,-1.7667,-1.8025,-1.8248,-1.8269,-1.8226,-1.8287,-1.8096,-1.7696,-1.7435,-1.7181,-1.6883,-1.659,-1.6094,-1.5605,-1.5367,0.0,0.0,0.0,0.0,0.0,0.0,0.0,0.0,0.0,0.0,0.0,0.0,0.0,0.0,0.0,0.0,0.0,0.0,0.0,0.0,-1.7376,-1.7319,-1.7196,-1.7028,-1.6758,-1.6531,-1.6448,-1.5671,-1.5071,-1.4928,-1.4586,-1.4349,-1.4088,-1.4315,-1.4547,-1.4712,-1.549,-1.6055,-1.6503,-1.7538,-1.8282,-1.8629,-1.9565,-2.0108,-2.0247,-2.0981,0.0,-2.1904,-2.2242,-2.2585,-2.2928,-2.2928,-2.2928,-2.2928,-2.2928,-2.2928,-2.2928,-2.2928,-2.2928,-2.2928,-2.2928,-2.2928,-2.2928,0.0,0.0,0.0,0.0,0.0,0.0,0.0,0.0,0.0,0.0,-1.4768,-1.5588,-1.6,-1.6232,-1.6282,-1.6064,-1.5042,0.0,0.0,-1.4022,-1.4243,-1.4672,-1.5089,-1.5547,-1.6072,-1.6362,-1.67,-1.7092,-1.7219,-1.7358,-1.7485,-1.7485,-1.7485,-1.7485,-1.7485,-1.7485,-1.7485,-1.7485,-1.7602,-1.7784,-1.8077,-1.8198,-1.821,-1.8589,-1.8424,-1.7955,-1.7862,-1.7622,-1.7393,-1.7194,-1.6897,-1.653,-1.6384,-1.5838,-1.5166,0.0,0.0,0.0,0.0,0.0,0.0,0.0,0.0,0.0,0.0,0.0,0.0,0.0,0.0,-1.6847,0.0,0.0,-1.7457,-1.7856,-1.7471,-1.7092,-1.6982,-1.6501,-1.6086,-1.6086,-1.548,-1.4883,-1.466,-1.4338,-1.4071,-1.394,-1.4301,-1.4604,-1.4709,-1.5576,-1.6352,-1.6798,-1.7569,-1.825,-1.881,-1.9484,-1.9895,-2.0116,-2.0867,-2.1421,-2.1835,-2.2173,-2.2516,-2.2928,-2.2928,-2.2928,-2.2928,-2.2928,-2.2928,-2.2928,-2.2928,-2.2928,-2.2928,-2.2928,-2.2928,-2.2928,0.0,0.0,0.0,0.0,0.0,0.0,0.0,0.0,0.0,0.0,-1.4066,-1.4651,-1.5069,-1.5165,-1.5033,0.0,0.0,0.0,0.0,-1.4099,-1.4411,-1.5071,-1.536,-1.5741,-1.6266,-1.6501,-1.6773,-1.7092,-1.7304,-1.7436,-1.7485,-1.7485,-1.7485,-1.7485,-1.7485,-1.7485,-1.7485,-1.7485,-1.7485,-1.7537,-1.7787,-1.7929,-1.8059,-1.8575,-1.8475,-1.8103,-1.8009,-1.7883,-1.7662,-1.7602,-1.7481,-1.7266,-1.7152,-1.6573,-1.5912,-1.5444,-1.481,0.0,0.0,0.0,0.0,0.0,0.0,0.0,0.0,0.0,-1.6687,-1.6921,-1.7201,-1.7575,-1.8062,-1.7851,-1.7792,-1.8409,-1.7655,-1.7014,-1.7085,-1.6308,-1.5642,-1.5583,-1.5091,-1.467,-1.4338,-1.401,-1.3765,-1.3734,-1.4285,-1.4616,-1.4693,-1.5751,-1.6505,-1.6956,-1.7487,-1.8077,-1.8778,-1.9262,-1.968,-2.004,-2.0798,-2.1421,-2.1835,-2.2173,-2.2516,-2.2928,-2.2928,-2.2928,-2.2928,-2.2928,-2.2928,-2.2928,-2.2928,-2.2928,-2.2928,-2.2928,-2.2928,-2.2928,0.0,0.0,0.0,0.0,0.0,0.0,0.0,0.0,0.0,0.0,0.0,0.0,0.0,0.0,0.0,0.0,0.0,0.0,-1.3542,-1.3805,-1.4268,-1.5071,-1.536,-1.5741,-1.6266,-1.6314,-1.6579,-1.7092,-1.7123,-1.7255,-1.7485,-1.7485,-1.7485,-1.7485,-1.7485,-1.7485,-1.7485,-1.7485,-1.7485,-1.7519,-1.763,-1.7805,-1.8039,-1.8121,-1.8324,-1.8404,-1.8089,-1.7969,-1.7902,-1.7675,-1.7562,-1.7442,-1.6921,-1.6687,-1.6393,-1.537,0.0,-1.4847,-1.4502,-1.4803,-1.5277,-1.5598,-1.6126,-1.6627,0.0,0.0,-1.7802,-1.7836,-1.8136,-1.8437,-1.8764,-1.8342,-1.8141,-1.8695,-1.7937,-1.7224,-1.7107,-1.6444,-1.5809,-1.5559,-1.4922,-1.4338,-1.4006,-1.3621,-1.3364,-1.3185,-1.3826,-1.4395,-1.4739,-1.5561,-1.6221,-1.669,-1.7152,-1.7585,-1.8002,-1.9052,-1.9611,-1.968,-2.0729,-2.1421,-2.1835,-2.2173,-2.2516,-2.2928,-2.2928,-2.2928,-2.2928,-2.2928,-2.2928,-2.2928,-2.2928,-2.2928,-2.2928,-2.2928,-2.2928,-2.2928,0.0,0.0,0.0,0.0,0.0,0.0,0.0,0.0,0.0,0.0,0.0,0.0,0.0,0.0,0.0,0.0,0.0,0.0,-1.32,-1.3515,-1.4039,-1.4841,-1.5276,-1.5741,-1.6266,-1.6278,-1.6471,-1.6863,-1.6863,-1.6917,-1.7032,-1.7183,-1.7255,-1.7261,-1.7412,-1.74,-1.7255,-1.7255,-1.7165,-1.702,-1.7076,-1.7216,-1.7437,-1.7309,-1.737,-1.7482,-1.7695,-1.7555,0.0,0.0,-1.7074,-1.7027,-1.678,-1.6473,-1.6066,-1.5411,-1.4977,0.0,-1.497,-1.5331,-1.5805,-1.644,-1.6907,-1.7295,-1.7602,-1.8003,-1.835,-1.8468,-1.8657,-1.8831,-1.9125,-1.8654,-1.8377,0.0,-1.7985,-1.7258,-1.7113,-1.6465,-1.5909,-1.5528,-1.467,-1.4076,-1.394,-1.3522,-1.3219,-1.3088,-1.3768,-1.4375,-1.4814,-1.542,-1.615,-1.7017,-1.7233,-1.7731,-1.8498,-1.9262,-1.9686,-1.9901,-2.0798,-2.1421,-2.1835,-2.2173,-2.2516,-2.2928,-2.2928,-2.2928,-2.2928,-2.2928,-2.2928,-2.2928,-2.2928,-2.2928,-2.2928,-2.2928,-2.2928,-2.2928,0.0,0.0,0.0,0.0,0.0,0.0,0.0,0.0,0.0,0.0,0.0,0.0,0.0,0.0,0.0,0.0,0.0,0.0,0.0,-1.3155,-1.3767,-1.4564,-1.504,-1.5493,-1.5946,-1.6024,-1.6199,-1.6477,-1.6555,-1.6628,-1.6706,-1.6893,-1.6984,-1.699,-1.7183,-1.7159,-1.6984,-1.6984,-1.6875,-1.6688,-1.6537,-1.6685,-1.6949,-1.6506,-1.6393,-1.6533,-1.7041,-1.6894,0.0,0.0,-1.6466,-1.6453,-1.6373,-1.6052,-1.5638,-1.5264,-1.491,-1.477,-1.5357,-1.5845,-1.6366,-1.7139,-1.7668,-1.8009,-1.8182,-1.8517,-1.8791,-1.9005,-1.9045,-1.9112,-1.9383,-1.8946,-1.8628,-1.8784,-1.804,-1.7364,-1.7107,-1.6477,-1.5903,-1.5523,-1.4604,-1.401,-1.394,-1.3386,-1.3116,-1.3165,-1.394,-1.4496,-1.4833,-1.5459,-1.6174,-1.7092,-1.7238,-1.7801,-1.8848,-1.9337,-1.9825,-2.0255,-2.1006,-2.1559,-2.1973,-2.231,-2.2654,-2.2928,-2.2928,-2.2928,-2.2928,-2.2928,-2.2928,-2.2928,-2.2928,-2.2928,-2.2928,-2.2928,-2.2928,-2.2928,0.0,0.0,0.0,0.0,0.0,0.0,0.0,0.0,0.0,0.0,0.0,0.0,0.0,0.0,0.0,0.0,0.0,0.0,0.0,-1.265,-1.3483,-1.4274,-1.4588,-1.4865,-1.5137,-1.539,-1.565,-1.5916,-1.6187,-1.6453,-1.67,-1.6706,-1.6712,-1.6712,-1.6718,-1.6718,-1.6712,-1.6712,-1.6706,-1.6652,-1.6127,-1.6223,-1.6654,-1.584,-1.5641,-1.5844,-1.6206,0.0,0.0,0.0,-1.5804,-1.5758,-1.5524,-1.5424,0.0,-1.4716,-1.4736,0.0,0.0,0.0,-1.7239,-1.7548,-1.823,-1.8885,-1.8891,-1.9125,-1.9339,-1.9352,-1.9352,-1.9417,-1.9424,-1.912,-1.8855,-1.8784,-1.8237,-1.7633,-1.7143,-1.6525,-1.5918,-1.5574,-1.487,-1.4272,0.0,-1.3386,-1.3169,-1.3352,-1.4228,-1.4837,-1.4959,-1.5753,-1.632,-1.6729,-1.7092,-1.7661,-1.8433,-1.9198,-1.9965,-2.0665,-2.1421,-2.1973,-2.231,-2.2722,-2.2859,-2.2928,-2.2928,-2.2928,-2.2928,-2.2928,-2.2928,-2.2928,-2.2928,-2.2928,-2.2928,-2.2928,-2.2928,-2.2928,0.0,0.0,0.0,0.0,0.0,0.0,0.0,0.0,0.0,0.0,0.0,0.0,0.0,0.0,0.0,0.0,0.0,0.0,0.0,-1.1974,-1.2638,-1.3483,-1.3942,-1.4304,-1.4564,-1.4835,-1.5022,-1.5113,-1.5378,-1.5559,-1.565,-1.5825,-1.5994,-1.6169,-1.6344,-1.6326,-1.6163,-1.6163,-1.5958,-1.5626,-1.5445,-1.5571,-1.584,-1.5143,-1.4929,-1.4879,0.0,0.0,0.0,0.0,0.0,0.0,-1.4783,0.0,0.0,-1.4522,0.0,0.0,0.0,0.0,-1.7602,-1.8303,-1.8698,-1.8978,-1.9172,-1.9299,-1.9312,-1.9112,-1.9072,-1.9011,-1.8824,-1.8546,-1.8292,-1.8295,-1.7843,-1.7369,-1.7047,-1.664,-1.6239,-1.5623,-1.5046,0.0,0.0,0.0,0.0,-1.3711,-1.4278,-1.4836,-1.5394,-1.5895,-1.6461,-1.7092,-1.7731,-1.8428,-1.9198,-1.9965,-2.059,-2.1006,-2.1766,-2.231,-2.2722,-2.2859,-2.2928,-2.2928,-2.2928,-2.2928,-2.2928,-2.2928,-2.2928,-2.2928,-2.2928,-2.2928,-2.2928,-2.2928,-2.2928,-2.2928,0.0,0.0,0.0,0.0,0.0,0.0,0.0,0.0,0.0,0.0,0.0,0.0,0.0,0.0,0.0,0.0,0.0,0.0,0.0,0.0,-1.191,-1.262,-1.3103,-1.3459,-1.3719,-1.4093,-1.4286,-1.4286,-1.4642,-1.4817,-1.4823,-1.5095,-1.5312,-1.5481,-1.5741,-1.5716,-1.5469,-1.5469,-1.5221,-1.4811,-1.4714,-1.4814,-1.4988,-1.4376,-1.4125,0.0,0.0,0.0,0.0,0.0,0.0,0.0,0.0,0.0,0.0,0.0,0.0,0.0,0.0,-1.7375,-1.7936,-1.8724,-1.9005,-1.9132,-1.9325,-1.9285,-1.9152,-1.8965,-1.8758,-1.8551,-1.837,-1.8159,-1.7936,-1.7733,-1.7621,-1.7424,-1.6856,-1.6719,-1.6371,-1.5699,-1.5326,-1.4936,0.0,0.0,0.0,-1.4122,-1.4614,-1.5186,-1.5749,-1.6174,-1.6815,-1.7661,-1.8153,-1.8924,-1.9965,-2.0457,-2.1006,-2.1622,-2.2242,-2.2654,-2.2928,-2.2928,-2.2928,-2.2928,-2.2928,-2.2928,-2.2928,-2.2928,-2.2928,-2.2859,-2.2722,-2.2722,-2.2654,-2.2523,-2.2516,-2.2516,0.0,0.0,0.0,0.0,0.0,0.0,0.0,0.0,0.0,0.0,0.0,0.0,0.0,0.0,0.0,0.0,0.0,0.0,0.0,0.0,0.0,-1.1836,-1.2113,-1.2373,-1.2638,-1.3163,-1.3441,-1.3453,-1.3966,-1.4214,-1.422,-1.4491,-1.463,-1.4666,-1.4914,-1.489,-1.4654,-1.4654,-1.4485,-1.4195,-1.3948,-1.3958,-1.4059,-1.3544,0.0,0.0,0.0,0.0,0.0,0.0,0.0,0.0,0.0,0.0,0.0,0.0,0.0,-1.6166,-1.7295,-1.7842,-1.8175,-1.8804,-1.9158,-1.9424,-1.941,-1.9118,-1.8891,-1.8865,-1.8328,-1.7922,0.0,0.0,-1.7754,-1.7197,-1.7552,-1.7607,-1.6656,-1.6657,-1.6439,0.0,0.0,0.0,0.0,0.0,0.0,-1.4591,0.0,-1.582,-1.6178,-1.6598,-1.7298,-1.8363,-1.8503,-1.9203,-2.0665,-2.0735,-2.1283,-2.231,-2.2722,-2.2928,-2.2928,-2.2928,-2.2928,-2.2928,-2.2928,-2.2859,-2.2859,-2.2859,-2.2859,-2.2791,-2.2448,-2.2242,-2.2242,-2.1904,-2.1766,-2.1904,0.0,0.0,0.0,0.0,0.0,0.0,0.0,0.0,0.0,0.0,0.0,0.0,0.0,0.0,0.0,0.0,0.0,0.0,0.0,0.0,0.0,0.0,0.0,0.0,0.0,0.0,0.0,0.0,0.0,-1.3109,-1.3109,-1.3188,-1.3435,-1.3821,-1.3894,-1.3888,-1.3821,-1.3821,-1.3544,-1.3103,0.0,-1.2991,-1.2912,0.0,0.0,0.0,0.0,0.0,0.0,0.0,0.0,0.0,0.0,-1.4676,-1.5491,0.0,0.0,-1.7255,-1.7782,-1.8255,-1.8791,-1.9158,-1.9312,-1.9305,-1.9085,-1.8811,-1.847,-1.8016,-1.7455,-1.7048,0.0,0.0,0.0,-1.7067,-1.721,0.0,-1.6944,-1.7037,0.0,-1.582,0.0,-1.5583,-1.4866,-1.503,0.0,0.0,-1.5938,-1.6174,-1.6523,-1.7444,-1.8082,-1.8363,-1.9483,-2.0318,-2.0665,-2.149,-2.2173,-2.2722,-2.2866,-2.2928,-2.2928,-2.2928,-2.2928,-2.2928,-2.2928,-2.2722,-2.2448,-2.2448,-2.231,-2.2042,-2.1973,-2.1904,-2.1904,-2.1835,-2.1766,-2.1835,0.0,0.0,0.0,0.0,0.0,0.0,0.0,0.0,0.0,0.0,0.0,0.0,0.0,0.0,0.0,0.0,0.0,0.0,0.0,0.0,0.0,0.0,0.0,0.0,0.0,0.0,0.0,0.0,0.0,0.0,0.0,-1.2306,-1.2584,-1.2994,-1.3109,-1.3097,-1.2982,0.0,0.0,0.0,0.0,0.0,0.0,0.0,0.0,0.0,0.0,0.0,0.0,0.0,0.0,-1.3955,-1.4636,-1.5304,-1.5884,-1.6446,0.0,-1.7702,-1.8277,-1.8615,-1.8991,-1.9292,-1.9265,-1.9092,-1.8804,-1.8303,-1.7769,-1.7295,-1.6627,0.0,-1.6132,-1.6099,0.0,0.0,0.0,0.0,-1.6833,-1.6908,-1.6619,0.0,-1.5742,0.0,-1.4992,-1.5049,-1.5414,0.0,-1.6151,-1.6641,-1.7364,-1.8077,-1.8643,-1.9133,-2.0179,-2.0943,-2.1421,-2.2173,-2.2654,-2.2928,-2.2928,-2.2928,-2.2928,-2.2928,-2.2791,-2.2654,-2.2654,-2.2448,-2.2104,-2.2104,-2.1904,-2.149,-2.1352,-2.1214,-2.1012,-2.0867,-2.0861,-2.0861,0.0,0.0,0.0,0.0,0.0,0.0,0.0,0.0,0.0,0.0,0.0,0.0,0.0,0.0,0.0,0.0,0.0,0.0,0.0,0.0,0.0,0.0,0.0,0.0,0.0,0.0,0.0,0.0,0.0,0.0,0.0,0.0,0.0,0.0,0.0,0.0,0.0,0.0,0.0,0.0,0.0,0.0,0.0,0.0,0.0,0.0,0.0,0.0,0.0,0.0,-1.3895,-1.4396,-1.5484,-1.5912,-1.6213,-1.7275,-1.7642,-1.7883,-1.8704,-1.8951,-1.9045,-1.9305,-1.9145,-1.8838,-1.8504,-1.7736,-1.7032,-1.6607,0.0,-1.5224,-1.5224,-1.5431,-1.5631,-1.5822,0.0,-1.6618,-1.6673,-1.6547,-1.6291,-1.5767,-1.5673,-1.5401,-1.4939,-1.5007,-1.5338,-1.5842,-1.6289,-1.7025,-1.8304,-1.8487,-1.9133,-2.0318,-2.0735,-2.1352,-2.2379,-2.2722,-2.2928,-2.2928,-2.2928,-2.2859,-2.2797,-2.2797,-2.2585,-2.2242,-2.2173,-2.1966,-2.1628,-2.1628,-2.1352,-2.0937,-2.0596,-2.0249,-1.9901,-1.9547,-1.9471,-1.9471,0.0,0.0,0.0,0.0,0.0,0.0,0.0,0.0,0.0,0.0,-0.8469,-0.8639,0.0,0.0,0.0,0.0,0.0,0.0,0.0,0.0,0.0,0.0,0.0,0.0,0.0,0.0,0.0,0.0,0.0,0.0,0.0,0.0,0.0,0.0,0.0,0.0,0.0,0.0,0.0,0.0,0.0,0.0,0.0,0.0,0.0,0.0,0.0,0.0,0.0,0.0,-1.4162,-1.4975,-1.5611,-1.6333,-1.7058,-1.7448,-1.7936,-1.8424,-1.8818,-1.9105,-1.9305,-1.9417,-1.9145,-1.8784,-1.8189,-1.7428,0.0,0.0,-1.4923,-1.4315,-1.4315,-1.4355,-1.4643,-1.5378,-1.5748,-1.6219,-1.6913,-1.6722,-1.6349,0.0,-1.5706,-1.5342,-1.4681,-1.4805,0.0,0.0,-1.6747,-1.7397,-1.8121,-1.8946,-2.0028,-2.149,-2.1829,-2.2242,-2.2791,-2.2859,-2.2928,-2.2928,-2.2928,-2.2722,-2.2379,-2.2379,-2.2242,-2.1904,-2.1553,-2.1214,-2.0873,-2.0527,-2.0173,-1.982,-1.9477,-1.9267,-1.9128,-1.8762,-1.8622,-1.8622,0.0,0.0,0.0,0.0,0.0,0.0,0.0,-0.8207,-0.8387,-0.8686,-0.881,-0.8869,-0.8857,-0.8884,0.0,0.0,0.0,0.0,0.0,0.0,0.0,0.0,0.0,0.0,0.0,0.0,0.0,0.0,0.0,0.0,0.0,0.0,0.0,0.0,0.0,0.0,0.0,0.0,0.0,0.0,0.0,0.0,0.0,0.0,0.0,0.0,0.0,0.0,0.0,0.0,-1.4128,-1.489,-1.5778,-1.6453,-1.7034,-1.7642,-1.8143,-1.8557,-1.8844,-1.9138,-1.939,-1.9172,-1.8791,-1.8257,-1.7463,0.0,0.0,0.0,-1.405,-1.3481,-1.3601,-1.3627,0.0,-1.4796,-1.5084,-1.5549,-1.6537,-1.6275,0.0,-1.5943,-1.5585,-1.52,0.0,-1.4783,-1.512,-1.6055,-1.6542,-1.7286,-1.86,-1.9819,-2.0861,-2.1766,-2.2104,-2.2516,-2.2928,-2.2928,-2.2791,-2.2585,-2.2585,-2.2379,-2.2035,-2.1829,-2.1553,-2.122,-2.0804,-2.0312,-1.9831,-1.9622,-1.9198,-1.8703,-1.8493,-1.8288,-1.8077,-1.7931,-1.7861,-1.7861,0.0,0.0,0.0,0.0,0.0,0.0,0.0,-0.8339,-0.8566,-0.9035,-0.9149,-0.9107,-0.8903,-0.9065,-0.9185,0.0,0.0,0.0,0.0,0.0,0.0,0.0,0.0,0.0,0.0,0.0,0.0,0.0,0.0,0.0,0.0,0.0,0.0,0.0,0.0,0.0,0.0,0.0,0.0,0.0,0.0,0.0,0.0,0.0,0.0,0.0,0.0,0.0,0.0,0.0,-1.3746,-1.4516,-1.5565,-1.6226,-1.6787,-1.7689,-1.8116,-1.8377,-1.8731,-1.8998,-1.9125,-1.8891,-1.837,-1.7709,-1.6894,-1.5805,0.0,-1.4048,-1.3273,-1.2723,-1.2806,-1.2933,-1.328,0.0,-1.4353,-1.4889,-1.5942,-1.5666,-1.5422,0.0,-1.5285,0.0,-1.5018,-1.4792,0.0,-1.5954,-1.645,-1.7443,-1.9079,-2.0583,-2.149,-2.1766,-2.2242,-2.2585,-2.2928,-2.2791,-2.2585,-2.231,-2.2242,-2.1966,-2.1559,-2.1214,-2.0798,-2.0318,-1.9901,-1.9343,-1.8778,-1.8638,-1.8288,-1.7726,-1.7585,-1.7374,-1.7026,-1.6885,-1.6815,-1.6815,0.0,0.0,0.0,0.0,0.0,0.0,0.0,-0.8518,-0.8776,-0.9059,-0.9318,-0.9468,-0.9444,-0.9462,-0.9474,0.0,0.0,0.0,0.0,0.0,0.0,0.0,0.0,0.0,0.0,0.0,0.0,0.0,0.0,0.0,0.0,0.0,0.0,0.0,0.0,0.0,0.0,0.0,0.0,0.0,0.0,0.0,0.0,0.0,0.0,0.0,0.0,0.0,0.0,0.0,0.0,-1.3793,-1.4482,-1.5431,-1.6486,-1.7368,0.0,0.0,-1.8377,-1.8551,-1.8564,-1.8537,-1.807,-1.7462,-1.6847,0.0,-1.4687,-1.352,-1.2786,-1.2191,-1.1648,-1.2024,-1.2592,-1.3227,0.0,-1.4442,-1.5341,-1.5231,-1.5106,-1.5349,0.0,0.0,-1.4803,-1.4711,-1.4971,-1.5954,-1.7369,-1.8517,-1.9147,-2.079,-2.1766,-2.1766,-2.2448,-2.2859,-2.2928,-2.2516,-2.231,-2.231,-2.1966,-2.149,-2.0804,-2.0735,-2.0173,-1.9128,-1.8714,-1.8363,-1.8002,-1.7585,-1.7449,-1.7308,-1.6603,-1.632,-1.6178,-1.5474,-1.519,-1.519,0.0,0.0,0.0,0.0,0.0,0.0,-0.8249,-0.8536,-0.88,-0.9059,-0.9342,-0.9516,-0.9516,-0.9516,-0.9516,0.0,0.0,0.0,0.0,0.0,0.0,0.0,0.0,0.0,0.0,0.0,0.0,0.0,0.0,0.0,0.0,0.0,0.0,0.0,0.0,0.0,0.0,0.0,0.0,0.0,0.0,0.0,0.0,0.0,0.0,0.0,0.0,0.0,0.0,0.0,0.0,0.0,-1.3706,-1.4266,0.0,0.0,-1.6921,-1.7181,-1.7782,-1.7943,-1.7943,-1.7943,-1.7361,-1.6643,-1.5832,0.0,-1.3881,-1.2872,-1.2191,-1.1668,-1.1435,-1.1617,-1.1971,-1.2565,0.0,0.0,-1.4526,-1.4861,-1.5036,-1.5112,-1.5009,0.0,0.0,0.0,-1.5399,-1.6208,-1.7631,-1.8519,-1.8719,-2.0527,-2.1663,-2.176,-2.2523,-2.2791,-2.2516,-2.2379,-2.1966,-2.1352,-2.122,-2.059,-1.9686,-1.9413,-1.8988,-1.8288,-1.7937,-1.7379,-1.6885,-1.6673,-1.632,-1.59,-1.5616,-1.5474,-1.5474,-1.5119,-1.4977,-1.4977,0.0,0.0,0.0,0.0,0.0,-0.7991,-0.8249,-0.8475,-0.8686,-0.8945,-0.9155,-0.9275,-0.9275,-0.9275,-0.9275,-0.9275,0.0,0.0,0.0,0.0,0.0,0.0,0.0,0.0,0.0,0.0,0.0,0.0,0.0,0.0,0.0,0.0,0.0,0.0,0.0,0.0,0.0,0.0,0.0,0.0,0.0,0.0,0.0,0.0,0.0,0.0,0.0,0.0,0.0,0.0,0.0,0.0,0.0,0.0,0.0,0.0,-1.6032,-1.6339,-1.7014,-1.7128,-1.7088,-1.7174,-1.6583,-1.5752,0.0,0.0,-1.3146,-1.2338,-1.171,-1.1269,-1.1182,-1.1236,-1.149,-1.2078,0.0,-1.3358,-1.3989,-1.4476,-1.4835,0.0,0.0,-1.5129,-1.5198,-1.5407,-1.585,-1.6502,-1.7651,-1.8347,-1.8559,-2.0093,-2.1203,-2.1701,-2.234,-2.2585,-2.231,-2.2104,-2.1559,-2.0665,-2.0457,-1.9825,-1.8778,-1.8433,-1.8007,-1.751,-1.7163,-1.6603,-1.6037,-1.59,-1.5545,-1.4977,-1.4906,-1.4835,-1.4835,-1.4692,-1.4692,-1.4692,0.0,0.0,0.0,0.0,0.0,0.0,0.0,-0.8291,-0.8387,-0.868,-0.8716,-0.8716,-0.8716,-0.8716,-0.8716,-0.8716,0.0,0.0,0.0,0.0,0.0,0.0,0.0,0.0,0.0,0.0,0.0,0.0,0.0,0.0,0.0,0.0,0.0,0.0,0.0,0.0,0.0,0.0,0.0,0.0,0.0,0.0,0.0,0.0,0.0,0.0,0.0,0.0,0.0,0.0,0.0,0.0,0.0,0.0,0.0,0.0,-1.5022,-1.5216,-1.6094,-1.6072,-1.5919,-1.6213,-1.5671,-1.4941,0.0,0.0,-1.263,-1.2033,-1.1403,-1.0909,-1.0653,-1.0841,-1.1189,-1.1812,-1.2391,0.0,-1.4,-1.4161,-1.4496,0.0,0.0,-1.5046,-1.5467,-1.5855,-1.6266,-1.6667,-1.7518,-1.8283,-1.8941,-1.9666,-2.0438,-2.134,-2.1962,-2.231,-2.231,-2.1553,-2.1006,-2.0665,-1.9889,-1.9122,-1.8363,-1.8077,-1.7439,-1.6659,-1.6391,-1.5966,-1.5607,-1.519,-1.4981,-1.4981,-1.4621,-1.4479,-1.4479,-1.4043,-1.39,-1.39,0.0,0.0,0.0,0.0,0.0,0.0,0.0,-0.8177,-0.8321,-0.8405,-0.8596,-0.871,-0.871,-0.871,-0.871,-0.871,0.0,0.0,0.0,0.0,0.0,0.0,0.0,0.0,0.0,0.0,0.0,-0.9516,-0.9644,-0.974,0.0,0.0,0.0,0.0,0.0,0.0,0.0,0.0,0.0,0.0,0.0,0.0,0.0,0.0,0.0,0.0,0.0,0.0,0.0,0.0,0.0,0.0,0.0,0.0,0.0,0.0,0.0,0.0,-1.489,-1.4863,-1.471,-1.5003,-1.4563,-1.3928,-1.346,-1.2898,-1.2254,-1.1464,-1.1122,-1.0935,-1.0646,-1.0827,-1.1122,-1.1503,-1.2274,0.0,0.0,0.0,0.0,-1.5182,-1.5366,-1.5733,0.0,-1.6736,-1.7048,-1.7278,-1.7972,-1.8472,-1.8688,-1.9563,-2.03,-2.0995,-2.1435,-2.1637,-2.1553,-2.1075,-2.0382,-1.9547,-1.8988,-1.8212,-1.7228,-1.688,-1.6457,-1.5957,-1.5541,-1.519,-1.483,-1.4692,-1.4479,-1.4261,-1.4118,-1.4118,-1.4047,-1.3971,-1.39,-1.39,0.0,0.0,0.0,0.0,0.0,0.0,0.0,-0.8039,-0.8141,-0.8141,-0.8285,-0.8409,-0.8409,-0.8409,-0.8409,-0.8409,0.0,0.0,0.0,0.0,0.0,0.0,0.0,0.0,0.0,0.0,-0.9548,-0.9612,-0.974,-0.9862,-0.9989,-1.0276,0.0,0.0,0.0,0.0,0.0,0.0,0.0,0.0,0.0,0.0,-1.0593,0.0,0.0,0.0,0.0,0.0,0.0,0.0,0.0,0.0,0.0,0.0,0.0,0.0,0.0,0.0,0.0,-1.3808,-1.3654,-1.3948,-1.3581,0.0,0.0,-1.2134,-1.1657,-1.1102,-1.0909,-1.0807,-1.0626,-1.0827,-1.1089,-1.1342,-1.2208,-1.306,0.0,0.0,0.0,-1.5834,-1.5999,0.0,-1.706,-1.7213,-1.7427,-1.7639,-1.8238,-1.8635,-1.8764,-1.9358,-1.984,-2.0288,-2.084,-2.1095,-2.0859,-2.0617,-1.9901,-1.8784,-1.8363,-1.7585,-1.6527,-1.6108,-1.5753,-1.5328,-1.4977,-1.4692,0.0,-1.4336,-1.4118,-1.39,-1.39,-1.39,-1.39,-1.39,-1.39,-1.39,0.0,0.0,0.0,0.0,0.0,0.0,0.0,0.0,-0.7901,-0.7901,-0.7901,-0.7901,-0.7901,-0.7901,-0.7901,-0.7901,0.0,0.0,0.0,0.0,0.0,0.0,0.0,0.0,0.0,-0.9342,-0.9582,-0.9773,-0.9824,-0.9989,-1.0339,-1.0523,-1.0688,0.0,0.0,0.0,0.0,0.0,0.0,0.0,0.0,0.0,0.0,0.0,0.0,0.0,0.0,0.0,0.0,0.0,0.0,0.0,0.0,0.0,0.0,0.0,0.0,0.0,0.0,0.0,0.0,0.0,0.0,0.0,0.0,0.0,0.0,-1.0969,-1.0801,-1.0626,-1.0626,-1.0861,-1.1129,-1.1402,-1.2211,-1.3132,0.0,-1.468,0.0,0.0,-1.6913,-1.6899,-1.7489,-1.7484,-1.7543,-1.7907,-1.8398,-1.8828,-1.9136,-1.9136,-1.9187,-1.9428,-2.0209,-2.057,-2.0279,-2.0055,-1.9413,-1.8363,-1.8007,-1.7233,-1.6112,-1.5749,-1.5323,-1.4977,-1.4621,-1.4479,-1.4407,-1.4043,-1.39,-1.39,-1.39,-1.39,-1.39,-1.39,-1.39,-1.39,0.0,0.0,0.0,0.0,0.0,0.0,0.0,0.0,0.0,0.0,-0.7901,-0.7901,-0.7901,-0.7901,-0.7901,0.0,0.0,0.0,0.0,0.0,0.0,0.0,0.0,0.0,0.0,-0.9211,-0.9445,-0.9507,-0.9945,-1.0301,-1.053,-1.0681,-1.0839,-1.1028,-1.1028,0.0,0.0,0.0,0.0,0.0,0.0,0.0,0.0,0.0,0.0,0.0,-1.0593,-1.0593,0.0,0.0,0.0,0.0,0.0,0.0,0.0,0.0,-1.0747,0.0,0.0,0.0,-1.1757,-1.1824,-1.1702,0.0,0.0,0.0,0.0,0.0,0.0,-1.0928,-1.0928,-1.1129,-1.149,-1.2011,-1.2665,-1.3407,-1.4295,-1.5331,0.0,-1.7365,-1.7417,-1.7585,-1.8131,-1.8564,-1.8888,-1.8949,-1.9211,-1.9386,-1.945,-1.9264,-1.9038,-1.8788,-1.9233,-1.9596,-1.9864,-1.9155,-1.8573,-1.8007,-1.7298,-1.6523,-1.5749,-1.5328,-1.4977,-1.4621,-1.4189,-1.4047,-1.4047,-1.3971,-1.39,-1.39,-1.39,-1.39,-1.39,-1.39,-1.39,-1.39,0.0,0.0,0.0,0.0,0.0,0.0,0.0,0.0,0.0,0.0,0.0,0.0,0.0,0.0,0.0,0.0,0.0,0.0,0.0,0.0,0.0,0.0,0.0,0.0,0.0,-0.9142,-0.9462,-0.9627,-1.0158,-1.0523,-1.0713,-1.0926,-1.1013,-1.0965,-1.0911,0.0,0.0,0.0,0.0,0.0,-1.0593,0.0,0.0,0.0,0.0,0.0,-1.0593,-1.0593,0.0,-1.0593,-1.0593,-1.0593,0.0,0.0,0.0,0.0,-1.0593,-1.0626,-1.0787,-1.1009,-1.1229,-1.1229,-1.1229,-1.1189,0.0,0.0,0.0,0.0,0.0,-1.1229,-1.1369,-1.163,-1.2024,-1.2619,-1.322,-1.4015,0.0,0.0,-1.7186,-1.7939,-1.7997,-1.8115,-1.8609,-1.9043,-1.9315,-1.9315,-1.9519,-1.9577,-1.9577,-1.9142,-1.8764,-1.8641,-1.8367,-1.8416,-1.8801,-1.8424,-1.7966,-1.7369,-1.6734,-1.6103,-1.5328,-1.4906,-1.455,-1.4189,-1.3971,-1.39,-1.39,-1.39,-1.39,-1.39,-1.39,-1.39,-1.39,-1.39,-1.39,-1.39,0.0,0.0,0.0,0.0,0.0,0.0,0.0,0.0,0.0,0.0,0.0,0.0,0.0,0.0,0.0,0.0,0.0,0.0,0.0,0.0,0.0,0.0,0.0,0.0,-0.8537,-0.9051,-0.9489,-0.9849,-1.0323,-1.0672,-1.0839,-1.1097,-1.1059,-1.0759,0.0,0.0,0.0,0.0,0.0,0.0,-1.0593,0.0,0.0,0.0,0.0,0.0,0.0,0.0,0.0,-1.0593,-1.0593,-1.0593,-1.0593,0.0,0.0,0.0,0.0,0.0,-1.0593,-1.0807,-1.0995,-1.0995,-1.0995,-1.1002,0.0,0.0,0.0,0.0,0.0,0.0,0.0,-1.2278,0.0,-1.3253,-1.3908,0.0,-1.6321,-1.7114,-1.7822,-1.8477,-1.8539,-1.8638,-1.8972,-1.9309,-1.9456,-1.9501,-1.9607,-1.9705,-1.9705,-1.9014,-1.8571,-1.8442,-1.774,-1.7366,-1.7394,-1.7728,-1.7408,-1.6545,-1.623,-1.5687,-1.4906,-1.4621,-1.4261,-1.39,-1.39,-1.39,-1.39,-1.39,-1.39,-1.39,-1.39,-1.39,-1.39,-1.39,-1.39,-1.39,0.0,0.0,0.0,0.0,0.0,0.0,0.0,0.0,0.0,0.0,0.0,0.0,0.0,0.0,0.0,0.0,0.0,0.0,0.0,0.0,0.0,0.0,0.0,-0.8069,-0.8257,-0.8666,-0.9122,-0.9555,-1.0137,-1.0653,-1.1052,-1.0939,-1.079,-1.0646,0.0,0.0,0.0,0.0,0.0,0.0,0.0,0.0,0.0,0.0,0.0,0.0,0.0,0.0,0.0,-1.0593,-1.0593,-1.0593,-1.0593,0.0,0.0,0.0,0.0,0.0,-1.0593,-1.0807,-1.0995,-1.0995,-1.0995,-1.1056,0.0,0.0,0.0,0.0,0.0,0.0,0.0,-1.3066,-1.3507,0.0,0.0,-1.5985,-1.7208,-1.7502,-1.7896,-1.8758,-1.8835,-1.9017,-1.962,-1.9913,-2.0151,-2.0465,-2.0168,-2.0043,-2.0043,-1.9148,-1.8314,-1.7664,-1.7239,-1.6716,-1.6092,-1.6494,-1.6436,-1.6048,-1.5807,-1.5323,-1.455,-1.455,-1.4261,-1.39,-1.39,-1.39,-1.39,-1.39,-1.39,-1.39,-1.39,-1.39,-1.39,-1.39,-1.39,-1.39,0.0,0.0,0.0,0.0,0.0,0.0,0.0,0.0,0.0,0.0,0.0,0.0,0.0,0.0,0.0,0.0,0.0,0.0,0.0,0.0,0.0,0.0,-0.8062,-0.8135,-0.8295,-0.8703,-0.9132,-0.9599,-1.0212,-1.0697,-1.1083,-1.0809,-1.0668,-1.0594,0.0,0.0,0.0,0.0,0.0,0.0,0.0,0.0,0.0,0.0,0.0,0.0,0.0,0.0,0.0,0.0,-1.0593,-1.0593,-1.0593,0.0,0.0,0.0,0.0,0.0,-1.0787,-1.0928,-1.1102,-1.1583,-1.1583,-1.1543,-1.183,0.0,0.0,0.0,0.0,0.0,0.0,0.0,-1.4272,-1.493,0.0,-1.6967,-1.7508,-1.8003,-1.8457,-1.8871,-1.9205,-1.9506,-1.9773,-2.0207,-2.0466,-2.042,-2.02,-1.9915,-1.959,-1.8752,-1.798,-1.7271,-1.6748,-1.6085,-1.5336,-1.5447,-1.5508,-1.5589,-1.5047,-1.4726,-1.4479,-1.4261,-1.4047,-1.39,-1.39,-1.39,-1.39,-1.39,-1.39,-1.39,-1.39,-1.39,-1.39,-1.39,-1.39,-1.39,0.0,0.0,0.0,0.0,0.0,0.0,0.0,0.0,0.0,0.0,0.0,0.0,0.0,0.0,0.0,0.0,0.0,0.0,0.0,0.0,-0.8035,-0.8195,-0.8268,-0.8348,-0.8448,-0.8747,-0.9179,-0.9715,-1.0196,-1.0611,-1.092,-1.0625,-1.047,-1.0477,0.0,0.0,0.0,-1.059,0.0,0.0,0.0,0.0,0.0,0.0,0.0,0.0,0.0,0.0,0.0,0.0,0.0,0.0,0.0,0.0,0.0,-1.0593,-1.0593,-1.066,-1.0915,-1.1096,-1.1376,-1.2118,0.0,-1.2208,-1.2532,-1.2899,0.0,0.0,0.0,0.0,0.0,-1.4883,0.0,-1.6099,-1.6994,-1.7655,-1.7862,-1.849,-1.8971,-1.9112,-1.9526,-1.9853,-1.9993,-2.0414,-2.0584,-2.0283,-2.0175,-1.9788,-1.9142,-1.8296,-1.7588,-1.6877,-1.6164,-1.5453,-1.48,-1.4501,-1.458,-1.497,-1.4449,-1.4288,-1.4336,-1.4047,-1.39,-1.39,-1.39,-1.39,-1.39,-1.39,-1.39,-1.39,-1.39,-1.39,-1.39,-1.39,-1.39,-1.39,0.0,0.0,0.0,0.0,0.0,0.0,0.0,0.0,0.0,0.0,0.0,0.0,0.0,0.0,0.0,0.0,0.0,0.0,0.0,0.0,-0.8195,-0.8195,-0.8448,-0.8573,-0.8573,-0.8619,-0.8989,-0.9715,-0.9874,-1.009,-1.0357,-1.0211,-1.0141,-1.0121,0.0,0.0,-1.0588,-1.059,-1.0593,0.0,0.0,0.0,0.0,0.0,0.0,0.0,0.0,0.0,0.0,0.0,0.0,0.0,0.0,0.0,-1.0593,-1.0593,-1.0593,-1.066,-1.0915,-1.1424,-1.1919,-1.2218,-1.2529,0.0,-1.3373,-1.3939,0.0,-1.4847,0.0,0.0,0.0,-1.5959,-1.6482,-1.7315,-1.7528,-1.7869,-1.8711,-1.8885,-1.9125,-1.9673,-1.9773,-2.0013,-2.0561,-2.0648,-2.0664,-2.0556,-2.0284,-1.9788,-1.9142,-1.8109,-1.7211,-1.6564,-1.5518,-1.48,-1.4469,-1.3836,-1.3641,-1.401,-1.4111,-1.4077,-1.3971,-1.39,-1.39,-1.39,-1.39,-1.39,-1.39,-1.39,-1.39,-1.39,-1.39,-1.39,-1.39,-1.39,-1.39,-1.39,0.0,0.0,0.0,0.0,0.0,0.0,0.0,0.0,0.0,0.0,0.0,0.0,0.0,0.0,0.0,0.0,0.0,0.0,0.0,0.0,-0.8268,-0.8448,-0.8547,-0.8633,-0.8718,-0.8718,-0.8944,-0.9377,-0.9729,-0.9951,-1.0037,-1.0087,0.0,0.0,0.0,0.0,-1.0736,-1.0634,-1.0593,-1.0593,-1.0593,0.0,0.0,0.0,0.0,0.0,0.0,0.0,0.0,0.0,-1.0593,-1.0593,0.0,0.0,-1.0593,0.0,-1.072,-1.0928,-1.1182,-1.169,-1.2298,-1.2966,-1.3634,0.0,0.0,-1.4643,-1.5197,-1.5678,-1.5913,0.0,0.0,0.0,-1.7255,-1.7769,-1.817,-1.8597,-1.9125,-1.9352,-1.9619,-2.002,-2.0234,-2.0434,-2.0655,-2.0654,-2.0554,-2.0284,-1.9781,-1.92,-1.8425,-1.7653,-1.6877,-1.6234,-1.5323,-1.467,-1.4076,-1.3625,-1.3427,-1.3405,-1.359,-1.3706,-1.3746,-1.3851,-1.39,-1.39,-1.39,-1.39,-1.39,-1.39,-1.39,-1.39,-1.39,-1.39,-1.39,-1.39,-1.39,-1.39,0.0,0.0,0.0,0.0,0.0,0.0,0.0,0.0,0.0,0.0,0.0,0.0,0.0,0.0,0.0,0.0,0.0,0.0,0.0,-0.8268,-0.8401,-0.86,-0.8633,-0.8718,-0.8804,-0.8804,-0.8918,-0.9211,-0.958,-0.9791,-0.9904,0.0,0.0,0.0,0.0,0.0,-1.08,-1.0649,-1.0593,-1.0593,-1.0593,-1.0593,0.0,0.0,0.0,0.0,0.0,0.0,0.0,0.0,-1.0593,0.0,0.0,0.0,0.0,0.0,0.0,-1.1096,-1.157,-1.2138,-1.2806,0.0,0.0,0.0,-1.5331,-1.5658,-1.6092,-1.6587,-1.684,0.0,-1.7554,0.0,0.0,-1.8257,-1.8731,-1.9165,-1.9466,-1.9753,-2.0047,-2.0334,-2.0548,-2.0715,-2.0802,-2.0681,-2.0488,-2.0106,-1.9462,-1.8752,-1.791,-1.7201,-1.6558,-1.5849,-1.4996,-1.4338,-1.3875,-1.3428,-1.3162,-1.3015,-1.3197,-1.3409,-1.3582,-1.3823,-1.39,-1.39,-1.39,-1.39,-1.39,-1.39,-1.39,-1.39,-1.39,-1.39,-1.39,-1.39,-1.39,-1.39,0.0,0.0,0.0,0.0,0.0,0.0,0.0,0.0,0.0,0.0,0.0,0.0,0.0,0.0,0.0,0.0,0.0,0.0,0.0,-0.8448,-0.86,-0.86,-0.8718,-0.8804,-0.8804,-0.8804,-0.8918,-0.9211,-0.9342,-0.9575,-0.9897,-0.9764,0.0,0.0,0.0,0.0,-1.0776,-1.0649,-1.0593,-1.0593,-1.0593,-1.0593,-1.0593,0.0,0.0,0.0,0.0,0.0,0.0,0.0,0.0,0.0,0.0,0.0,0.0,0.0,-1.0995,-1.1196,-1.2071,-1.2752,-1.3427,0.0,0.0,0.0,-1.7005,-1.7206,-1.7286,-1.7528,-1.807,-1.849,-1.8497,-1.8497,0.0,-1.8885,-1.9178,-1.9472,-1.9766,-2.0054,-2.0347,-2.0648,-2.0681,-2.0795,-2.1082,-2.0792,-2.0418,-2.0106,-1.9462,-1.8623,-1.7529,-1.6888,-1.6179,-1.5533,-1.4473,-1.3875,-1.3875,-1.3161,-1.277,-1.2774,-1.3011,-1.3287,-1.3574,-1.3819,-1.39,-1.39,-1.39,-1.39,-1.39,-1.39,-1.39,-1.39,-1.39,-1.39,-1.39,-1.39,-1.39,-1.39,0.0,0.0,0.0,0.0,0.0,0.0,0.0,0.0,0.0,0.0,0.0,0.0,0.0,0.0,0.0,0.0,0.0,0.0,0.0,-0.8547,-0.8633,-0.8745,-0.8778,-0.8804,-0.8804,-0.8804,-0.8851,-0.8911,-0.8965,-0.916,0.0,0.0,0.0,-1.0393,0.0,0.0,-1.0649,-1.0624,-1.0593,-1.0593,-1.0593,-1.0593,-1.0593,0.0,0.0,0.0,0.0,0.0,0.0,0.0,0.0,0.0,0.0,0.0,0.0,-1.0909,-1.1283,-1.1792,-1.2469,-1.3246,0.0,-1.4917,0.0,0.0,0.0,-1.7507,0.0,0.0,-1.8364,-1.8551,-1.8758,-1.8791,0.0,-1.9459,-1.9613,-1.9846,-2.0347,-2.0488,-2.0655,-2.0949,-2.0982,-2.0952,-2.0786,-2.0418,-2.0043,-1.9462,-1.8752,-1.7975,-1.7201,-1.6494,-1.5844,-1.5132,-1.4338,-1.3818,-1.356,-1.3034,-1.277,-1.2774,-1.3011,-1.3218,-1.3457,-1.364,-1.3786,-1.39,-1.39,-1.39,-1.39,-1.39,-1.39,-1.39,-1.39,-1.39,-1.39,-1.39,-1.39,-1.39,0.0,0.0,0.0,0.0,0.0,0.0,0.0,0.0,0.0,0.0,0.0,0.0,0.0,0.0,0.0,0.0,0.0,0.0,0.0,0.0,-0.8718,-0.8804,-0.8804,-0.8864,-0.8951,-0.8951,-0.9038,-0.9152,0.0,0.0,0.0,0.0,-1.0067,-1.0417,0.0,-1.0593,-1.0593,-1.0593,-1.0593,-1.0593,-1.0593,-1.0593,-1.0593,0.0,0.0,0.0,0.0,0.0,0.0,0.0,0.0,0.0,0.0,0.0,0.0,-1.1049,-1.1496,-1.2087,-1.2918,-1.3754,0.0,-1.5671,-1.6486,-1.7275,-1.8103,0.0,0.0,0.0,-1.9098,-1.9239,-1.9412,-1.9446,-1.9559,-1.9913,-2.0067,-2.0274,-2.0628,-2.0775,-2.0915,-2.1089,-2.1109,-2.0982,-2.0609,-2.0164,-1.9654,-1.9142,-1.8168,-1.7394,-1.6818,-1.6169,-1.5453,-1.4735,-1.4207,-1.3752,-1.3371,-1.2972,-1.277,-1.2774,-1.2942,-1.3088,-1.3271,-1.3526,-1.3701,-1.3803,-1.3872,-1.39,-1.39,-1.39,-1.39,-1.39,-1.39,-1.39,-1.39,-1.39,-1.39,-1.39,0.0,0.0,0.0,0.0,0.0,0.0,0.0,0.0,0.0,0.0,-0.7901,0.0,0.0,0.0,0.0,0.0,0.0,0.0,0.0,0.0,-0.8884,-0.8884,-0.8884,-0.8984,-0.9244,-0.9251,-0.9384,-0.9715,0.0,0.0,0.0,0.0,-1.0274,-1.0593,0.0,-1.0593,-1.0593,-1.0593,-1.0593,-1.0593,-1.0593,-1.0593,-1.0593,-1.0593,0.0,0.0,0.0,0.0,0.0,0.0,0.0,0.0,0.0,-1.0593,-1.0707,-1.1256,-1.1657,-1.2208,-1.332,-1.4329,-1.533,-1.6453,-1.7248,0.0,-1.9152,-1.9504,-1.9553,-1.9786,0.0,-2.0173,-2.0173,-2.0173,-2.0241,-2.0267,-2.0501,-2.0688,-2.0715,-2.0942,-2.1109,-2.1109,-2.1046,-2.0919,-2.0609,-1.9966,-1.9386,-1.9008,-1.7781,-1.6812,-1.6499,-1.5789,-1.5132,-1.4403,-1.401,-1.3687,-1.3371,-1.2972,-1.277,-1.277,-1.277,-1.2917,-1.3084,-1.3453,-1.3566,-1.3606,-1.3831,-1.39,-1.39,-1.39,-1.39,-1.39,-1.39,-1.39,-1.39,-1.39,-1.39,-1.39,0.0,0.0,0.0,0.0,0.0,0.0,0.0,0.0,0.0,0.0,0.0,0.0,0.0,0.0,0.0,0.0,0.0,0.0,0.0,0.0,-0.9492,-0.9492,-0.9492,-0.9526,-0.9586,-0.9586,-0.9619,0.0,0.0,0.0,0.0,0.0,0.0,-1.0593,0.0,-1.0593,-1.0593,-1.0593,-1.0593,-1.0593,-1.0593,-1.0593,-1.0593,-1.0593,-1.0593,0.0,0.0,0.0,0.0,0.0,0.0,0.0,-1.0593,-1.0593,-1.0707,-1.1256,-1.1797,-1.2472,-1.3667,-1.4629,0.0,-1.6811,-1.8084,-1.9112,-1.9599,-2.0067,-2.0347,-2.0174,-2.0187,-2.0173,-2.0173,-2.0173,-2.0307,-2.0541,-2.0635,-2.0755,-2.0982,-2.1069,-2.1109,-2.1109,-2.0856,-2.0609,-2.0234,-1.959,-1.8938,-1.8296,-1.7453,-1.6748,-1.6169,-1.5388,-1.4735,-1.4006,-1.3687,-1.3301,-1.2906,-1.2836,-1.277,-1.277,-1.277,-1.279,-1.2905,-1.3267,-1.3583,-1.3847,-1.3884,-1.39,-1.39,-1.39,-1.39,-1.39,-1.39,-1.39,-1.39,-1.39,-1.39,-1.39,0.0,0.0,0.0,0.0,0.0,0.0,0.0,0.0,0.0,0.0,0.0,0.0,0.0,0.0,0.0,0.0,0.0,0.0,0.0,0.0,0.0,0.0,-0.982,-0.9886,-0.9886,-0.9886,0.0,0.0,0.0,0.0,0.0,0.0,0.0,-1.0593,0.0,-1.0593,-1.0593,-1.0593,-1.0593,-1.0593,-1.0593,-1.0593,-1.0593,-1.0593,-1.0593,-1.0593,-1.0593,0.0,0.0,0.0,0.0,0.0,0.0,0.0,-1.0707,-1.1256,-1.1844,0.0,0.0,0.0,0.0,-1.7428,0.0,-1.9653,-1.994,-2.0354,-2.0675,-2.0655,-2.0655,-2.0655,-2.0655,-2.0655,-2.0702,-2.0862,-2.0882,-2.0935,-2.1089,-2.1109,-2.1109,-2.1109,-2.0799,-2.0482,-2.0106,-1.934,-1.8565,-1.7852,-1.7007,-1.6229,-1.5518,-1.4931,-1.4342,-1.3687,-1.3498,-1.3235,-1.277,-1.277,-1.277,-1.277,-1.277,-1.2881,-1.297,-1.3246,-1.3518,-1.3782,-1.3863,-1.39,-1.39,-1.39,-1.39,-1.39,-1.39,-1.39,-1.39,-1.39,-1.39,-1.39,0.0,0.0,0.0,0.0,0.0,0.0,0.0,0.0,0.0,0.0,0.0,0.0,0.0,0.0,0.0,0.0,0.0,0.0,0.0,0.0,0.0,0.0,-1.0067,-1.0194,-1.0194,0.0,0.0,0.0,0.0,0.0,0.0,0.0,0.0,-1.0593,0.0,-1.0593,-1.0593,-1.0593,-1.0593,-1.0593,-1.0593,-1.0593,-1.06,-1.0646,-1.0633,-1.06,-1.0646,-1.0633,-1.0593,-1.0593,0.0,0.0,0.0,0.0,-1.0707,-1.1256,-1.1804,0.0,0.0,0.0,-1.6373,-1.8003,-1.9078,0.0,-2.0154,-2.0461,-2.0762,-2.1049,-2.1109,-2.1109,-2.1109,-2.1109,-2.1109,-2.1109,-2.1109,-2.1109,-2.1109,-2.1109,-2.1109,-2.1109,-2.0736,-2.0418,-2.0106,-1.9142,-1.8249,-1.7535,-1.6558,-1.5649,-1.4931,-1.4534,-1.4015,-1.3433,-1.3301,-1.3169,-1.277,-1.277,-1.277,-1.277,-1.277,-1.2913,-1.3055,-1.3238,-1.3441,-1.3582,-1.3794,-1.3872,-1.39,-1.39,-1.39,-1.39,-1.39,-1.39,-1.39,-1.39,-1.39,-1.39,0.0,0.0,0.0,0.0,0.0,0.0,0.0,0.0,0.0,0.0,0.0,0.0,0.0,0.0,0.0,0.0,0.0,0.0,0.0,0.0,0.0,0.0,-1.0512,-1.0533,-1.0533,-1.0533,0.0,0.0,0.0,0.0,0.0,0.0,0.0,-1.0593,0.0,0.0,-1.0593,-1.0593,-1.0593,-1.0593,-1.0593,-1.0593,-1.062,-1.0868,-1.0814,-1.0626,-1.0842,-1.0807,-1.0593,-1.0593,-1.0593,0.0,0.0,0.0,-1.0707,-1.1256,-1.1663,0.0,0.0,0.0,-1.6834,0.0,-1.8771,-1.9566,0.0,0.0,-2.0762,0.0,-2.1109,-2.1109,-2.1109,-2.1109,-2.1109,-2.1109,-2.1109,-2.1109,-2.1109,-2.1109,-2.1109,-2.1109,-2.0545,-2.017,-2.0106,-1.888,-1.7916,-1.7535,-1.6558,-1.5649,-1.4931,-1.4338,-1.3818,-1.3437,-1.3038,-1.2836,-1.277,-1.277,-1.277,-1.277,-1.277,-1.2782,-1.2877,-1.3051,-1.3319,-1.3574,-1.3598,-1.3766,-1.39,-1.39,-1.39,-1.39,-1.39,-1.39,-1.39,-1.39,-1.39,-1.39,0.0,0.0,0.0,0.0,0.0,0.0,0.0,0.0,0.0,0.0,0.0,0.0,0.0,0.0,0.0,0.0,0.0,0.0,0.0,0.0,0.0,-1.0593,-1.0593,-1.0593,-1.0593,0.0,0.0,0.0,0.0,0.0,0.0,-1.0593,-1.0593,0.0,0.0,0.0,0.0,0.0,-1.0593,-1.0606,-1.0767,-1.0834,-1.0835,-1.1129,-1.1156,-1.1062,-1.1189,-1.1156,-1.1022,-1.0855,-1.0834,-1.0807,-1.064,0.0,0.0,0.0,0.0,0.0,-1.368,-1.5271,-1.664,0.0,-1.8337,-1.9232,-1.9653,-2.0234,-2.0715,-2.0842,-2.0995,-2.1109,-2.1109,-2.1109,-2.1109,-2.1109,-2.1109,-2.1109,-2.1109,-2.1109,-2.1109,-2.1109,-2.0482,-2.0043,-1.9839,-1.8746,-1.7717,-1.7017,-1.6364,-1.5513,-1.4403,-1.4076,-1.3617,-1.3104,-1.2902,-1.277,-1.277,-1.277,-1.277,-1.277,-1.277,-1.277,-1.2774,-1.2917,-1.3092,-1.3348,-1.3485,-1.3619,-1.3766,-1.3859,-1.39,-1.39,-1.39,-1.39,-1.39,-1.39,-1.39,-1.39,0.0,0.0,0.0,0.0,0.0,0.0,0.0,0.0,0.0,0.0,0.0,0.0,0.0,0.0,0.0,0.0,0.0,0.0,0.0,0.0,0.0,-1.0593,-1.0593,-1.0593,-1.0593,0.0,0.0,0.0,0.0,0.0,-1.0593,-1.0593,-1.0593,0.0,-1.0593,0.0,0.0,0.0,0.0,0.0,0.0,0.0,0.0,0.0,0.0,-1.1622,-1.1737,-1.1663,-1.1503,-1.1289,-1.1116,-1.0955,-1.0767,-1.0646,0.0,0.0,0.0,0.0,0.0,0.0,-1.6005,-1.6797,-1.7709,-1.8611,0.0,0.0,-2.0408,-2.0628,-2.0848,-2.1022,-2.1096,-2.1109,-2.1109,-2.1109,-2.1109,-2.1109,-2.1109,-2.1109,-2.1109,-2.1109,-2.0482,-1.9979,-1.9641,-1.8612,-1.7588,-1.6564,-1.6169,-1.5383,-1.4006,-1.3875,-1.3551,-1.2836,-1.277,-1.277,-1.277,-1.277,-1.277,-1.277,-1.277,-1.277,-1.277,-1.277,-1.2909,-1.3047,-1.3368,-1.353,-1.3587,-1.3766,-1.3835,-1.3843,-1.3884,-1.39,-1.39,-1.39,-1.39,-1.39,0.0,0.0,0.0,0.0,0.0,0.0,0.0,0.0,0.0,0.0,0.0,0.0,0.0,0.0,0.0,-1.0593,0.0,0.0,0.0,0.0,0.0,-1.0593,-1.0593,0.0,-1.0593,0.0,0.0,0.0,0.0,0.0,-1.0593,-1.0593,-1.0593,-1.0593,-1.0593,-1.0593,-1.0593,0.0,0.0,0.0,0.0,0.0,0.0,0.0,0.0,0.0,0.0,0.0,-1.1879,-1.1866,-1.1484,-1.0989,-1.0975,-1.0814,-1.0646,0.0,0.0,0.0,0.0,-1.3928,0.0,-1.6032,-1.6837,-1.7594,0.0,0.0,-1.9673,-2.0508,-2.0688,-2.0782,-2.1056,-2.1109,-2.1109,-2.1109,-2.1109,-2.1109,-2.1109,-2.1109,-2.1109,-2.1109,-2.0482,-1.9979,-1.9641,-1.8612,-1.7588,-1.6564,-1.6169,-1.5383,-1.4006,-1.3875,-1.3551,-1.2836,-1.277,-1.277,-1.277,-1.277,-1.277,-1.277,-1.277,-1.277,-1.277,-1.277,-1.284,-1.286,-1.3043,-1.3222,-1.3396,-1.3583,-1.3586,-1.3602,-1.3839,-1.39,-1.39,-1.39,-1.39,-1.39,0.0,0.0,0.0,0.0,0.0,0.0,0.0,0.0,0.0,0.0,0.0,0.0,0.0,-1.0593,-1.0593,-1.0593,-1.0593,0.0,0.0,0.0,0.0,-1.0593,-1.0593,-1.0593,-1.0593,0.0,0.0,0.0,0.0,-1.0593,-1.0593,-1.0593,-1.0593,-1.0593,-1.0593,-1.0593,-1.0593,-1.0593,0.0,0.0,0.0,0.0,0.0,0.0,0.0,0.0,0.0,0.0,-1.2946,-1.2596,-1.2201,-1.177,-1.139,-1.1069,0.0,0.0,0.0,0.0,0.0,0.0,0.0,-1.495,-1.5872,-1.6851,-1.7655,-1.8457,-1.9225,-1.9733,-2.0134,-2.0481,-2.0775,-2.0982,-2.1109,-2.1109,-2.1109,-2.1109,-2.1109,-2.1109,-2.1046,-2.0799,-2.0361,-1.9788,-1.9014,-1.8173,-1.7271,-1.6234,-1.5649,-1.4861,-1.394,-1.3687,-1.3363,-1.2836,-1.277,-1.277,-1.277,-1.277,-1.277,-1.277,-1.277,-1.277,-1.277,-1.277,-1.277,-1.2774,-1.2901,-1.3031,-1.3206,-1.3392,-1.3539,-1.3582,-1.3713,-1.3807,-1.39,-1.39,-1.39,-1.39,0.0,0.0,0.0,0.0,0.0,0.0,0.0,0.0,0.0,0.0,0.0,0.0,0.0,0.0,-1.0593,-1.0593,-1.0593,-1.0593,-1.0593,-1.0593,-1.0593,-1.0593,-1.0593,-1.0593,0.0,0.0,0.0,0.0,0.0,0.0,0.0,-1.0593,-1.0593,-1.0593,-1.0593,-1.0593,0.0,0.0,0.0,-1.1189,0.0,0.0,-1.31,0.0,0.0,0.0,0.0,0.0,0.0,-1.344,-1.2933,0.0,0.0,0.0,0.0,0.0,0.0,0.0,-1.1877,0.0,0.0,0.0,-1.4963,-1.5892,-1.6723,-1.7622,-1.8497,-1.9098,-1.9606,-2.006,-2.0454,-2.0681,-2.0875,-2.1076,-2.1109,-2.1109,-2.1109,-2.1109,-2.0982,-2.0672,-2.0297,-1.9724,-1.8705,-1.7922,-1.7077,-1.6104,-1.5323,-1.4604,-1.394,-1.356,-1.3235,-1.2836,-1.277,-1.277,-1.277,-1.277,-1.277,-1.277,-1.277,-1.277,-1.277,-1.277,-1.277,-1.277,-1.277,-1.2901,-1.3019,-1.3202,-1.3348,-1.3465,-1.3526,-1.3624,-1.3734,-1.379,-1.3815,-1.3823,0.0,0.0,0.0,0.0,0.0,0.0,0.0,0.0,0.0,0.0,0.0,0.0,0.0,0.0,0.0,-1.0593,-1.0593,-1.0593,-1.0593,-1.0593,-1.0593,-1.0593,0.0,0.0,0.0,0.0,0.0,0.0,0.0,0.0,0.0,0.0,-1.0593,-1.0593,-1.0593,-1.0593,-1.0613,0.0,-1.1169,-1.1455,0.0,-1.2866,-1.366,0.0,0.0,0.0,-1.5149,-1.5048,0.0,-1.4322,0.0,0.0,0.0,0.0,0.0,0.0,0.0,0.0,0.0,0.0,0.0,0.0,0.0,0.0,-1.5959,0.0,-1.7507,-1.8631,-1.9118,-1.9506,-2.0087,-2.0201,-2.0394,-2.0975,-2.1076,-2.1089,-2.1096,-2.1096,-2.0976,-2.0609,-2.0297,-1.966,-1.8699,-1.7922,-1.7077,-1.6104,-1.5323,-1.4604,-1.394,-1.356,-1.3169,-1.2836,-1.277,-1.277,-1.277,-1.277,-1.277,-1.277,-1.277,-1.277,-1.277,-1.277,-1.277,-1.277,-1.277,-1.277,-1.2848,-1.3015,-1.3088,-1.3112,-1.3291,-1.3368,-1.3392,-1.3571,-1.3566,-1.359,0.0,0.0,0.0,0.0,0.0,0.0,0.0,0.0,0.0,0.0,0.0,0.0,0.0,0.0,0.0,-1.0593,-1.0593,-1.0593,-1.0593,-1.0593,-1.0593,-1.0593,-1.0593,-1.0593,0.0,0.0,0.0,0.0,0.0,0.0,0.0,0.0,0.0,0.0,-1.0593,-1.0593,-1.0613,-1.0901,0.0,-1.1817,-1.2632,-1.3487,0.0,0.0,0.0,0.0,0.0,-1.596,-1.5872,0.0,-1.4643,-1.39,0.0,0.0,0.0,0.0,0.0,0.0,-1.1035,0.0,0.0,0.0,0.0,0.0,-1.4836,-1.5785,-1.6777,-1.7541,-1.805,-1.8591,-1.9178,-1.9459,-1.9726,-2.01,-2.0334,-2.0548,-2.0768,-2.0615,-2.038,-2.0272,-1.9717,-1.9072,-1.8232,-1.7335,-1.6564,-1.6039,-1.4861,-1.4076,-1.394,-1.3293,-1.2902,-1.277,-1.277,-1.277,-1.277,-1.277,-1.277,-1.277,-1.277,-1.277,-1.277,-1.277,-1.277,-1.277,-1.277,-1.277,-1.2774,-1.2889,-1.2982,-1.31,-1.3153,-1.325,-1.3376,-1.3429,-1.3445,-1.3453,0.0,0.0,0.0,0.0,0.0,0.0,0.0,0.0,0.0,0.0,0.0,0.0,0.0,0.0,0.0,-1.0774,-1.0774,-1.072,-1.06,-1.0593,-1.0593,-1.0593,-1.0593,-1.0593,-1.0593,0.0,0.0,0.0,0.0,0.0,0.0,0.0,0.0,0.0,0.0,0.0,0.0,0.0,0.0,0.0,-1.2979,0.0,0.0,-1.5545,-1.6239,0.0,0.0,0.0,-1.6734,-1.6139,-1.5311,0.0,0.0,0.0,0.0,0.0,0.0,0.0,0.0,0.0,0.0,0.0,0.0,0.0,-1.3946,-1.4877,-1.5778,-1.6663,-1.7161,-1.7616,-1.8099,-1.8344,-1.8556,-1.8669,-1.8853,-1.9292,-2.032,-2.0249,-1.9944,-1.9794,-1.918,-1.8461,-1.7671,-1.6856,-1.6131,-1.5578,-1.4534,-1.3748,-1.3486,-1.3034,-1.277,-1.277,-1.277,-1.277,-1.277,-1.277,-1.277,-1.277,-1.277,-1.277,-1.277,-1.277,-1.277,-1.277,-1.277,-1.277,-1.277,-1.2638,-1.2765,-1.2986,-1.2986,-1.3051,-1.3157,-1.3226,-1.3254,-1.3267,0.0,0.0,0.0,0.0,0.0,0.0,0.0,0.0,0.0,0.0,0.0,0.0,0.0,0.0,0.0,0.0,-1.1042,-1.0915,-1.066,-1.064,-1.0626,-1.0593,-1.0593,-1.0593,-1.0593,-1.0593,0.0,0.0,0.0,0.0,0.0,0.0,0.0,0.0,0.0,0.0,0.0,0.0,0.0,-1.2107,-1.3227,-1.4222,0.0,0.0,-1.6647,-1.7555,-1.742,-1.7514,-1.7589,-1.6967,-1.5825,0.0,0.0,0.0,0.0,0.0,-1.1069,0.0,0.0,0.0,0.0,0.0,0.0,0.0,-1.326,-1.3913,-1.4645,-1.5805,-1.6237,-1.6537,-1.6886,-1.699,-1.7009,-1.7041,-1.7076,-1.7766,-1.9708,-1.9765,-1.9494,-1.9203,-1.8557,-1.7866,-1.7085,-1.6413,-1.5681,-1.4911,-1.4227,-1.353,-1.2836,-1.277,-1.277,-1.277,-1.277,-1.277,-1.277,-1.277,-1.277,-1.277,-1.277,-1.277,-1.277,-1.277,-1.277,-1.277,-1.277,-1.277,-1.2704,-1.2375,-1.2441,-1.277,-1.2704,-1.2704,-1.2724,-1.2877,-1.2996,-1.3021,0.0,0.0,0.0,0.0,0.0,0.0,0.0,0.0,0.0,0.0,0.0,0.0,0.0,0.0,0.0,0.0,0.0,-1.1216,-1.0929,-1.0909,-1.0841,-1.06,-1.0593,-1.0593,-1.0593,-1.0593,-1.0593,0.0,0.0,0.0,0.0,0.0,0.0,0.0,0.0,0.0,0.0,0.0,0.0,-1.2697,-1.3614,-1.4529,-1.5424,-1.6536,-1.7233,-1.7642,-1.8076,-1.8263,-1.8183,-1.7393,-1.64,-1.5371,0.0,0.0,0.0,-1.2238,0.0,0.0,0.0,0.0,0.0,0.0,-1.1343,0.0,-1.2418,-1.2916,-1.3421,-1.4147,-1.4527,-1.4889,-1.519,-1.5635,-1.5919,-1.5921,-1.6247,-1.7015,-1.8326,-1.8401,-1.832,-1.8166,-1.7783,-1.7252,-1.6542,-1.5862,-1.52,-1.4561,-1.3755,-1.3137,-1.2828,-1.277,-1.277,-1.277,-1.277,-1.277,-1.277,-1.277,-1.277,-1.277,-1.277,-1.277,-1.277,-1.277,-1.277,-1.277,-1.2507,-1.2375,-1.2375,-1.2045,-1.2111,-1.2375,-1.2111,-1.1978,-1.1982,-1.2013,-1.2223,-1.2429,0.0,0.0,0.0,0.0,0.0,0.0,0.0,0.0,0.0,0.0,0.0,0.0,0.0,0.0,0.0,0.0,0.0,0.0,0.0,0.0,-1.1082,-1.0821,-1.0807,-1.074,-1.0593,-1.0593,-1.0593,0.0,0.0,0.0,0.0,0.0,0.0,0.0,0.0,0.0,0.0,0.0,-1.2291,-1.3046,-1.3788,0.0,-1.5725,-1.6811,-1.7568,-1.8096,-1.8544,-1.8704,-1.8571,-1.7669,-1.6874,0.0,-1.5064,-1.4242,-1.3474,0.0,-1.1991,-1.155,0.0,0.0,0.0,-1.0678,-1.0863,0.0,0.0,-1.1888,-1.233,-1.2894,-1.3073,-1.3187,-1.3372,-1.3648,-1.3886,-1.3878,-1.4233,-1.4728,-1.5597,-1.6471,-1.7022,-1.7107,-1.6396,-1.5919,-1.5721,-1.4968,-1.4265,-1.3663,-1.3165,-1.2799,-1.2698,-1.2787,-1.277,-1.277,-1.277,-1.277,-1.277,-1.277,-1.277,-1.277,-1.277,-1.277,-1.277,-1.277,-1.2704,-1.2572,-1.2375,-1.2243,-1.2045,-1.1648,-1.1582,-1.178,-1.178,-1.178,-1.178,-1.178,-1.1912,-1.2045,0.0,0.0,0.0,0.0,0.0,0.0,0.0,0.0,0.0,0.0,0.0,0.0,0.0,0.0,0.0,0.0,0.0,0.0,0.0,0.0,-1.1463,-1.1176,-1.1056,-1.0882,-1.068,-1.062,-1.0593,-1.0593,0.0,0.0,0.0,0.0,0.0,0.0,0.0,0.0,0.0,0.0,0.0,-1.3434,0.0,-1.497,-1.6012,-1.6894,-1.7809,-1.8537,-1.8885,-1.8971,-1.8748,-1.7962,-1.7257,-1.6587,-1.5471,-1.4643,0.0,0.0,0.0,0.0,0.0,0.0,0.0,0.0,0.0,-1.0553,0.0,0.0,0.0,-1.1714,-1.1708,-1.1661,-1.1603,-1.1708,-1.1793,-1.179,-1.1989,-1.2266,-1.2728,-1.4058,-1.5213,-1.5719,-1.4969,-1.4553,-1.4733,-1.3936,-1.324,-1.2723,-1.2547,-1.2491,-1.2624,-1.2706,-1.28,-1.277,-1.277,-1.277,-1.277,-1.277,-1.277,-1.277,-1.277,-1.277,-1.277,-1.277,-1.2638,-1.2309,-1.2243,-1.1978,-1.1648,-1.1247,-1.1115,-1.1115,-1.1449,-1.1582,-1.1582,-1.1582,-1.1648,-1.1714,-0.9321,-0.9414,0.0,0.0,0.0,0.0,0.0,0.0,0.0,0.0,0.0,0.0,0.0,0.0,0.0,0.0,0.0,0.0,-1.2703,0.0,0.0,-1.1819,-1.1303,-1.0982,-1.0949,-1.072,-1.0593,-1.0593,0.0,0.0,0.0,0.0,0.0,0.0,-1.0982,0.0,0.0,0.0,-1.3233,0.0,-1.491,-1.5638,0.0,-1.7194,-1.7929,-1.8564,-1.9118,-1.9152,-1.8808,-1.8158,-1.7605,-1.6925,0.0,-1.485,-1.4072,-1.3434,0.0,0.0,0.0,0.0,0.0,0.0,-1.0127,-0.9987,-1.0222,0.0,-0.9962,-1.0271,0.0,-1.036,-1.0248,0.0,0.0,-1.0373,-1.0556,-1.081,-1.1035,-1.126,-1.2004,-1.362,-1.3887,-1.3831,-1.3425,-1.2903,-1.2442,-1.2285,-1.2168,-1.2227,-1.2612,-1.2584,-1.267,-1.2832,-1.277,-1.277,-1.277,-1.277,-1.277,-1.277,-1.277,-1.277,-1.277,-1.277,-1.2638,-1.2309,-1.1978,-1.1648,-1.1247,-1.092,-1.0787,-1.0787,-1.0787,-1.0853,-1.0853,-1.0853,-1.0986,-1.1247,-0.9133,-0.928,0.0,0.0,0.0,0.0,0.0,0.0,0.0,0.0,0.0,0.0,0.0,0.0,0.0,0.0,0.0,-1.3915,-1.3781,0.0,0.0,-1.2507,-1.189,-1.1346,-1.0878,-1.0626,-1.0406,-1.0244,-1.0244,0.0,0.0,0.0,0.0,0.0,-1.1009,0.0,-1.2233,0.0,-1.3649,0.0,0.0,-1.5719,0.0,-1.7523,-1.82,-1.879,-1.9034,-1.8867,-1.8551,-1.8146,-1.7621,-1.6983,0.0,0.0,0.0,-1.355,0.0,0.0,0.0,0.0,0.0,0.0,-1.0006,-0.967,-0.9571,-0.9346,-0.9132,-0.9033,0.0,0.0,0.0,0.0,0.0,0.0,-0.8925,-0.9205,-0.9532,-0.9518,-1.017,-1.2097,-1.2116,-1.1883,-1.1718,-1.1754,-1.178,-1.1607,-1.1775,-1.204,-1.2393,-1.2511,-1.2649,-1.2832,-1.277,-1.277,-1.277,-1.277,-1.277,-1.277,-1.277,-1.277,-1.277,-1.2572,-1.2309,-1.1978,-1.1582,-1.1251,-1.092,-1.0787,-1.0721,-1.0721,-1.0721,-1.0721,-1.0721,-1.0721,-1.0787,-1.0916,-0.8777,0.0,0.0,0.0,0.0,0.0,0.0,0.0,0.0,0.0,0.0,0.0,-1.378,-1.4222,0.0,0.0,-1.4883,-1.4883,-1.4883,-1.4243,-1.3708,-1.3254,-1.2518,-1.1792,-1.1051,-1.0691,-1.0369,-1.0097,-1.0053,0.0,0.0,0.0,0.0,0.0,0.0,-1.17,-1.2392,0.0,-1.4027,-1.4769,-1.5276,-1.61,-1.7159,-1.7746,-1.8318,-1.8758,-1.8758,-1.8532,-1.8196,-1.7867,-1.7397,-1.6789,-1.5848,-1.5104,-1.432,0.0,0.0,0.0,-1.1865,-1.1335,-1.0743,-1.0336,-0.9869,-0.94,-0.8984,-0.8721,-0.8468,-0.807,-0.7897,0.0,0.0,0.0,0.0,0.0,0.0,-0.7752,0.0,-0.8069,-0.8709,-1.0603,-1.0567,-1.0348,-1.0382,-1.0902,-1.123,-1.1066,-1.1464,-1.1837,-1.2146,-1.2373,-1.2576,-1.2755,-1.2812,-1.277,-1.277,-1.277,-1.277,-1.277,-1.2704,-1.2638,-1.2638,-1.2309,-1.1978,-1.1648,-1.1317,-1.0986,-1.0721,-1.0721,-1.0721,-1.0721,-1.0721,-1.0721,-1.0721,-1.0721,-1.0721,-1.0721,-0.8327,-0.87,0.0,0.0,0.0,0.0,0.0,0.0,0.0,0.0,0.0,0.0,0.0,0.0,0.0,0.0,0.0,-1.5738,-1.5738,-1.5009,-1.4466,-1.4185,-1.306,-1.2233,-1.1682,-1.1076,-1.0659,-1.0381,-1.0116,0.0,0.0,0.0,0.0,0.0,0.0,-1.1916,-1.301,-1.3818,-1.4496,-1.5057,-1.6189,-1.7194,-1.7963,-1.7976,-1.8161,-1.8421,-1.8421,-1.8175,-1.7833,-1.7292,-1.6902,-1.6457,-1.5367,-1.4629,-1.4112,-1.3557,-1.2719,-1.1941,-1.1879,-1.1235,-1.0471,-1.0197,-0.9636,-0.9073,-0.8475,-0.8165,-0.7933,-0.7587,-0.7512,-0.7385,0.0,0.0,0.0,0.0,0.0,0.0,0.0,0.0,-0.7348,-0.8994,-0.9524,-0.9756,-0.9823,-1.0493,-1.0849,-1.0751,-1.1208,-1.1589,-1.1784,-1.2125,-1.2393,-1.2568,-1.2743,-1.277,-1.277,-1.277,-1.277,-1.277,-1.2441,-1.2309,-1.2309,-1.1978,-1.1582,-1.1247,-1.1181,-1.0986,-1.0721,-1.0721,-1.0721,-1.0721,-1.0721,-1.0721,-1.0721,-1.0721,-1.0721,-1.0721,0.0,0.0,0.0,0.0,0.0,0.0,0.0,-1.0682,-1.1465,-1.2345,-1.3291,-1.4217,-1.5068,-1.5817,-1.6386,-1.6673,-1.6881,-1.6886,-1.6688,-1.6051,-1.5457,-1.4842,-1.3944,-1.3032,-1.2132,-1.1548,-1.0961,-1.0331,-1.0062,0.0,0.0,0.0,0.0,0.0,0.0,-1.1764,0.0,0.0,0.0,0.0,0.0,-1.6833,-1.7156,-1.7737,-1.7972,-1.797,-1.7804,-1.7386,-1.6891,-1.6691,-1.62,-1.5591,-1.5012,-1.4327,-1.3622,-1.3158,-1.2392,-1.1662,-1.1575,-1.1005,-1.0357,-1.0154,-0.9632,-0.9067,-0.8486,-0.8174,-0.7877,-0.7396,-0.7191,-0.701,-0.6746,0.0,0.0,0.0,0.0,0.0,0.0,0.0,-0.6542,-0.7216,-0.8112,-0.8679,-0.879,-0.949,-1.0044,-1.0363,-1.0842,-1.1334,-1.1752,-1.1996,-1.2259,-1.262,-1.2625,-1.2714,-1.277,-1.2572,-1.2441,-1.2441,-1.2111,-1.1978,-1.1978,-1.1582,-1.1317,-1.1181,-1.0986,-1.0787,-1.0721,-1.0721,-1.0721,-1.0721,-1.0721,-1.0721,-1.0721,-1.0721,-1.0721,-1.0721,-0.7699,0.0,0.0,0.0,-0.8547,-0.9225,-0.9935,-1.0728,-1.1651,-1.2709,-1.3724,-1.4719,-1.5664,-1.6514,-1.7082,-1.7429,-1.7711,-1.7727,-1.7412,-1.6868,-1.6239,-1.5407,-1.4703,-1.3802,-1.2759,-1.2181,-1.1519,0.0,0.0,-0.9913,0.0,0.0,0.0,0.0,0.0,-1.1703,-1.2759,-1.3579,-1.4465,0.0,0.0,-1.6443,-1.6478,-1.6938,-1.7161,-1.727,-1.6974,-1.6486,-1.5948,-1.5948,-1.544,-1.4695,-1.4452,-1.3886,-1.321,-1.2831,-1.2195,-1.1637,-1.1567,-1.1089,-1.0525,-1.0335,-0.9791,-0.9121,-0.8558,-0.8151,-0.7723,-0.7228,-0.6941,-0.6716,-0.6527,0.0,0.0,0.0,0.0,0.0,0.0,-0.5796,-0.5908,-0.6042,-0.7032,-0.783,-0.8102,-0.8747,-0.9412,-0.989,-1.0436,-1.0988,-1.1464,-1.1776,-1.2073,-1.2365,-1.2367,-1.2426,-1.2542,-1.2277,-1.2111,-1.2111,-1.178,-1.1582,-1.1582,-1.1181,-1.1052,-1.0986,-1.0787,-1.0721,-1.0721,-1.0721,-1.0721,-1.0721,-1.0721,-1.0721,-1.0721,-1.0721,-1.0721,-1.0721,-0.7443,-0.7477,-0.7517,-0.7664,-0.8572,-0.9405,-0.983,-1.0875,-1.1981,-1.2973,-1.405,-1.5151,-1.622,-1.7063,-1.7622,-1.79,-1.8172,-1.8222,-1.7963,-1.7453,-1.6783,-1.5986,-1.5472,-1.4666,-1.3598,0.0,0.0,0.0,0.0,0.0,0.0,0.0,0.0,0.0,-1.0839,0.0,-1.2734,-1.3531,-1.4345,-1.5053,-1.5783,-1.604,-1.6016,-1.5672,-1.5828,-1.6227,-1.5962,-1.5555,-1.5125,-1.5125,-1.4542,-1.3784,-1.3593,-1.3223,-1.28,-1.2529,-1.2108,-1.1733,-1.1725,-1.1309,-1.0828,-1.0591,-0.9975,-0.9237,-0.8649,-0.8084,-0.7533,-0.7116,-0.6832,-0.6596,-0.6382,0.0,0.0,0.0,0.0,0.0,0.0,0.0,-0.5404,-0.5415,-0.6305,-0.7175,-0.7718,-0.8369,-0.8938,-0.9363,-1.0006,-1.0566,0.0,-1.1459,-1.1829,-1.1946,-1.198,-1.1971,-1.1975,-1.1826,-1.178,-1.178,-1.138,-1.1181,-1.1181,-1.0853,-1.0721,-1.0721,-1.0721,-1.0721,-1.0721,-1.0721,-1.0721,-1.0721,-1.0721,-1.0721,-1.0721,-1.0721,-1.0721,-1.0721,-0.6869,-0.6965,-0.7149,-0.7511,-0.8287,-0.9118,-0.9862,-1.0932,-1.2103,-1.3256,-1.4521,-1.5628,-1.6501,-1.7534,-1.8261,-1.8534,-1.8807,-1.8819,-1.8516,-1.8202,-1.7664,-1.6824,-1.6284,-1.5487,-1.4431,-1.3682,-1.2819,-1.1784,0.0,0.0,-0.9907,0.0,0.0,0.0,0.0,0.0,-1.223,-1.321,-1.4248,-1.5272,-1.561,-1.5525,-1.5129,-1.464,-1.4513,-1.4697,-1.4975,-1.4804,-1.4348,-1.4348,-1.3762,-1.302,-1.2972,-1.2494,-1.1999,-1.1813,-1.1391,-1.0992,-1.0868,-1.0554,-1.0166,-0.9989,-0.9609,-0.914,-0.8758,-0.847,-0.8145,-0.7816,-0.7551,-0.7321,-0.7082,-0.6765,0.0,0.0,0.0,0.0,0.0,0.0,-0.5445,-0.5533,-0.5934,-0.6452,-0.7155,-0.7801,-0.8483,-0.9116,-0.9701,-1.0241,-1.0737,-1.1147,-1.139,-1.1453,-1.1744,-1.1795,-1.1721,-1.1498,-1.138,-1.1383,-1.0982,-1.085,-1.085,-1.0721,-1.0721,-1.0721,-1.0721,-1.0721,-1.0721,-1.0721,-1.0721,-1.0721,-1.0721,-1.0721,-1.0721,-1.0721,-1.0721,-1.0721,-0.674,-0.684,-0.7144,-0.7573,-0.829,-0.9018,-0.9869,-1.1156,-1.236,-1.338,-1.474,-1.5896,-1.6754,-1.7703,-1.8422,-1.8704,-1.9026,-1.9007,-1.871,-1.8563,-1.8119,-1.7285,-1.6809,-1.6093,-1.5006,-1.4219,0.0,-1.2232,0.0,0.0,-1.0002,0.0,0.0,0.0,0.0,-1.1169,-1.2097,-1.3245,-1.4124,-1.4769,-1.4983,-1.4862,0.0,-1.4028,-1.364,-1.3452,-1.3725,-1.3687,-1.3531,-1.3336,-1.2818,-1.2147,-1.2147,-1.1849,-1.1463,-1.1365,-1.1208,-1.0928,-1.0836,-1.0576,-1.0302,-1.0206,-0.9772,-0.9323,-0.9146,-0.8825,-0.8492,-0.8248,-0.8018,-0.7767,-0.7503,-0.7091,-0.6684,0.0,0.0,0.0,0.0,0.0,0.0,-0.5585,-0.5835,-0.6172,-0.6659,-0.7285,-0.797,-0.8694,-0.9238,-0.9811,-1.0428,-1.0687,-1.0904,-1.1152,-1.1122,-1.1188,-1.1234,-1.1001,-1.0916,-1.0982,-1.0787,-1.0721,-1.0721,-1.0721,-1.0721,-1.0721,-1.0721,-1.0721,-1.0721,-1.0721,-1.0721,-1.0721,-1.0721,-1.0721,-1.0721,-1.0721,-1.0721,-1.0721,-0.6822,-0.6965,-0.7282,-0.7788,-0.8431,-0.9133,-0.9898,-1.1336,-1.265,-1.3529,-1.4855,-1.6029,-1.6949,-1.7687,-1.8246,-1.8602,-1.8818,-1.8848,-1.862,-1.8608,-1.8262,-1.7465,-1.7166,-1.6547,-1.5526,-1.464,-1.3698,0.0,0.0,0.0,0.0,0.0,0.0,0.0,0.0,0.0,0.0,-1.3381,-1.3909,-1.3814,-1.4161,-1.4066,-1.3745,-1.3573,-1.3076,-1.2402,-1.2338,-1.2502,-1.2638,-1.2309,-1.1876,-1.1427,-1.1427,-1.1335,-1.1097,-1.1097,-1.1146,-1.1131,-1.1131,-1.0908,-1.0734,-1.0734,-1.0203,-0.9635,-0.9635,-0.9175,-0.8754,-0.8601,-0.835,-0.8015,-0.777,-0.7333,-0.6785,0.0,0.0,0.0,-0.576,0.0,0.0,0.0,-0.5915,0.0,-0.6336,-0.6863,-0.7513,-0.8209,-0.8747,-0.934,-1.0106,-1.0164,-1.0424,-1.0883,-1.0505,-1.0461,-1.0721,-1.0551,-1.0568,-1.0721,-1.0721,-1.0721,-1.0721,-1.0721,-1.0721,-1.0721,-1.0721,-1.0721,-1.0721,-1.0721,-1.0721,-1.0721,-1.0721,-1.0721,-1.0721,-1.0721,-1.0721,-1.0721,-0.6733,-0.6968,-0.7279,-0.7681,-0.8606,-0.9497,-1.0012,-1.127,-1.2662,-1.4119,-1.5061,-1.6012,-1.7114,-1.753,-1.7811,-1.8081,-1.8139,-1.8145,-1.8104,-1.8099,-1.7966,-1.7548,-1.7152,-1.6648,-1.5989,-1.4822,-1.3838,0.0,0.0,0.0,0.0,0.0,0.0,0.0,0.0,0.0,-1.1664,-1.2603,-1.2959,-1.2887,-1.3449,-1.3239,-1.2591,-1.2702,-1.2366,-1.1867,-1.1538,-1.1688,-1.1978,-1.1912,-1.163,-1.1271,-1.1271,-1.1059,-1.0774,-1.0774,-1.0682,-1.0647,-1.0647,-1.0522,-1.0388,-1.0388,-1.007,-0.9763,-0.9763,-0.9535,-0.9222,-0.9122,-0.8899,-0.8635,-0.8384,-0.7865,-0.7326,-0.6809,-0.6644,-0.6532,-0.6378,-0.6255,0.0,0.0,-0.6091,-0.6163,-0.6503,-0.693,-0.7438,-0.8001,-0.8436,-0.897,-0.9685,-0.9749,-0.9908,-1.0194,-1.0269,-1.0338,-1.0404,-1.0483,-1.0568,-1.0721,-1.0721,-1.0721,-1.0721,-1.0721,-1.0721,-1.0721,-1.0721,-1.0721,-1.0721,-1.0721,-1.0721,-1.0721,-1.0721,-1.0721,-1.0721,-1.0721,-1.0721,-1.0721,-0.7061,0.0,0.0,-0.8103,-0.8827,-0.9624,-1.0518,-1.1393,-1.2397,-1.3744,-1.4628,-1.5545,-1.6572,-1.689,-1.7139,-1.7448,-1.7453,-1.7453,-1.7453,-1.7453,-1.7339,-1.7043,-1.6683,-1.6208,-1.5558,-1.4569,-1.363,-1.286,-1.1909,0.0,0.0,0.0,0.0,0.0,0.0,-1.0572,0.0,-1.214,-1.2333,-1.2205,-1.2651,-1.2541,-1.2083,-1.2083,-1.1841,-1.1449,-1.1247,-1.1181,-1.1251,-1.1251,-1.1118,-1.0916,-1.0916,-1.085,-1.0721,-1.0721,-1.0666,-1.0609,-1.0609,-1.0504,-1.0388,-1.0388,-1.0222,-1.0059,-1.0059,-0.9947,-0.9781,-0.9547,-0.9442,-0.9232,-0.8699,-0.8303,-0.7909,-0.7461,-0.7326,-0.7197,-0.7013,-0.6921,-0.6849,0.0,0.0,0.0,-0.6719,-0.6973,-0.7267,-0.7678,-0.7936,-0.8376,-0.9065,-0.912,-0.9356,-0.9758,-0.9847,-0.9956,-1.0154,-1.0307,-1.0456,-1.0602,-1.068,-1.0721,-1.0721,-1.0721,-1.0721,-1.0721,-1.0721,-1.0721,-1.0721,-1.0721,-1.0721,-1.0721,-1.0721,-1.0721,-1.0721,-1.0721,-1.0721,-1.0721,-0.7512,-0.7662,-0.8007,-0.86,-0.9058,-0.9713,-1.0856,-1.1403,-1.212,-1.3351,-1.4099,-1.4896,-1.574,-1.6062,-1.6299,-1.6553,-1.6553,-1.6553,-1.6553,-1.6553,-1.6423,-1.6174,-1.5944,-1.5511,-1.4875,-1.4112,-1.3311,-1.2576,-1.1646,-1.0751,-0.9937,0.0,0.0,0.0,-0.9962,-1.0553,-1.0864,-1.1601,-1.1737,-1.1516,-1.1921,-1.1885,-1.1629,-1.1668,-1.1446,-1.1115,-1.1115,-1.092,-1.0721,-1.0721,-1.0721,-1.0721,-1.0721,-1.0721,-1.0721,-1.0721,-1.0721,-1.0721,-1.0721,-1.0633,-1.0541,-1.0541,-1.0432,-1.0327,-1.0327,-1.03,-1.0212,-0.9968,-0.9866,-0.9612,-0.893,-0.8706,-0.8499,-0.8113,-0.7997,-0.7872,-0.7685,-0.7553,-0.7455,0.0,0.0,0.0,-0.7027,-0.7009,-0.714,-0.7394,-0.756,-0.7912,-0.8504,-0.8635,-0.8944,-0.9532,-0.9455,-0.9595,-0.9984,-1.0202,-1.0351,-1.0493,-1.0646,-1.0721,-1.0721,-1.0721,-1.0721,-1.0721,-1.0721,-1.0721,-1.0721,-1.0721,-1.0721,-1.0721,-1.0721,-1.0721,-1.0721,-1.0721,-1.0721,-1.0721,-0.7928,-0.8204,-0.8455,-0.8692,-0.9307,-0.9884,-1.0332,-1.0904,-1.1862,-1.3537,-1.3997,-1.4355,-1.4944,-1.5047,-1.5062,-1.5062,-1.5127,-1.5127,-1.5127,-1.5127,-1.5062,-1.5062,-1.4857,-1.4633,-1.4351,-1.3539,-1.2894,-1.2434,-1.1359,-1.0575,-1.0079,0.0,0.0,-0.9217,-0.9866,-1.0126,-1.0112,-1.0784,-1.0971,-1.091,-1.1275,-1.125,-1.107,-1.1183,-1.1049,-1.0721,-1.0721,-1.0721,-1.0721,-1.0721,-1.0721,-1.0721,-1.0721,-1.0721,-1.0721,-1.0721,-1.0721,-1.0721,-1.0721,-1.0711,-1.07,-1.07,-1.0585,-1.0473,-1.0473,-1.0371,-1.0273,-1.0243,-1.0015,-0.9676,-0.9255,-0.9156,-0.9035,-0.8862,-0.8598,-0.8411,-0.8381,-0.8147,-0.787,-0.7767,0.0,0.0,-0.7343,-0.719,-0.7156,-0.7389,-0.7638,-0.7938,-0.8294,-0.852,-0.8842,-0.9327,-0.9403,-0.9595,-0.9984,-1.0202,-1.0351,-1.0493,-1.0646,-1.0721,-1.0721,-1.0721,-1.0721,-1.0721,-1.0721,-1.0721,-1.0721,-1.0721,-1.0721,-1.0721,-1.0721,-1.0721,-1.0721,-1.0721,-1.0721,-1.0721,-0.8524,-0.8818,-0.9069,-0.9225,-0.9603,-1.0124,-1.0619,-1.0898,-1.1467,-1.2475,-1.3007,-1.3474,-1.3936,-1.4207,-1.4272,-1.4272,-1.4272,-1.4272,-1.4272,-1.4272,-1.4272,-1.4272,-1.4196,-1.4001,-1.3685,-1.3251,-1.266,-1.2021,-1.1387,-1.0703,-1.0077,-0.9572,-0.9183,-0.8967,-0.9506,-0.981,-0.9927,-1.059,-1.0733,-1.0529,-1.0946,-1.0955,-1.0702,-1.0857,-1.0853,-1.0721,-1.0721,-1.0721,-1.0721,-1.0721,-1.0721,-1.0721,-1.0721,-1.0721,-1.0721,-1.0721,-1.0721,-1.0721,-1.0721,-1.0721,-1.0721,-1.0721,-1.0673,-1.0629,-1.0629,-1.0585,-1.0517,-1.0426,-1.0168,-0.9876,-0.9602,-0.9486,-0.9378,-0.9228,-0.9103,-0.8991,-0.8951,-0.871,-0.847,-0.8367,-0.8143,-0.7943,-0.7787,-0.7631,-0.757,-0.7631,-0.7597,-0.7728,-0.808,-0.832,-0.8671,-0.9217,-0.9326,-0.9551,-0.9849,-1.0158,-1.031,-1.0368,-1.0605,-1.0721,-1.0721,-1.0721,-1.0721,-1.0721,-1.0721,-1.0721,-1.0721,-1.0721,-1.0721,-1.0721,-1.0721,-1.0721,-1.0721,-1.0721,-1.0721,-1.0721,-0.9141,-0.9401,-0.9612,-0.972,-0.9981,-1.0313,-1.0783,-1.0921,-1.1057,-1.1431,-1.1978,-1.2503,-1.2894,-1.3157,-1.3288,-1.3288,-1.3288,-1.3288,-1.3288,-1.3288,-1.3288,-1.3288,-1.3288,-1.3137,-1.2754,-1.2519,-1.2118,-1.1483,-1.1062,-1.0537,-0.9917,-0.9539,-0.9178,-0.8924,-0.9436,-0.9721,-0.9896,-1.0454,-1.0569,-1.0415,-1.0749,-1.0712,-1.0571,-1.068,-1.0721,-1.0721,-1.0721,-1.0721,-1.0721,-1.0721,-1.0721,-1.0721,-1.0721,-1.0721,-1.0721,-1.0721,-1.0721,-1.0721,-1.0721,-1.0721,-1.0721,-1.0721,-1.0721,-1.0721,-1.0721,-1.0721,-1.0677,-1.0524,-1.0324,-1.0134,-0.9985,-0.9873,-0.9758,-0.9602,-0.954,-0.9459,-0.9306,-0.9161,-0.8994,-0.8801,-0.8594,-0.8387,-0.8187,-0.8072,-0.8007,-0.8007,-0.7814,-0.7818,-0.8092,-0.8336,-0.8679,-0.9197,-0.9344,-0.9591,-0.9886,-1.0151,-1.03,-1.0344,-1.0599,-1.0721,-1.0721,-1.0721,-1.0721,-1.0721,-1.0721,-1.0721,-1.0721,-1.0721,-1.0721,-1.0721,-1.0721,-1.0721,-1.0721,-1.0721,-1.0721,-1.0721,-0.9812,-0.9872,-0.998,-0.998,-1.029,-1.0487,-1.049,-1.0619,-1.0717,-1.0721,-1.0986,-1.138,-1.178,-1.1846,-1.1846,-1.1846,-1.1846,-1.1846,-1.1846,-1.1846,-1.1846,-1.1846,-1.1846,-1.1698,-1.1527,-1.1206,-1.0953,-1.0838,-1.0297,-0.9828,-0.9494,-0.9282,-0.9209,-0.9234,-0.9728,-1.0011,-1.0024,-1.0236,-1.0388,-1.0483,-1.049,-1.0582,-1.0717,-1.0721,-1.0721,-1.0721,-1.0721,-1.0721,-1.0721,-1.0721,-1.0721,-1.0721,-1.0721,-1.0721,-1.0721,-1.0721,-1.0721,-1.0721,-1.0721,-1.0721,-1.0721,-1.0721,-1.0721,-1.0721,-1.0721,-1.0721,-1.0677,-1.0524,-1.0487,-1.0443,-1.03,-1.0273,-1.0222,-1.0004,-0.9852,-0.9768,-0.9625,-0.9473,-0.9266,-0.8915,-0.8878,-0.8811,-0.8506,-0.8476,-0.8472,-0.8472,-0.8472,-0.8411,-0.8327,-0.8689,-0.8998,-0.9204,-0.9449,-0.9747,-0.998,-1.0202,-1.0351,-1.049,-1.0646,-1.0721,-1.0721,-1.0721,-1.0721,-1.0721,-1.0721,-1.0721,-1.0721,-1.0721,-1.0721,-1.0721,-1.0721,-1.0721,-1.0721,-1.0721,-1.0721,-1.0721,-1.0134,-1.0253,-1.0351,-1.0351,-1.0517,-1.0649,-1.0649,-1.0687,-1.0721,-1.0721,-1.0787,-1.092,-1.1052,-1.1516,-1.178,-1.178,-1.178,-1.178,-1.178,-1.178,-1.178,-1.178,-1.178,-1.1702,-1.1531,-1.1426,-1.118,-1.0789,-1.0636,-1.0215,-0.9561,-0.9521,-0.9389,-0.9238,-0.9641,-0.9842,-0.9895,-1.0252,-1.0489,-1.05,-1.0605,-1.0677,-1.0721,-1.0721,-1.0721,-1.0721,-1.0721,-1.0721,-1.0721,-1.0721,-1.0721,-1.0721,-1.0721,-1.0721,-1.0721,-1.0721,-1.0721,-1.0721,-1.0721,-1.0721,-1.0721,-1.0721,-1.0721,-1.0721,-1.0721,-1.0721,-1.0707,-1.0656,-1.0565,-1.0477,-1.0432,-1.0344,-1.0263,-1.0215,-1.0076,-0.9899,-0.9856,-0.9693,-0.9503,-0.9408,-0.9303,-0.9161,-0.9013,-0.8849,-0.8794,-0.8794,-0.8794,-0.8774,-0.8726,-0.8807,-0.91,-0.9452,-0.9557,-0.9751,-0.9984,-1.0202,-1.0351,-1.0493,-1.0646,-1.0721,-1.0721,-1.0721,-1.0721,-1.0721,-1.0721,-1.0721,-1.0721,-1.0721,-1.0721,-1.0721,-1.0721,-1.0721,-1.0721,-1.0721,-1.0721,-1.0721,-1.0612,-1.0683,-1.0744,-1.0744,-1.0822,-1.087,-1.0812,-1.0806,-1.0785,-1.0727,-1.0721,-1.0721,-1.0721,-1.1118,-1.1383,-1.1383,-1.1383,-1.1383,-1.1383,-1.1383,-1.1383,-1.1383,-1.1383,-1.1333,-1.1232,-1.1167,-1.0994,-1.0692,-1.0577,-1.0244,-0.9779,-0.9728,-0.9673,-0.9503,-0.9842,-1.0022,-1.009,-1.0371,-1.0524,-1.0585,-1.068,-1.0721,-1.0721,-1.0721,-1.0721,-1.0721,-1.0721,-1.0721,-1.0721,-1.0721,-1.0721,-1.0721,-1.0721,-1.0721,-1.0721,-1.0721,-1.0721,-1.0721,-1.0721,-1.0721,-1.0721,-1.0721,-1.0721,-1.0721,-1.0721,-1.0721,-1.0721,-1.0721,-1.0643,-1.0578,-1.0578,-1.0507,-1.0409,-1.0297,-1.0198,-1.0097,-0.9916,-0.9805,-0.9669,-0.9615,-0.9523,-0.9408,-0.9309,-0.9157,-0.9106,-0.9106,-0.9106,-0.913,-0.9188,-0.9191,-0.932,-0.9602,-0.9717,-0.989,-1.0134,-1.0287,-1.0432,-1.0578,-1.0673,-1.0721,-1.0721,-1.0721,-1.0721,-1.0721,-1.0721,-1.0721,-1.0721,-1.0721,-1.0721,-1.0721,-1.0721,-1.0721,-1.0721,-1.0721,-1.0721,-1.0721,-1.1231,-1.1231,-1.1231,-1.1231,-1.1231,-1.1118,-1.0917,-1.0887,-1.083,-1.0755,-1.0727,-1.0721,-1.0721,-1.0721,-1.0721,-1.0721,-1.0721,-1.0721,-1.0721,-1.0721,-1.0721,-1.0721,-1.0721,-1.0721,-1.0721,-1.0582,-1.0504,-1.049,-1.0268,-1.0066,-1.0004,-1.0004,-1.0004,-1.0011,-1.0226,-1.0368,-1.049,-1.0504,-1.0592,-1.0721,-1.0721,-1.0721,-1.0721,-1.0721,-1.0721,-1.0721,-1.0721,-1.0721,-1.0721,-1.0721,-1.0721,-1.0721,-1.0721,-1.0721,-1.0721,-1.0721,-1.0721,-1.0721,-1.0721,-1.0721,-1.0721,-1.0721,-1.0721,-1.0721,-1.0721,-1.0721,-1.0721,-1.0721,-1.0721,-1.0721,-1.0721,-1.0711,-1.0616,-1.0341,-1.028,-1.0164,-0.9876,-0.9829,-0.9771,-0.9639,-0.9625,-0.9568,-0.9425,-0.9401,-0.9398,-0.9398,-0.9398,-0.9459,-0.9602,-0.9629,-0.9639,-0.9639,-0.9845,-1.0131,-1.0293,-1.0426,-1.0568,-1.0721,-1.0721,-1.0721,-1.0721,-1.0721,-1.0721,-1.0721,-1.0721,-1.0721,-1.0721,-1.0721,-1.0721,-1.0721,-1.0721,-1.0721,-1.0721,-1.0721,-1.0721,-1.0721,-1.1231,-1.1231,-1.1231,-1.1231,-1.1231,-1.1151,-1.1118,-1.1019,-1.087,-1.0833,-1.0792,-1.0721,-1.0721,-1.0721,-1.0721,-1.0721,-1.0721,-1.0721,-1.0721,-1.0721,-1.0721,-1.0721,-1.0721,-1.0721,-1.0721,-1.0683,-1.0609,-1.049,-1.0314,-1.0226,-1.0226,-1.0226,-1.0226,-1.0232,-1.0378,-1.046,-1.05,-1.0616,-1.0687,-1.0721,-1.0721,-1.0721,-1.0721,-1.0721,-1.0721,-1.0721,-1.0721,-1.0721,-1.0721,-1.0721,-1.0721,-1.0721,-1.0721,-1.0721,-1.0721,-1.0721,-1.0721,-1.0721,-1.0721,-1.0721,-1.0721,-1.0721,-1.0721,-1.0721,-1.0721,-1.0721,-1.0721,-1.0721,-1.0721,-1.0721,-1.0721,-1.0626,-1.0524,-1.0453,-1.0253,-1.0014,-0.9943,-0.9893,-0.9808,-0.9774,-0.9771,-0.9754,-0.972,-0.9618,-0.9554,-0.9554,-0.9554,-0.9571,-0.9608,-0.9822,-0.9883,-0.9883,-0.995,-1.0175,-1.0439,-1.0473,-1.0568,-1.0721,-1.0721,-1.0721,-1.0721,-1.0721,-1.0721,-1.0721,-1.0721,-1.0721,-1.0721,-1.0721,-1.0721,-1.0721,-1.0721,-1.0721,-1.0721,-1.0721,-1.0721,-1.0721,-1.1372,-1.1372,-1.1372,-1.1372,-1.1372,-1.1348,-1.1277,-1.1199,-1.1104,-1.0897,-1.0809,-1.0799,-1.0727,-1.0721,-1.0721,-1.0721,-1.0721,-1.0721,-1.0721,-1.0721,-1.0721,-1.0721,-1.0721,-1.0721,-1.0721,-1.0721,-1.068,-1.0595,-1.0521,-1.048,-1.048,-1.048,-1.048,-1.0483,-1.0561,-1.0595,-1.0602,-1.0683,-1.0721,-1.0721,-1.0721,-1.0721,-1.0721,-1.0721,-1.0721,-1.0721,-1.0721,-1.0721,-1.0721,-1.0721,-1.0721,-1.0721,-1.0721,-1.0721,-1.0721,-1.0721,-1.0721,-1.0721,-1.0721,-1.0721,-1.0721,-1.0721,-1.0721,-1.0721,-1.0721,-1.0721,-1.0721,-1.0721,-1.0721,-1.0721,-1.0721,-1.0595,-1.047,-1.0405,-1.0198,-0.9963,-0.9893,-0.9873,-0.9846,-0.9856,-0.9862,-0.9954,-1.0025,-0.9961,-0.9886,-0.9815,-0.9876,-0.9886,-0.9815,-1.0029,-1.0058,-0.9987,-1.0181,-1.0327,-1.049,-1.0561,-1.0636,-1.0721,-1.0721,-1.0721,-1.0721,-1.0721,-1.0721,-1.0721,-1.0721,-1.0721,-1.0721,-1.0721,-1.0721,-1.0721,-1.0721,-1.0721,-1.0721,-1.0721,-1.0721,-1.0721,-1.1619,-1.1619,-1.1619,-1.1619,-1.1619,-1.1575,-1.1447,-1.1406,-1.129,-1.1016,-1.0894,-1.0823,-1.0738,-1.0721,-1.0721,-1.0721,-1.0721,-1.0721,-1.0721,-1.0721,-1.0721,-1.0721,-1.0721,-1.0721,-1.0721,-1.0721,-1.0721,-1.0721,-1.0721,-1.0721,-1.0721,-1.0721,-1.0721,-1.0721,-1.0721,-1.0721,-1.0721,-1.0721,-1.0721,-1.0721,-1.0721,-1.0721,-1.0721,-1.0721,-1.0721,-1.0721,-1.0721,-1.0721,-1.0721,-1.0721,-1.0721,-1.0721,-1.0721,-1.0721,-1.0721,-1.0721,-1.0721,-1.0721,-1.0721,-1.0721,-1.0721,-1.0721,-1.0721,-1.0721,-1.0721,-1.0721,-1.0721,-1.0721,-1.0721,-1.0721,-1.0721,-1.0578,-1.0422,-1.03,-1.0131,-0.9909,-0.9839,-0.9839,-0.9842,-0.997,-1.0007,-1.0137,-1.0266,-1.028,-1.0226,-1.0031,-1.0205,-1.0222,-1.0031,-1.0229,-1.0253,-1.0058,-1.0361,-1.0504,-1.0524,-1.0656,-1.0721,-1.0721,-1.0721,-1.0721,-1.0721,-1.0721,-1.0721,-1.0721,-1.0721,-1.0721,-1.0721,-1.0721,-1.0721,-1.0721,-1.0721,-1.0721,-1.0721,-1.0721,-1.0721,-1.0721,-1.1619,-1.1619,-1.1619,-1.1619,-1.1619,-1.1609,-1.1589,-1.1474,-1.1328,-1.1151,-1.1023,-1.0823,-1.0738,-1.0721,-1.0721,-1.0721,-1.0721,-1.0721,-1.0721,-1.0721,-1.0721,-1.0721,-1.0721,-1.0721,-1.0721,-1.0721,-1.0721,-1.0721,-1.0721,-1.0721,-1.0721,-1.0721,-1.0721,-1.0721,-1.0721,-1.0721,-1.0721,-1.0721,-1.0721,-1.0721,-1.0721,-1.0721,-1.0721,-1.0721,-1.0721,-1.0721,-1.0721,-1.0721,-1.0721,-1.0721,-1.0721,-1.0721,-1.0721,-1.0721,-1.0721,-1.0721,-1.0721,-1.0721,-1.0721,-1.0721,-1.0721,-1.0721,-1.0721,-1.0721,-1.0721,-1.0721,-1.0721,-1.0721,-1.0721,-1.0721,-1.0721,-1.0497,-1.0307,-1.0283,-1.0042,-0.9846,-0.9825,-0.9869,-0.996,-0.9984,-1.0164,-1.0253,-1.028,-1.028,-1.027,-1.0246,-1.0266,-1.027,-1.0246,-1.0382,-1.0446,-1.0426,-1.0466,-1.0555,-1.0683,-1.0707,-1.0721,-1.0721,-1.0721,-1.0721,-1.0721,-1.0721,-1.0721,-1.0721,-1.0721,-1.0721,-1.0721,-1.0721,-1.0721,-1.0721,-1.0721,-1.0721,-1.0721,-1.0721,-1.0721,-1.0721,-1.1619,-1.1619,-1.1619,-1.1619,-1.1619,-1.1619,-1.1619,-1.1558,-1.143,-1.1265,-1.1104,-1.0975,-1.0744,-1.0721,-1.0721,-1.0721,-1.0721,-1.0721,-1.0721,-1.0721,-1.0721,-1.0721,-1.0721,-1.0721,-1.0721,-1.0721,-1.0721,-1.0721,-1.0721,-1.0721,-1.0721,-1.0721,-1.0721,-1.0721,-1.0721,-1.0721,-1.0721,-1.0721,-1.0721,-1.0721,-1.0721,-1.0721,-1.0721,-1.0721,-1.0721,-1.0721,-1.0721,-1.0721,-1.0721,-1.0721,-1.0721,-1.0721,-1.0721,-1.0721,-1.0721,-1.0721,-1.0721,-1.0721,-1.0721,-1.0721,-1.0721,-1.0721,-1.0721,-1.0721,-1.0721,-1.0721,-1.0721,-1.0721,-1.0721,-1.0721,-1.0721,-1.048,-1.028,-1.028,-1.0022,-0.9822,-0.9822,-0.9889,-1.0017,-1.0164,-1.0304,-1.0426,-1.051,-1.0517,-1.0483,-1.0399,-1.047,-1.048,-1.0399,-1.0534,-1.0616,-1.0616,-1.0616,-1.0649,-1.0721,-1.0721,-1.0721,-1.0721,-1.0721,-1.0721,-1.0721,-1.0721,-1.0721,-1.0721,-1.0721,-1.0721,-1.0721,-1.0721,-1.0721,-1.0721,-1.0721,-1.0721,-1.0721,-1.0721,-1.0721,-1.0721,-1.1619,-1.1619,-1.1619,-1.1619,-1.1619,-1.1619,-1.1619,-1.1619,-1.1508,-1.1272,-1.1231,-1.105,-1.0751,-1.0721,-1.0721,-1.0721,-1.0721,-1.0721,-1.0721,-1.0721,-1.0721,-1.0721,-1.0721,-1.0721,-1.0721,-1.0721,-1.0721,-1.0721,-1.0721,-1.0721,-1.0721,-1.0721,-1.0721,-1.0721,-1.0721,-1.0721,-1.0721,-1.0721,-1.0721,-1.0721,-1.0721,-1.0721,-1.0721,-1.0721,-1.0721,-1.0721,-1.0721,-1.0721,-1.0721,-1.0721,-1.0721,-1.0721,-1.0721,-1.0721,-1.0721,-1.0721,-1.0721,-1.0721,-1.0721,-1.0721,-1.0721,-1.0721,-1.0721,-1.0721,-1.0721,-1.0721,-1.0721,-1.0721,-1.0721,-1.0721,-1.0721,-1.0507,-1.0331,-1.0331,-1.0103,-0.9927,-0.9927,-1.0056,-1.0195,-1.0317,-1.0456,-1.0592,-1.0711,-1.0721,-1.067,-1.0555,-1.0653,-1.067,-1.0551,-1.0656,-1.0721,-1.0721,-1.0721,-1.0721,-1.0721,-1.0721,-1.0721,-1.0721,-1.0721,-1.0721,-1.0721,-1.0721,-1.0721,-1.0721,-1.0721,-1.0721,-1.0721,-1.0721,-1.0721,-1.0721,-1.0721,-1.0721,-1.0721,-1.0721,-1.0721,-1.0721,-1.1619,-1.1619,-1.1619,-1.1619,-1.1619,-1.1619,-1.1619,-1.1619,-1.1508,-1.1272,-1.1231,-1.105,-1.0751,-1.0721,-1.0721,-1.0721,-1.0721,-1.0721,-1.0721,-1.0721,-1.0721,-1.0721,-1.0721,-1.0721,-1.0721,-1.0721,-1.0721,-1.0721,-1.0721,-1.0721,-1.0721,-1.0721,-1.0721,-1.0721,-1.0721,-1.0721,-1.0721,-1.0721,-1.0721,-1.0721,-1.0721,-1.0721,-1.0721,-1.0721,-1.0721,-1.0721,-1.0721,-1.0721,-1.0721,-1.0721,-1.0721,-1.0721,-1.0721,-1.0721,-1.0721,-1.0721,-1.0721,-1.0721,-1.0721,-1.0721,-1.0721,-1.0721,-1.0721,-1.0721,-1.0721,-1.0721,-1.0721,-1.0721,-1.0721,-1.0721,-1.0721,-1.0585,-1.0477,-1.0477,-1.0348,-1.0246,-1.0246,-1.0371,-1.0463,-1.0473,-1.0612,-1.0707,-1.0717,-1.0721,-1.0714,-1.0704,-1.0714,-1.0714,-1.0704,-1.0714,-1.0721,-1.0721,-1.0721,-1.0721,-1.0721,-1.0721,-1.0721,-1.0721,-1.0721,-1.0721,-1.0721,-1.0721,-1.0721,-1.0721,-1.0721,-1.0721,-1.0721,-1.0721,-1.0721,-1.0721,-1.0721,-1.0721,-1.0721,-1.0721,-1.0721,-1.0721,-1.1619,-1.1619,-1.1619,-1.1619,-1.1619,-1.1619,-1.1619,-1.1538,-1.1402,-1.1192,-1.1087,-1.0951,-1.0744,-1.0721,-1.0721,-1.0721,-1.0721,-1.0721,-1.0721,-1.0721,-1.0721,-1.0721,-1.0721,-1.0721,-1.0721,-1.0721,-1.0721,-1.0721,-1.0721,-1.0721,-1.0721,-1.0721,-1.0721,-1.0721,-1.0721,-1.0721,-1.0721,-1.0721,-1.0721,-1.0721,-1.0721,-1.0721,-1.0721,-1.0721,-1.0721,-1.0721,-1.0721,-1.0721,-1.0721,-1.0721,-1.0721,-1.0721,-1.0721,-1.0721,-1.0721,-1.0721,-1.0721,-1.0721,-1.0721,-1.0721,-1.0721,-1.0721,-1.0721,-1.0721,-1.0721,-1.0721,-1.0721,-1.0721,-1.0721,-1.0721,-1.0721,-1.0595,-1.049,-1.049,-1.0371,-1.028,-1.028,-1.0402,-1.049,-1.049,-1.0626,-1.0721,-1.0721,-1.0721,-1.0721,-1.0721,-1.0721,-1.0721,-1.0721,-1.0721,-1.0721,-1.0721,-1.0721,-1.0721,-1.0721,-1.0721,-1.0721,-1.0721,-1.0721,-1.0721,-1.0721,-1.0721,-1.0721,-1.0721,-1.0721,-1.0721,-1.0721,-1.0721,-1.0721,-1.0721,-1.0721,-1.0721,-1.0721,-1.0721,-1.0721,-1.0721,-1.1619,-1.1619,-1.1619,-1.1619,-1.1619,-1.1603,-1.1555,-1.1457,-1.1321,-1.1121,-1.1009,-1.0823,-1.0738,-1.0721,-1.0721,-1.0721,-1.0721,-1.0721,-1.0721,-1.0721,-1.0721,-1.0721,-1.0721,-1.0721,-1.0721,-1.0721,-1.0721,-1.0721,-1.0721,-1.0721,-1.0721,-1.0721,-1.0721,-1.0721,-1.0721,-1.0721,-1.0721,-1.0721,-1.0721,-1.0721,-1.0721,-1.0721,-1.0721,-1.0721,-1.0721,-1.0721,-1.0721,-1.0721,-1.0721,-1.0721,-1.0721,-1.0721,-1.0721,-1.0721,-1.0721,-1.0721,-1.0721,-1.0721,-1.0721,-1.0721,-1.0721,-1.0721,-1.0721,-1.0721,-1.0721,-1.0721,-1.0721,-1.0721,-1.0721,-1.0721,-1.0721,-1.0633,-1.0565,-1.0565,-1.0483,-1.0419,-1.0419,-1.05,-1.0565,-1.0565,-1.0656,-1.0721,-1.0721,-1.0721,-1.0721,-1.0721,-1.0721,-1.0721,-1.0721,-1.0721,-1.0721,-1.0721,-1.0721,-1.0721,-1.0721,-1.0721,-1.0721,-1.0721,-1.0721,-1.0721,-1.0721,-1.0721,-1.0721,-1.0721,-1.0721,-1.0721,-1.0721,-1.0721,-1.0721,-1.0721,-1.0721,-1.0721,-1.0721,-1.0721,-1.0721,-1.0721,-1.1619,-1.1619,-1.1619,-1.1619,-1.1616,-1.1565,-1.1413,-1.1389,-1.128,-1.0921,-1.088,-1.0823,-1.0734,-1.0721,-1.0721,-1.0721,-1.0721,-1.0721,-1.0721,-1.0721,-1.0721,-1.0721,-1.0721,-1.0721,-1.0721,-1.0721,-1.0721,-1.0721,-1.0721,-1.0721,-1.0721,-1.0721,-1.0721,-1.0721,-1.0721,-1.0721,-1.0721,-1.0721,-1.0721,-1.0721,-1.0721,-1.0721,-1.0721,-1.0721,-1.0721,-1.0721,-1.0721,-1.0721,-1.0721,-1.0721,-1.0721,-1.0721,-1.0721,-1.0721,-1.0721,-1.0721,-1.0721,-1.0721,-1.0721,-1.0721,-1.0721,-1.0721,-1.0721,-1.0721,-1.0721,-1.0721,-1.0721,-1.0721,-1.0721,-1.0721,-1.0721,-1.0721,-1.0721,-1.0721,-1.0721,-1.0721,-1.0721,-1.0721,-1.0721,-1.0721,-1.0721,-1.0721,-1.0721,-1.0721,-1.0721,-1.0721,-1.0721,-1.0721,-1.0721,-1.0721,-1.0721,-1.0721,-1.0721,-1.0721,-1.0721,-1.0721,-1.0721,-1.0721,-1.0721,-1.0721,-1.0721,-1.0721,-1.0721,-1.0721,-1.0721,-1.0721,-1.0721,-1.0721,-1.0721,-1.0721,-1.0721,-1.0721,-1.0721,-1.0721,-1.0721,-1.0721,-1.1619,-1.1619,-1.1619,-1.1619,-1.1531,-1.1443,-1.1399,-1.1212,-1.0981,-1.0894,-1.0789,-1.0772,-1.0724,-1.0721,-1.0721,-1.0721,-1.0721,-1.0721,-1.0721,-1.0721,-1.0721,-1.0721,-1.0721,-1.0721,-1.0721,-1.0721,-1.0721,-1.0721,-1.0721,-1.0721,-1.0721,-1.0721,-1.0721,-1.0721,-1.0721,-1.0721,-1.0721,-1.0721,-1.0721,-1.0721,-1.0721,-1.0721,-1.0721,-1.0721,-1.0721,-1.0721,-1.0721,-1.0721,-1.0721,-1.0721,-1.0721,-1.0721,-1.0721,-1.0721,-1.0721,-1.0721,-1.0721,-1.0721,-1.0721,-1.0721,-1.0721,-1.0721,-1.0721,-1.0721,-1.0721,-1.0721,-1.0721,-1.0721,-1.0721,-1.0721,-1.0721,-1.0721,-1.0721,-1.0721,-1.0721,-1.0721,-1.0721,-1.0721,-1.0721,-1.0721,-1.0721,-1.0721,-1.0721,-1.0721,-1.0721,-1.0721,-1.0721,-1.0721,-1.0721,-1.0721,-1.0721,-1.0721,-1.0721,-1.0721,-1.0721,-1.0721,-1.0721,-1.0721,-1.0721,-1.0721,-1.0721,-1.0721,-1.0721,-1.0721,-1.0721,-1.0721,-1.0721,-1.0721,-1.0721,-1.0721,-1.0721,-1.0721,-1.0721,-1.0721,-1.0721,-1.0721,-1.1619,-1.1619,-1.1599,-1.1541,-1.1453,-1.1352,-1.1233,-1.1063,-1.086,-1.0799,-1.0778,-1.0721,-1.0721,-1.0721,-1.0721,-1.0721,-1.0721,-1.0721,-1.0721,-1.0721,-1.0721,-1.0721,-1.0721,-1.0721,-1.0721,-1.0721,-1.0721,-1.0721,-1.0721,-1.0721,-1.0721,-1.0721,-1.0721,-1.0721,-1.0721,-1.0721,-1.0721,-1.0721,-1.0721,-1.0721,-1.0721,-1.0721,-1.0721,-1.0721,-1.0721,-1.0721,-1.0721,-1.0721,-1.0721,-1.0721,-1.0721,-1.0721,-1.0721,-1.0721,-1.0721,-1.0721,-1.0721,-1.0721,-1.0721,-1.0721,-1.0721,-1.0721,-1.0721,-1.0721,-1.0721,-1.0721,-1.0721,-1.0721,-1.0721,-1.0721,-1.0721,-1.0721,-1.0721,-1.0721,-1.0721,-1.0721,-1.0721,-1.0721,-1.0721,-1.0721,-1.0721,-1.0721,-1.0721,-1.0588,-1.0455,-1.0323,-1.0323,-1.0323,-1.0323,-1.0323,-1.0323,-1.0323,-1.0323,-1.0323,-1.0323,-1.0323,-1.0455,-1.0721,-1.0721,-1.0721,-1.0721,-1.0721,-1.0721,-1.0721,-1.0721,-1.0721,-1.0721,-1.0721,-1.0721,-1.0721,-1.0721,-1.0721,-1.0721,-1.0721,-1.0721,-1.0721,-1.1603,-1.1599,-1.1552,-1.1399,-1.1358,-1.126,-1.0921,-1.087,-1.0809,-1.0738,-1.0721,-1.0721,-1.0721,-1.0721,-1.0721,-1.0721,-1.0721,-1.0721,-1.0721,-1.0721,-1.0721,-1.0721,-1.0721,-1.0721,-1.0721,-1.0721,-1.0721,-1.0721,-1.0721,-1.0721,-1.0721,-1.0721,-1.0721,-1.0721,-1.0721,-1.0721,-1.0721,-1.0721,-1.0721,-1.0721,-1.0721,-1.0721,-1.0721,-1.0721,-1.0721,-1.0721,-1.0721,-1.0721,-1.0721,-1.0721,-1.0721,-1.0721,-1.0721,-1.0721,-1.0721,-1.0721,-1.0721,-1.0721,-1.0721,-1.0721,-1.0721,-1.0721,-1.0721,-1.0721,-1.0721,-1.0721,-1.0721,-1.0721,-1.0721,-1.0721,-1.0721,-1.0721,-1.0721,-1.0721,-1.0721,-1.0721,-1.0721,-1.0721,-1.0721,-1.0721,-1.0654,-1.0654,-1.0654,-1.0323,-1.006,-0.9731,-0.9728,-0.9728,-0.9728,-0.9661,-0.9661,-0.9661,-0.9594,-0.9594,-0.9594,-0.9594,-0.9924,-1.0588,-1.0588,-1.0588,-1.0588,-1.0654,-1.0654,-1.0654,-1.0721,-1.0721,-1.0721,-1.0721,-1.0721,-1.0721,-1.0721,-1.0721,-1.0721,-1.0721,-1.0721,-1.0721,-1.1463,-1.144,-1.1392,-1.124,-1.1118,-1.0954,-1.089,-1.0779,-1.0758,-1.0724,-1.0721,-1.0721,-1.0721,-1.0721,-1.0721,-1.0721,-1.0721,-1.0721,-1.0721,-1.0721,-1.0721,-1.0721,-1.0721,-1.0721,-1.0721,-1.0721,-1.0721,-1.0721,-1.0721,-1.0721,-1.0721,-1.0721,-1.0721,-1.0721,-1.0721,-1.0721,-1.0721,-1.0721,-1.0721,-1.0721,-1.0721,-1.0721,-1.0721,-1.0721,-1.0721,-1.0721,-1.0721,-1.0721,-1.0721,-1.0721,-1.0721,-1.0721,-1.0721,-1.0721,-1.0721,-1.0721,-1.0721,-1.0721,-1.0721,-1.0721,-1.0721,-1.0721,-1.0721,-1.0721,-1.0721,-1.0721,-1.0721,-1.0721,-1.0721,-1.0721,-1.0721,-1.0721,-1.0721,-1.0721,-1.0721,-1.0721,-1.0721,-1.0721,-1.0721,-1.0721,-1.0455,-1.0323,-1.0323,-0.9994,-0.9794,-0.9728,-0.9728,-0.9728,-0.9728,-0.9389,-0.9253,-0.9253,-0.8987,-0.8856,-0.8856,-0.8856,-0.9192,-0.9927,-0.9927,-0.9927,-0.9927,-1.019,-1.0323,-1.0326,-1.0588,-1.0721,-1.0721,-1.0721,-1.0721,-1.0721,-1.0721,-1.0721,-1.0721,-1.0721,-1.0721,-1.0721,-1.1311,-1.128,-1.1236,-1.1087,-1.0999,-1.0857,-1.0782,-1.0772,-1.0721,-1.0721,-1.0721,-1.0721,-1.0721,-1.0721,-1.0721,-1.0721,-1.0721,-1.0721,-1.0721,-1.0721,-1.0721,-1.0721,-1.0721,-1.0721,-1.0721,-1.0721,-1.0721,-1.0721,-1.0721,-1.0721,-1.0721,-1.0721,-1.0721,-1.0721,-1.0721,-1.0721,-1.0721,-1.0721,-1.0721,-1.0721,-1.0721,-1.0721,-1.0721,-1.0721,-1.0721,-1.0721,-1.0721,-1.0721,-1.0721,-1.0721,-1.0721,-1.0721,-1.0721,-1.0721,-1.0721,-1.0721,-1.0721,-1.0721,-1.0721,-1.0721,-1.0721,-1.0721,-1.0721,-1.0721,-1.0721,-1.0721,-1.0721,-1.0721,-1.0663,-1.0612,-1.0612,-1.0558,-1.051,-1.051,-1.051,-1.051,-1.051,-1.0377,-1.027,-1.0343,-1.009,-0.9786,-0.9449,-0.9125,-0.8862,-0.8662,-0.8662,-0.8662,-0.8662,-0.8456,-0.832,-0.832,-0.8189,-0.8058,-0.8058,-0.8058,-0.8259,-0.8662,-0.9192,-0.9525,-0.9728,-0.9861,-1.006,-1.0193,-1.0389,-1.0522,-1.0721,-1.0721,-1.0721,-1.0721,-1.0721,-1.0721,-1.0721,-1.0721,-1.0721,-1.0721,-1.1155,-1.1124,-1.108,-1.0867,-1.0843,-1.0799,-1.0741,-1.0721,-1.0721,-1.0721,-1.0721,-1.0721,-1.0721,-1.0721,-1.0721,-1.0721,-1.0721,-1.0721,-1.0721,-1.0721,-1.0721,-1.0721,-1.0721,-1.0721,-1.0721,-1.0721,-1.0721,-1.0721,-1.0721,-1.0721,-1.0721,-1.0721,-1.0721,-1.0721,-1.0721,-1.0721,-1.0721,-1.0721,-1.0721,-1.0721,-1.0721,-1.0721,-1.0721,-1.0721,-1.0721,-1.0721,-1.0721,-1.0721,-1.0721,-1.0721,-1.0721,-1.0721,-1.0721,-1.0721,-1.0721,-1.0721,-1.0721,-1.0721,-1.0721,-1.0721,-1.0714,-1.0687,-1.068,-1.0673,-1.0649,-1.0663,-1.0673,-1.0649,-1.0544,-1.0456,-1.0456,-1.0358,-1.028,-1.028,-1.028,-1.028,-1.0213,-0.9952,-0.9803,-0.9857,-0.9571,-0.9038,-0.848,-0.8112,-0.7791,-0.7459,-0.7326,-0.7326,-0.7326,-0.7259,-0.7257,-0.7257,-0.719,-0.7123,-0.7123,-0.7123,-0.719,-0.7257,-0.8187,-0.892,-0.9461,-0.9461,-0.9724,-0.999,-1.0123,-1.0389,-1.0588,-1.0654,-1.0721,-1.0721,-1.0721,-1.0721,-1.0721,-1.0721,-1.0721,-1.0721,-1.1006,-1.0911,-1.0931,-1.0778,-1.0751,-1.0744,-1.0724,-1.0721,-1.0721,-1.0721,-1.0721,-1.0721,-1.0721,-1.0721,-1.0721,-1.0721,-1.0721,-1.0721,-1.0721,-1.0721,-1.0721,-1.0721,-1.0721,-1.0721,-1.0721,-1.0721,-1.0721,-1.0721,-1.0721,-1.0721,-1.0721,-1.0721,-1.0721,-1.0721,-1.0721,-1.0721,-1.0721,-1.0721,-1.0721,-1.0721,-1.0721,-1.0721,-1.0721,-1.0721,-1.0721,-1.0721,-1.0721,-1.0721,-1.0721,-1.0721,-1.0721,-1.0721,-1.0721,-1.0721,-1.0721,-1.0721,-1.0721,-1.0721,-1.0721,-1.0721,-1.0687,-1.0555,-1.0524,-1.049,-1.0368,-1.0436,-1.0487,-1.0365,-1.0324,-1.031,-1.031,-1.0293,-1.028,-1.028,-1.028,-1.0213,-0.9888,-0.9821,-0.9704,-0.9404,-0.8927,-0.8282,-0.7648,-0.7334,-0.7118,-0.7051,-0.6719,-0.652,-0.652,-0.625,-0.6115,-0.6115,-0.5848,-0.5716,-0.5716,-0.5716,-0.5848,-0.6115,-0.6585,-0.739,-0.8325,-0.859,-0.892,-0.9316,-0.9924,-1.0256,-1.0256,-1.0588,-1.0721,-1.0721,-1.0721,-1.0721,-1.0721,-1.0721,-1.0721,-1.0721,-1.085,-1.0819,-1.0799,-1.0731,-1.0721,-1.0721,-1.0721,-1.0721,-1.0721,-1.0721,-1.0721,-1.0721,-1.0721,-1.0721,-1.0721,-1.0721,-1.0721,-1.0721,-1.0721,-1.0721,-1.0721,-1.0721,-1.0721,-1.0721,-1.0721,-1.0721,-1.0721,-1.0721,-1.0721,-1.0721,-1.0721,-1.0721,-1.0721,-1.0721,-1.0721,-1.0721,-1.0721,-1.0721,-1.0721,-1.0721,-1.0721,-1.0721,-1.0721,-1.0721,-1.0721,-1.0721,-1.0721,-1.0721,-1.0721,-1.0721,-1.0721,-1.0721,-1.0721,-1.0721,-1.0721,-1.0721,-1.0721,-1.07,-1.0616,-1.0592,-1.0558,-1.0412,-1.0375,-1.0334,-1.0185,-1.0198,-1.0253,-1.0276,-1.0212,-1.0151,-1.0151,-1.0083,-0.9963,-0.9777,-0.9715,-0.9653,-0.9339,-0.8963,-0.8551,-0.8119,-0.753,-0.7038,-0.6836,-0.6353,-0.6064,-0.6113,-0.5915,-0.585,-0.585,-0.5714,-0.5647,-0.5647,-0.5446,-0.5381,-0.5381,-0.5381,-0.5448,-0.5647,-0.5783,-0.6451,-0.7519,-0.8056,-0.852,-0.8851,-0.9386,-0.9724,-0.9927,-1.006,-1.0256,-1.0389,-1.0389,-1.0522,-1.0721,-1.0721,-1.0721,-1.0721]}]]